[[{"header":{"parameterUnit":"m.s-1","parameterCategory":1,"la1":30.6,"la2":29.2853,"lo1":-89.7004,"lo2":-87.6739,"dy":0.0162,"dx":0.0183,"nx":112,"ny":82,"refTime":"2024-02-01T06:00:00:Z","depth":0,"parameterNumber":2,"parameterNumberName":"U-component_of_WINDS"},"data":[0.0,0.0,0.0,0.0,0.0,0.0,0.0,0.0,0.0,0.0,0.0,0.0,0.0,0.0,0.0,0.0,0.0,0.0,0.0,0.0,0.0,0.0,0.0,0.0,0.0,0.0,0.0,0.0,0.0,0.0,0.0,0.0,0.0,0.0,0.0,0.0,0.0,0.0,0.0,0.0,0.0,0.0,0.0,0.0,0.0,0.0,0.0,0.0,0.0,0.0,0.0,0.0,0.0,0.0,0.0,0.0,0.0,0.0,0.0,0.0,0.0,0.0,0.0,0.0,0.0,0.0,0.0,0.0,0.0,0.0,0.0,0.0,0.0,0.0,0.0,0.0,0.0,0.0,0.0,0.0,0.0,0.0,0.0,0.0,0.0,0.0,0.0,0.0,0.0,0.0,0.0,0.2305,0.3311,0.4237,0.4678,0.4217,0.3294,0.1871,0.0,0.0,0.0,0.0,0.0,0.0,0.0,0.0,0.0,0.0,0.0,0.0,0.0,0.0,0.0,0.0,0.0,0.0,0.0,0.0,0.0,0.0,0.0,0.0,0.0,0.0,0.0,0.0,0.0,0.0,0.0,0.0,0.0,0.0,0.0,0.0,0.0,0.0,0.0,0.0,0.0,0.0,0.0,0.0,0.0,0.0,0.0,0.0,0.0,0.0,0.0,0.0,0.0,0.0,0.0,0.0,0.0,0.0,0.0,0.0,0.0,0.0,0.0,0.0,0.0,0.0,0.0,0.0,0.0,0.0,0.0,0.0,0.0,0.0,0.0,0.0,0.0,0.0,0.0,0.0,0.0,0.0,0.0,0.0,0.0,0.0,0.0,0.0,0.0,0.0,0.0,0.0,0.0,0.0,0.0,0.0,0.0,0.0,0.0,0.0,0.0,0.0,0.0,0.0,0.2178,0.0566,0.0595,0.1338,0.2848,0.3542,0.3274,0.1809,0.0,0.0,0.0,0.0,0.0,0.0,0.0,0.0,0.0,0.0,0.0,0.0,0.0,0.0,0.0,0.0,0.0,0.0,0.0,0.0,0.0,0.0,0.0,0.0,0.0,0.0,0.0,0.0,0.0,0.0,0.0,0.0,0.0,0.0,0.0,0.0,0.0,0.0,0.0,0.0,0.0,0.0,0.0,0.0,0.0,0.0,0.0,0.0,0.0,0.0,0.0,0.0,0.0,0.0,0.0,0.0,0.0,0.0,0.0,0.0,0.0,0.0,0.0,0.0,0.0,0.0,0.0,0.0,0.0,0.0,0.0,0.0,0.0,0.0,0.0,0.0,0.0,0.0,0.0,0.0,0.0,0.0,0.0,0.0,0.0,0.0,0.0,0.0,0.0,0.0,0.0,0.0,0.0,0.0,0.0,0.0,0.0,0.0,0.0,0.0,0.0,0.0,0.0,0.1986,0.0884,0.0083,0.0,0.0322,0.1123,0.1559,0.1639,0.1289,0.2846,0.0,0.0,0.0,0.0,0.0,0.0,0.0,0.0,0.0,0.0,0.0,0.0,0.0,0.0,0.0,0.0,0.0,0.0,0.0,0.0,0.0,0.0,0.0,0.0,0.0,0.0,0.0,0.0,0.0,0.0,0.0,0.0,0.0,0.0,0.0,0.0,0.0,0.0,0.0,0.0,0.0,0.0,0.0,0.0,0.0,0.0,0.0,0.0,0.0,0.0,0.0,0.0,0.0,0.0,0.0,0.0,0.0,0.0,0.0,0.0,0.0,0.0,0.0,0.0,0.0,0.0,0.0,0.0,0.0,0.0,0.0,0.0,0.0,0.0,0.0,0.0,0.0,0.0,0.0,0.0,0.0,0.0,0.0,0.0,0.0,0.0,0.0,0.0,0.0,0.0,0.0,0.0,0.0,0.0,0.0,0.0,0.0,0.0,0.0,0.0,0.0,0.0,0.1263,0.0,0.0,0.0,0.0,0.0,0.0,0.0319,0.1067,0.2621,0.0,0.0,0.0,0.0,0.0,0.0,0.0,0.0,0.0,0.0,0.0,0.0,0.0,0.0,0.0,0.0,0.0,0.0,0.0,0.0,0.0,0.0,0.0,0.0,0.0,0.0,0.0,0.0,0.0,0.0,0.0,0.0,0.0,0.0,0.0,0.0,0.0,0.0,0.0,0.0,0.0,0.0,0.0,0.0,0.0,0.0,0.0,0.0,0.0,0.0,0.0,0.0,0.0,0.0,0.0,0.0,0.0,0.0,0.0,0.0,0.0,0.0,0.0,0.0,0.0,0.0,0.0,0.0,0.0,0.0,0.0,0.0,0.0,0.0,0.0,0.0,0.0,0.0,0.0,0.0,0.0,0.0,0.0,0.0,0.0,0.0,0.0,0.0,0.0,0.0,0.0,0.0,0.0,0.0,0.0,0.0,0.0,0.0,0.0,0.0,0.0,0.0,0.1814,0.0,0.0,0.0,0.0,0.0,0.0,0.0498,0.166,0.2846,0.0,0.0,0.0,0.0,0.0,0.0,0.0,0.0,0.0,0.0,0.0,0.0,0.0,0.0,0.0,0.0,0.0,0.0,0.0,0.0,0.0,0.0,0.0,0.0,0.0,0.0,0.0,0.0,0.0,0.0,0.0,0.0,0.0,0.0,0.0,0.0,0.0,0.0,0.0,0.0,0.0,0.0,0.0,0.0,0.0,0.0,0.0,0.0,0.0,0.0,0.0,0.0,0.0,0.0,0.0,0.0,0.0,0.0,0.0,0.0,0.0,0.0,0.0,0.0,0.0,0.0,0.0,0.0,0.0,0.0,0.0,0.0,0.0,0.0,0.0,0.0,0.0,0.0,0.0,0.0,0.0,0.0,0.0,0.0,0.0,0.0,0.0,0.0,0.0,0.0,0.0,0.0,0.0,0.0,0.0,0.0,0.0,0.0,0.0,0.0,0.0,0.0,0.2801,0.1804,0.0,0.0,0.0,0.0,0.0,0.0513,0.172,0.0,0.0,0.0,0.0,0.0,0.0,0.0,0.0,0.0,0.0,0.0,0.0,0.0,0.0,0.0,0.0,0.0,0.0,0.0,0.0,0.0,0.0,0.0,0.0,0.0,0.0,0.0,0.0,0.0,0.0,0.0,0.0,0.0,0.0,0.0,0.0,0.0,0.0,0.0,0.0,0.0,0.0,0.0,0.0,0.0,0.0,0.0,0.0,0.0,0.0,0.0,0.0,0.0,0.0,0.0,0.0,0.0,0.0,0.0,0.0,0.0,0.0,0.0,0.0,0.0,0.0,0.0,0.0,0.0,0.0,0.0,0.0,0.0,0.0,0.0,0.0,0.0,0.0,0.0,0.0,0.0,0.0,0.0,0.0,0.0,0.0,0.0,0.0,0.0,0.0,0.0,0.0,0.0,0.0,0.0,0.0,0.0,0.0,0.0,0.0,0.0,0.0,0.3083,0.2724,0.1975,0.0,0.0,0.0,0.0,0.0,0.0587,0.1969,0.0,0.0,0.0,0.0,0.0,0.0,0.0,0.0,0.0,0.0,0.0,0.0,0.0,0.0,0.0,0.0,0.0,0.0,0.0,0.0,0.0,0.0,0.0,0.0,0.0,0.0,0.0,0.0,0.0,0.0,0.0,0.0,0.0,0.0,0.0,0.0,0.0,0.0,0.0,0.0,0.0,0.0,0.0,0.0,0.0,0.0,0.0,0.0,0.0,0.0,0.0,0.0,0.0,0.0,0.0,0.0,0.0,0.0,0.0,0.0,0.0,0.0,0.0,0.0,0.0,0.0,0.0,0.0,0.0,0.0,0.0,0.0,0.0,0.0,0.0,0.0,0.0,0.0,0.0,0.0,0.0,0.0,0.0,0.0,0.0,0.0,0.0,0.0,0.0,0.0,0.0,0.0,0.0,0.0,0.0,0.0,0.0,0.0,0.0,0.0,0.0,0.0,0.3648,0.1373,0.0,0.0,0.0,0.0,0.0,0.0,0.0742,0.0,0.0,0.0,0.0,0.0,0.0,0.0,0.0,0.0,0.0,0.0,0.0,0.0,0.0,0.0,0.0,0.0,0.0,0.0,0.0,0.0,0.0,0.0,0.0,0.0,0.0,0.0,0.0,0.0,0.0,0.0,0.0,0.0,0.0,0.0,0.0,0.0,0.0,0.0,0.0,0.0,0.0,0.0,0.0,0.0,0.0,0.0,0.0,0.0,0.0,0.0,0.0,0.0,0.0,0.0,0.0,0.0,0.0,0.0,0.0,0.0,0.0,0.0,0.0,0.0,0.0,0.0,0.0,0.0,0.0,0.0,0.0,0.0,0.0,0.0,0.0,0.0,0.0,0.0,0.0,0.0,0.0,0.0,0.0,0.0,0.0,0.0,0.0,0.0,0.0,0.0,0.0,0.0,0.0,0.0,0.0,0.0,0.0,0.0,0.0,0.0,0.0,0.0,0.4025,0.1543,0.0,0.0,0.0,0.0,0.0,0.0,0.0742,0.249,0.0,0.0,0.0,0.0,0.0,0.0,0.0,0.0,0.0,0.0,0.0,0.0,0.0,0.0,0.0,0.0,0.0,0.0,0.0,0.0,0.0,0.0,0.0,0.0,0.0,0.0,0.0,0.0,0.0,0.0,0.0,0.0,0.0,0.0,0.0,0.0,0.0,0.0,0.0,0.0,0.0,0.0,0.0,0.0,0.0,0.0,0.0,0.0,0.0,0.0,0.0,0.0,0.0,0.0,0.0,0.0,0.0,0.0,0.0,0.0,0.0,0.0,0.0,0.0,0.0,0.0,0.0,0.0,0.0,0.0,0.0,0.0,0.0,0.0,0.0,0.0,0.0,0.0,0.0,0.0,0.0,0.0,0.0,0.0,0.0,0.0,0.0,0.0,0.0,0.0,0.0,0.0,0.0,0.0,0.0,0.0,0.0,0.0,0.0,0.0,0.0,0.0,0.4139,0.1617,0.0,0.0,0.0,0.0,0.0,0.0,0.0449,0.1494,0.0,0.0,0.0,0.0,0.0,0.0,0.0,0.0,0.0,0.0,0.0,0.0,0.0,0.0,0.0,0.0,0.0,0.0,0.0,0.0,0.0,0.0,0.0,0.0,0.0,0.0,0.0,0.0,0.0,0.0,0.0,0.0,0.0,0.0,0.0,0.0,0.0,0.0,0.0,0.0,0.0,0.0,0.0,0.0,0.0,0.0,0.0,0.0,0.0,0.0,0.0,0.0,0.0,0.0,0.0,0.0,0.0,0.0,0.0,0.0,0.0,0.0,0.0,0.0,0.0,0.0,0.0,0.0,0.0,0.0,0.0,0.0,0.0,0.0,0.0,0.0,0.0,0.0,0.0,0.0,0.0,0.0,0.0,0.0,0.0,0.0,0.0,0.0,0.0,0.0,0.0,0.0,0.0,0.0,0.0,0.0,0.0,0.0,0.0,0.0,0.0,0.0,0.3977,0.1564,0.0,0.0,0.0,0.0,0.0,0.0,0.0,0.0,0.0,0.0,0.0,0.0,0.0,0.0,0.0,0.0,0.0,0.0,0.0,0.0,0.0,0.0,0.0,0.0,0.0,0.0,0.0,0.0,0.0,0.0,0.0,0.0,0.0,0.0,0.0,0.0,0.0,0.0,0.0,0.0,0.0,0.0,0.0,0.0,0.0,0.0,0.0,0.0,0.0,0.0,0.0,0.0,0.0,0.0,0.0,0.0,0.0,0.0,0.0,0.0,0.0,0.0,0.0,0.0,0.0,0.0,0.0,0.0,0.1582,0.0,0.0,0.0,0.0,0.0,0.0,0.0,0.0,0.0,0.0,0.0,0.0,0.0,0.0,0.0,0.0,0.0,0.0,0.0,0.0,0.0,0.0,0.0,0.0,0.0,0.0,0.0,0.0,0.0,0.0,0.0,0.0,0.0,0.0,0.0,0.0,0.0,0.0,0.0,0.0,0.0,0.327,0.1194,0.0,0.0,0.0,0.0,0.0,0.0,0.0,0.0,0.0792,0.0,0.0,0.0,0.0,0.0,0.0,0.0,0.0,0.0,0.0,0.0,0.0,0.0,0.0,0.0,0.0,0.0,0.0,0.0,0.0,0.0,0.0,0.0,0.0,0.0,0.0,0.0,0.0,0.0,0.0,0.0,0.0,0.0,0.0,0.0,0.0,0.0,0.0,0.0,0.0,0.0,0.0,0.0,0.0,0.0,0.0,0.0,0.0,0.0,0.0,0.0,0.0,0.0,0.0,0.0,0.0,0.0,0.0,0.0,0.0,0.167,0.0,0.0,0.0,0.0,0.0,0.0,0.0,0.0,0.0,0.0,0.0,0.0,0.0,0.0,0.0,0.0,0.0,0.0,0.0,0.0,0.0,0.0,0.0,0.0,0.0,0.0,0.0,0.0,0.0,0.0,0.0,0.0,0.0,0.0,0.0,0.0,0.0,0.0,0.0,0.0,0.3629,0.1338,0.0,0.0,0.0,0.0,0.0,0.0,0.0,0.0,0.0,0.0,0.0,0.0,0.0,0.0,0.0,0.0,0.0,0.0,0.0,0.0,0.0,0.0,0.0,0.0,0.0,0.0,0.0,0.0,0.0,0.0,0.0,0.0,0.0,0.0,0.0,0.0,0.0,0.0,0.0,0.0,0.0,0.0,0.0,0.0,0.0,0.0,0.0,0.0,0.0,0.0,0.0,0.0,0.0,0.0,0.0,0.0,0.0,0.0,0.0,0.0,0.0,0.0,0.2886,0.2487,0.1872,0.1657,0.1375,0.1086,0.1646,0.1623,0.1174,0.0,0.0,0.0,0.0,0.0,0.0,0.0,0.0,0.0,0.0,0.0,0.0,0.0,0.0,0.0,0.0,0.0,0.0,0.0,0.0,0.0,0.0,0.0,0.0,0.0,0.5788,0.6335,0.0,0.0,0.0,0.0,0.0,0.0,0.0,0.0,0.0,0.0,0.0,0.0,0.4876,0.1904,0.0,0.0,0.0,0.0,0.0,0.0,0.0,0.0,0.0,0.0,0.0,0.0,0.0,0.0,0.0,0.0,0.0,0.0,0.0,0.0,0.0,0.0,0.0,0.0,0.0,0.0,0.0,0.0,0.0,0.0,0.0,0.0,0.0,0.0,0.0,0.0,0.0,0.0,0.0,0.0,0.0,0.0,0.0472,0.0056,0.0,0.0,0.0,0.0,0.0,0.0,0.0,0.0,0.0,0.0,0.0,0.0,0.0,0.3871,0.3131,0.3024,0.277,0.2417,0.2161,0.181,0.1386,0.1126,0.0828,0.0506,0.0601,0.0,0.0693,0.0685,0.0,0.0,0.0,0.0,0.0,0.0,0.0,0.0,0.0,0.0,0.0,0.0,0.0,0.0,0.0,0.0,0.0,0.0,0.0,0.0,0.0,0.0,0.3969,0.4639,0.4868,0.5146,0.0,0.6686,0.7292,0.7497,0.8193,0.0,0.0,0.0,0.0,0.0,0.0,0.0,0.742,0.3058,0.0,0.0,0.0,0.0,0.0,0.0,0.0,0.0,0.0,0.0,0.0,0.0557,0.0,0.0,0.0,0.0,0.0,0.0,0.0,0.0,0.0,0.0,0.0,0.0,0.0,0.0,0.0,0.0,0.0,0.0,0.0,0.0,0.0,0.0,0.0,0.0,0.0,0.0,0.0,0.0,0.0,-0.0023,0.0206,0.0025,0.0241,0.0188,0.0,0.0,0.0,0.0,0.0,0.0,0.0,0.0,0.0,0.3178,0.3117,0.2725,0.1933,0.1872,0.1519,0.0892,0.0695,0.0463,0.017,-0.0105,-0.0265,-0.0338,-0.0574,-0.0586,-0.0403,0.0336,0.06,0.0499,0.0,0.0,0.0,0.0,0.0803,0.0825,0.1005,0.096,0.0,0.0,0.0,0.0,0.0,0.0,0.0,0.0,0.0,0.0,0.0,0.0,0.0,0.3622,0.3854,0.4191,0.5054,0.5617,0.618,0.0,0.7731,0.833,0.8428,0.0,0.0,0.0,0.0,0.0,0.7764,0.3275,0.0,0.0,0.0,0.0,0.0,0.0,0.0,0.0,0.0,0.0,0.0,0.0,0.0762,0.0,0.0,0.0,0.0,0.0,0.0,0.0,0.0,0.0,0.0,0.0,0.0,0.0,0.0,0.0,0.0,0.0,0.0,0.0,0.0,0.0,0.0,0.0,0.0,0.0,0.0,0.0,0.0,-0.0047,0.0123,0.0023,0.0246,0.0156,0.0,0.0,0.0,0.0,0.0,0.0,0.159,0.1938,0.202,0.1734,0.1529,0.1111,0.0441,0.0396,0.0071,-0.0537,-0.064,-0.0842,-0.1147,-0.134,-0.1429,-0.1455,-0.1684,-0.1721,-0.1524,-0.0239,0.0137,-0.0061,0.0087,0.0089,0.0022,0.0222,0.0289,0.0333,0.0512,0.0401,0.0178,0.0022,0.0,-0.032,-0.0251,0.0,0.0,0.0,0.0,0.1005,0.1203,0.1717,0.225,0.2596,0.2811,0.3189,0.3999,0.4451,0.507,0.0,0.7137,0.7633,0.7711,0.0,0.0,0.0,0.0,0.517,0.5797,0.2436,0.0,0.0,0.0,0.0,0.0,0.0,0.0,0.0,0.0,0.0,0.0,0.0,0.0,0.0,0.0,0.0,0.0,0.0,0.0,0.0,0.0,0.0,0.0,0.0,0.0,0.0,0.0,0.0,0.0,0.0,0.0,0.0,0.0,0.0,0.0,0.0,0.0,0.0,0.0,0.0,0.0,0.0,0.0,0.0046,0.0246,0.0,0.0,0.0,0.0,-0.0356,0.0394,0.075,0.0501,0.0732,0.0419,-0.0596,-0.0816,-0.1074,-0.1368,-0.1502,-0.1514,-0.1432,-0.1442,-0.1745,-0.2321,-0.2334,-0.2534,-0.2881,-0.2645,-0.2537,-0.2439,-0.1292,-0.0838,-0.0835,-0.0617,-0.0331,0.0,0.0022,0.0022,-0.0022,-0.0244,-0.0356,-0.0446,-0.1027,-0.1233,-0.1187,-0.0935,-0.086,0.0,0.0,-0.04,0.0067,0.0089,0.0534,0.1109,0.164,0.1786,0.1953,0.2576,0.3315,0.4273,0.0,0.6276,0.6606,0.667,0.0,0.6865,0.7368,0.5779,0.3528,0.0756,0.0165,0.0,0.0,0.0,0.0,0.0,0.0,0.0,0.0,0.0,0.0,0.0,0.0,0.0,0.0,0.4345,0.0,0.0,0.0,0.0,0.0,0.0,0.0,0.0,0.0,0.0,0.0,0.0,0.0,0.0,0.0,0.0,0.0,0.0,0.0,0.0,0.0,0.0,0.0,0.0,0.0,0.0,0.0,0.0,-0.0558,-0.0643,0.0,-0.1438,-0.1078,-0.0878,-0.0964,-0.0834,-0.0897,-0.1259,-0.1477,-0.1898,-0.2582,-0.2635,-0.2788,-0.3101,-0.2983,-0.3031,-0.3234,-0.3062,-0.3183,-0.3557,-0.3656,-0.3722,-0.378,-0.3952,-0.3887,-0.367,-0.3254,-0.25,-0.1591,-0.1424,-0.1277,-0.1143,-0.0918,-0.0963,-0.1143,-0.103,-0.1121,-0.1326,-0.1549,-0.1617,-0.1561,-0.1242,-0.1297,-0.1426,-0.1223,-0.1155,-0.1111,-0.0887,-0.0687,-0.0376,0.022,0.0352,0.0548,0.1287,0.1659,0.2126,0.3025,0.4678,0.5733,0.5152,0.5126,0.4929,0.4172,0.3612,0.2486,0.028,0.0,0.0,0.0,0.0,0.0,0.0,0.0,0.0,0.0,0.0,0.0,0.0,0.0,0.0,0.0,0.2944,0.4343,0.0,0.0,0.0,0.0,0.0,0.0,0.0,0.0,0.0,0.0,0.0,0.0,0.0,0.0,0.0,0.0,0.0,0.0,0.0,0.0,0.0,0.0,0.0,0.0,0.0,0.0,-0.1138,-0.1448,-0.164,-0.186,-0.2166,-0.1931,-0.1812,-0.1995,-0.2186,-0.2548,-0.3076,-0.3586,-0.4075,-0.4565,-0.4529,-0.4556,-0.4636,-0.4405,-0.4332,-0.4427,-0.4187,-0.4235,-0.4542,-0.462,-0.4715,-0.4789,-0.4962,-0.4918,-0.4687,-0.4506,-0.3828,-0.2882,-0.2516,-0.2383,-0.2338,-0.2023,-0.205,-0.2194,-0.188,-0.197,-0.2239,-0.2239,-0.2239,-0.2196,-0.1979,-0.1989,-0.2062,-0.1836,-0.1858,-0.1882,-0.1656,-0.1609,-0.1497,-0.11,-0.1076,-0.1002,-0.0469,-0.0106,0.0212,0.0606,0.2629,0.4095,0.3468,0.3362,0.3012,0.1976,0.1767,0.1302,0.0148,0.0,0.0,0.0,0.0,0.0,0.0,0.0,0.0,0.0,0.0,0.067,0.2166,0.2229,0.2229,0.2229,0.3204,0.4455,0.5987,0.0,0.0,0.0,0.0,0.0,0.0,0.0,0.0,0.0,0.0,0.0,0.0,0.0,0.0,0.0,0.0,0.0,0.0,0.0,0.0,0.0,0.0,0.0,-0.2214,-0.1641,-0.17,-0.2553,-0.2675,-0.2787,-0.304,-0.2853,-0.2919,-0.3424,-0.3666,-0.4122,-0.4918,-0.5463,-0.5989,-0.6522,-0.6528,-0.633,-0.593,-0.5732,-0.5402,-0.4958,-0.4752,-0.4862,-0.5261,-0.5245,-0.5495,-0.5905,-0.5643,-0.5521,-0.5464,-0.4948,-0.4729,-0.4626,-0.3831,-0.3526,-0.3484,-0.3226,-0.3147,-0.3105,-0.2842,-0.2925,-0.3147,-0.3147,-0.3147,-0.3126,-0.3126,-0.2944,-0.274,-0.274,-0.251,-0.2259,-0.2259,-0.2248,-0.2258,-0.2237,-0.2438,-0.2638,-0.2638,-0.1974,-0.1371,-0.1371,0.0208,0.1569,0.1591,0.1393,0.115,0.0984,0.0404,0.0,-0.0053,-0.0024,-0.0027,-0.0103,-0.011,-0.008,-0.0007,0.0,0.0,0.0,0.0,0.1922,0.6217,0.6524,0.6599,0.6599,0.5126,0.586,0.8891,0.0,0.0,0.0,0.0,0.0,0.0,0.0,0.0,0.0,0.0,0.0,0.0,0.0,0.0,0.0,0.0,0.0,0.0,0.0,0.0,0.0,0.0,-0.4138,-0.2765,-0.2839,-0.3267,-0.3906,-0.4315,-0.4602,-0.4724,-0.4805,-0.4902,-0.5065,-0.548,-0.5884,-0.6255,-0.66,-0.6948,-0.7286,-0.7107,-0.6883,-0.6629,-0.6428,-0.6342,-0.6344,-0.5943,-0.599,-0.6425,-0.6288,-0.629,-0.6395,-0.613,-0.5932,-0.5765,-0.5429,-0.5156,-0.4937,-0.4313,-0.409,-0.4069,-0.3991,-0.3971,-0.395,-0.3888,-0.3909,-0.3971,-0.3971,-0.3971,-0.3926,-0.3729,-0.3626,-0.3567,-0.3567,-0.3494,-0.3425,-0.3425,-0.3443,-0.3395,-0.318,-0.3198,-0.3257,-0.3257,-0.3072,-0.2892,-0.2892,-0.2303,-0.1504,-0.0628,-0.0545,-0.0967,-0.2068,-0.1337,0.0,-0.1248,-0.054,-0.0654,-0.2361,-0.2543,-0.1853,-0.0146,0.0,0.0,0.0,0.0,0.0545,0.1766,0.4896,0.6599,0.6599,0.3073,0.3768,0.0,0.0,0.0,0.0,0.0,0.0,0.0,0.0,0.0,0.0,0.0,0.0,0.0,0.0,0.0,0.0,0.0,0.0,0.0,0.0,0.0,0.0,-0.6867,-0.5868,-0.5159,-0.4875,-0.4991,-0.5684,-0.5785,-0.5819,-0.5852,-0.5966,-0.6088,-0.6191,-0.6572,-0.69,-0.713,-0.7358,-0.7561,-0.7724,-0.7576,-0.7432,-0.7314,-0.7015,-0.6911,-0.7022,-0.6572,-0.6516,-0.6774,-0.6644,-0.6599,0.0,-0.6436,-0.6307,-0.6177,-0.5894,-0.5654,0.0,0.0,0.0,0.0,0.0,-0.439,-0.4309,-0.4309,-0.437,-0.4471,-0.4471,-0.4471,-0.4446,-0.4272,-0.4147,-0.4069,-0.4069,-0.4069,-0.4069,-0.4069,-0.4147,-0.422,-0.4175,-0.426,-0.4344,-0.4344,-0.426,-0.4135,-0.4026,0.0,0.0,-0.2675,-0.2275,-0.2351,-0.3212,-0.2688,-0.2014,-0.1494,-0.0591,-0.0525,-0.1892,-0.2918,-0.2951,-0.1584,-0.0564,0.0,0.0,0.0,0.0,0.0,0.2467,0.0,0.0,0.0,0.3563,0.5165,0.0,0.0,0.0,0.7533,0.8529,0.0,0.0,0.0,0.0,0.0,0.0,0.0,0.0,0.0,0.0,0.0,0.0,0.0,0.0,0.0,0.0,-0.8687,-0.8239,-0.8542,-0.7511,-0.6947,-0.7552,-0.7183,-0.6847,-0.6749,-0.6759,-0.6834,-0.7002,-0.7171,-0.7379,-0.7627,0.0,0.0,0.0,0.0,-0.7885,-0.7812,-0.7402,-0.7187,-0.7162,-0.6778,-0.6616,-0.6633,-0.6616,-0.6599,-0.6599,-0.6558,-0.6558,-0.6535,-0.6242,-0.5992,-0.5752,-0.5281,-0.5108,-0.5069,-0.4829,-0.4591,-0.439,-0.439,0.0,0.0,-0.4804,-0.4818,-0.4818,-0.4818,-0.4657,-0.4465,-0.4403,-0.439,-0.439,-0.439,-0.4591,-0.4844,-0.5054,-0.5309,-0.5492,-0.5449,-0.5271,-0.504,-0.4785,-0.4531,-0.435,-0.435,-0.3737,-0.3253,-0.3271,-0.3756,-0.3461,-0.1608,-0.0743,-0.0351,-0.0505,0.0,0.0,-0.3317,-0.1517,-0.0282,-0.0019,0.0,0.0,0.0,0.0,0.1847,0.5779,0.5854,0.3926,0.0008,0.2689,0.3992,0.3997,0.4173,0.5952,0.0,0.0,0.0,0.0,0.0,0.0,0.0,0.0,0.0,0.0,0.0,0.0,0.0,0.0,0.0,-1.101,-1.0613,-1.0395,-1.0865,-1.0358,-0.9509,-0.8433,-0.8849,-0.896,-0.8253,-0.834,-0.8236,-0.7738,-0.7746,-0.7783,-0.7834,-0.7885,0.0,-0.7899,-0.7899,-0.7709,-0.7334,-0.7249,-0.7121,-0.6954,0.0,0.0,-0.6841,-0.6678,-0.6599,-0.6582,-0.6371,-0.6271,-0.6236,-0.5802,-0.5496,-0.5243,-0.5146,-0.5108,-0.5088,-0.5049,-0.4991,-0.4947,-0.4947,-0.4971,-0.5087,-0.5474,-0.5585,-0.5585,-0.5585,-0.5542,0.0,-0.5046,-0.4947,-0.4947,-0.4947,-0.5151,-0.531,-0.5141,-0.5305,-0.543,-0.5228,-0.5146,-0.5083,-0.503,-0.4809,-0.4631,-0.4631,-0.4321,-0.4134,-0.4353,-0.4677,-0.4743,-0.4333,-0.3008,-0.2512,-0.36,-0.3966,-0.3604,-0.2243,-0.2555,-0.2014,-0.0118,0.0,0.0,0.0,0.0,0.0401,0.1258,0.1277,0.0858,0.0,0.0584,0.0871,0.0872,0.0913,0.1302,0.0,0.0,0.0,0.0,0.0,0.0,0.0,0.0,0.0,0.0,0.0,-1.1316,0.0,0.0,-1.1449,-1.2235,-1.1793,-1.1419,-1.1578,-1.1656,-1.1247,-1.0002,-0.9588,-0.9229,-0.8795,-0.8542,-0.8252,-0.7922,-0.7899,-0.7899,-0.7899,-0.7899,-0.7899,-0.7899,-0.7899,-0.7783,-0.7553,-0.7447,-0.7286,-0.7054,-0.6845,-0.674,-0.674,-0.6651,-0.6599,-0.6599,-0.6453,-0.633,-0.6159,-0.5702,-0.5411,-0.5291,-0.5151,-0.5108,-0.5108,-0.5108,-0.5108,-0.5142,-0.5381,-0.5454,-0.5527,-0.5952,-0.6094,-0.6055,-0.5867,-0.595,-0.5957,-0.5292,-0.5268,-0.5405,-0.5166,-0.519,-0.5291,-0.5291,-0.5411,-0.5473,-0.533,-0.5291,-0.5253,-0.5132,-0.4991,-0.4849,-0.473,-0.4591,-0.4551,-0.4691,-0.4809,-0.4952,-0.5088,-0.4373,-0.411,-0.4775,-0.4755,-0.367,-0.1117,-0.142,-0.1252,-0.0073,0.0,0.0,0.0,0.0,0.0,0.0,0.0,0.0,0.0,0.0,0.0,0.0,0.0,0.0,0.0,0.0,0.0,0.0,0.0,0.0,0.0,0.0,-1.1385,-1.159,-1.1894,-1.2297,-1.2891,-1.269,-1.2589,-1.3082,-1.2537,-1.2031,-1.1971,-1.2167,-1.2074,-1.1356,-1.0125,-0.9234,-0.892,-0.8417,-0.8034,-0.7907,-0.7899,-0.7899,-0.7899,-0.7899,-0.7899,-0.7899,-0.7899,-0.7848,-0.7761,-0.7605,-0.737,-0.7082,-0.6921,-0.6757,-0.6599,-0.6599,-0.6599,-0.6599,-0.6541,-0.6377,-0.6112,-0.5684,-0.5473,-0.5402,-0.5284,-0.5234,-0.5234,-0.5234,-0.5181,-0.5185,-0.5723,-0.5872,-0.5886,-0.6372,-0.6538,-0.6479,-0.6143,-0.6274,-0.6377,-0.5575,-0.563,-0.582,-0.5448,-0.5396,-0.5462,-0.5633,-0.5651,-0.5649,-0.5673,-0.5534,-0.5379,-0.5259,-0.521,-0.5088,-0.4829,-0.4785,-0.4745,-0.4631,-0.4671,-0.477,-0.4991,-0.5069,-0.5108,-0.5108,-0.5108,-0.3721,-0.0291,-0.0107,-0.0125,-0.0007,0.0,0.0,0.0,0.0,0.0,0.0,0.0,0.0,0.0,0.0,0.0,0.0,0.0,0.0,-1.1024,-1.0739,0.0,-1.0286,-1.0565,-1.0847,0.0,0.0,-1.1749,-1.1763,-1.2179,-1.2552,-1.2633,-1.2795,-1.3029,-1.3312,-1.2896,-1.2685,-1.3134,-1.2144,-1.1417,-1.1543,-1.1189,-1.0396,-0.9026,-0.883,-0.8544,-0.7944,-0.7899,-0.7899,-0.7899,-0.7899,-0.7899,-0.7899,-0.7899,-0.7695,-0.7287,-0.7249,-0.7048,-0.6672,-0.6644,-0.6616,-0.6599,-0.6599,-0.6599,-0.6582,-0.6354,-0.6118,-0.59,-0.5619,-0.5349,-0.519,-0.5578,-0.573,-0.573,-0.573,-0.5464,-0.5224,-0.6055,-0.6094,-0.594,-0.6753,-0.7026,-0.7017,-0.6968,-0.6987,-0.6914,-0.6406,-0.6299,-0.6328,-0.6279,-0.644,-0.6557,-0.634,-0.6211,-0.6152,-0.628,-0.569,-0.5264,-0.5656,-0.5583,-0.5373,-0.5108,-0.5049,-0.4899,-0.4406,-0.4551,-0.471,-0.475,-0.4952,-0.5108,-0.5108,-0.5108,-0.3721,-0.0291,-0.049,-0.057,-0.0034,0.0,0.0,0.0,0.0,0.0,0.0,0.0,0.0,0.0,0.0,0.0,0.0,0.0,0.0,-1.1159,-1.1115,0.0,0.0,-1.1288,-1.1954,-1.1954,-1.188,-1.1897,-1.2195,-1.2131,-1.2361,-1.3512,-1.3447,-1.3411,0.0,-1.3484,-1.2937,-1.2573,-1.2024,-1.1291,-1.0278,-1.0118,-0.9777,-0.8982,-0.8552,-0.8199,-0.7922,-0.7899,-0.7899,-0.7899,-0.7899,-0.7899,-0.7899,-0.7899,-0.7753,-0.7432,-0.7432,-0.7205,-0.6774,-0.6774,-0.6712,-0.6599,-0.6599,-0.6517,-0.6354,-0.6123,-0.59,-0.5673,-0.5674,-0.5617,-0.5552,-0.5977,-0.6143,-0.6143,-0.6143,-0.603,-0.5944,-0.6592,-0.6699,-0.665,-0.7266,-0.7596,-0.7718,-0.7254,-0.7555,-0.7893,-0.7007,-0.7084,-0.7392,-0.7113,-0.7118,-0.7124,-0.6824,-0.6493,-0.6279,-0.638,-0.5711,-0.5312,-0.6011,-0.568,-0.5313,-0.5484,-0.5288,-0.4976,-0.4587,-0.4491,-0.4531,-0.4691,-0.479,-0.4927,-0.5088,-0.5108,-0.4386,-0.2645,-0.1522,-0.0939,-0.1044,-0.0389,0.0,0.0,0.0,0.0,0.0,0.0,0.0,0.0,0.0,0.0,0.0,0.0,0.0,-1.1349,-1.1438,0.0,-1.1206,-1.1939,-1.2853,-1.3017,-1.2695,-1.2509,-1.3095,-1.2645,-1.2514,-1.3733,-1.347,-1.3244,-1.3706,-1.3328,-1.2715,-1.1925,-1.163,-1.0922,-0.9344,-0.901,-0.8842,-0.8643,-0.8177,-0.7899,-0.7899,-0.7899,-0.7899,-0.7899,-0.7899,-0.7899,-0.7899,-0.7848,-0.7702,-0.7492,-0.7438,-0.7203,-0.6824,-0.6824,-0.674,-0.6599,-0.6599,-0.658,-0.6511,-0.6209,-0.6032,-0.5985,-0.5979,-0.5975,-0.5996,-0.6431,-0.6597,-0.6616,-0.6729,-0.6616,-0.6489,-0.707,-0.7197,-0.7168,-0.7564,-0.7894,-0.8034,-0.7447,-0.7829,-0.8322,-0.7451,-0.7684,-0.8146,-0.781,-0.7782,-0.7788,-0.7555,-0.7151,-0.685,-0.692,-0.6231,-0.5815,-0.6479,-0.6041,-0.5649,-0.5921,-0.5659,-0.5288,-0.4938,-0.4616,-0.4491,-0.4671,-0.471,-0.4809,-0.5069,-0.4971,-0.475,-0.4414,-0.2614,-0.1598,-0.1797,-0.0876,-0.0014,0.0695,0.0841,0.1067,0.1396,0.1186,0.0723,0.0,0.0,0.0,0.0,0.0,0.0,-1.1782,-1.1782,-1.1797,-1.1775,-1.2276,-1.2981,-1.3623,-1.3757,-1.3929,-1.4599,-1.4108,-1.3342,-1.2681,-1.2436,-1.226,-1.2017,-1.1959,-1.1859,-1.1639,-1.0825,-1.0023,-0.9374,-0.8498,-0.7944,0.0,-0.7914,-0.7899,-0.7899,-0.7899,-0.7899,-0.7899,-0.7899,-0.7899,-0.7899,-0.7709,-0.7485,-0.7218,-0.7012,-0.6824,-0.6616,-0.6616,-0.6599,-0.6599,-0.6599,-0.6869,-0.7336,-0.675,-0.6765,-0.7202,-0.6611,-0.6387,-0.6436,-0.6899,-0.708,-0.7129,-0.7511,-0.7117,-0.6533,-0.7379,-0.7413,-0.7168,-0.7564,-0.7695,-0.7725,-0.7681,-0.7715,-0.772,-0.7695,-0.7974,-0.8292,-0.8277,-0.8507,-0.8744,-0.8744,-0.8428,-0.8164,-0.8227,-0.7545,-0.6967,-0.7071,-0.6901,-0.6674,-0.6435,-0.6254,-0.5983,-0.5467,-0.4978,-0.4691,-0.4691,-0.471,-0.4809,-0.5069,-0.4631,-0.4394,-0.4568,-0.3639,-0.2672,-0.1845,-0.1393,-0.0065,0.2429,0.2962,0.3754,0.492,0.4177,0.2534,0.0,0.0,0.0,0.0,0.0,0.0,-1.184,-1.2112,-1.256,-1.3024,-1.363,-1.4202,-1.4401,-1.4124,-1.3665,-1.3176,-1.2997,-1.2785,-1.2257,-1.2133,-1.2072,-1.1983,-1.1827,-1.1351,-1.0349,-1.0578,-1.0278,-0.869,-0.8538,0.0,0.0,0.0,0.0,-0.7899,-0.7899,-0.7834,-0.7709,-0.7694,-0.762,-0.744,-0.7372,-0.7416,-0.7605,-0.7539,-0.7572,-0.7734,-0.7325,-0.6938,-0.6599,-0.6599,-0.6821,-0.7172,-0.6706,-0.6722,-0.7086,-0.6921,-0.687,-0.6909,-0.7344,-0.7329,-0.7153,-0.755,-0.7353,-0.6957,-0.7497,-0.7608,-0.7511,-0.7652,-0.8028,-0.8382,-0.8171,-0.8853,-0.9579,-0.9,-0.9337,-0.9797,-0.9452,-0.9443,-0.941,-0.8926,-0.8505,-0.8157,-0.7937,-0.7216,-0.6781,-0.7373,-0.6971,-0.6607,-0.6816,-0.6568,-0.6173,-0.5732,-0.5112,-0.471,-0.471,-0.4849,-0.501,-0.5088,-0.477,-0.4446,-0.4151,-0.3501,-0.2722,-0.1847,-0.1293,-0.0286,0.1335,0.3349,0.5091,0.6528,0.7603,0.7191,0.5237,0.1709,-0.0,0.0,0.0,0.0,-1.2133,-1.2658,-1.3308,-1.3989,-1.4483,-1.479,-1.479,-1.3907,-1.2892,-1.2193,-1.1944,-1.1766,-1.1507,-1.1331,-1.1347,-1.1761,-1.1187,-1.0532,-1.0032,-1.0403,-1.0231,-0.8896,-0.9052,-0.9083,0.0,0.0,0.0,-0.8267,-0.8484,-0.8509,-0.8253,-0.8237,-0.8106,-0.7814,-0.7744,-0.7827,-0.8076,-0.8024,-0.8091,-0.8298,-0.7907,-0.7544,-0.72,-0.7062,-0.7207,-0.7574,-0.7041,-0.7076,-0.7455,-0.7365,-0.7324,-0.7353,-0.7593,-0.7534,-0.7339,-0.7442,-0.731,-0.7148,-0.7569,-0.7798,-0.7959,-0.7959,-0.8267,-0.8635,-0.8581,-0.9063,-0.9574,-0.9289,-0.9526,-0.9855,-0.999,-1.0007,-0.9909,-0.958,-0.9217,-0.8759,-0.8235,-0.7572,-0.72,-0.7617,-0.7238,-0.6915,-0.7063,-0.6723,-0.624,-0.5659,-0.5305,-0.5035,-0.4867,-0.4908,-0.4952,-0.4952,-0.4631,-0.424,-0.3799,-0.3256,-0.262,-0.1847,-0.1021,0.0044,0.1455,0.3752,0.5845,0.7618,0.9329,0.911,0.6889,0.3509,0.1224,0.0008,0.0317,0.0646,-1.2718,-1.3361,-1.3979,-1.464,-1.479,-1.4725,-1.4663,-1.3166,-1.1782,-1.1715,-1.1079,-1.0567,0.0,0.0,-1.0184,-1.1286,-1.0156,-0.9506,-1.0567,-1.0301,-0.9972,0.0,0.0,0.0,0.0,0.0,0.0,-0.9043,0.0,-0.974,-0.9408,-0.9389,-0.9229,-0.8873,-0.8677,-0.8593,-0.8619,-0.8457,-0.8374,-0.8342,-0.8342,-0.8308,-0.8255,-0.7866,-0.7969,-0.8438,-0.7716,-0.7752,-0.8293,-0.79,-0.7744,-0.7763,-0.7763,-0.7749,-0.7666,-0.7273,-0.7116,-0.715,-0.7534,-0.7967,-0.8379,-0.8372,-0.8408,-0.8518,-0.8915,-0.8484,-0.801,-0.873,-0.8684,-0.8705,-0.9863,-1.0201,-1.0314,-1.0673,-1.0456,-0.995,-0.9086,-0.8603,-0.8215,-0.7847,-0.7744,-0.7602,-0.7209,-0.6777,-0.6197,-0.5362,-0.5536,-0.5578,-0.5146,-0.4849,-0.4691,-0.4691,-0.4211,-0.3779,-0.3494,-0.2992,-0.2418,-0.1791,-0.0599,0.0904,0.2754,0.4283,0.6144,0.8376,0.9529,0.8593,0.5557,0.5265,0.3471,0.034,0.1096,0.1888,-1.3959,-1.4158,-1.4162,-1.4683,-1.4534,-1.3987,-1.2819,-1.2171,-1.1528,-1.0578,-1.0877,-1.1323,0.0,0.0,0.0,-1.0776,-1.0191,0.0,-0.9406,-1.0507,0.0,-0.9671,0.0,-0.9981,-0.9227,-0.996,0.0,0.0,-1.002,-0.9692,-0.9206,-0.9166,-0.8948,-0.8472,-0.8414,-0.8556,-0.8972,-0.9332,-0.9284,-0.8905,-0.8905,-0.8537,-0.7844,-0.7743,-0.7859,-0.8102,-0.7618,-0.7923,-0.8729,-0.8358,-0.8394,-0.8682,-0.8682,-0.8279,-0.7684,-0.7657,-0.7349,-0.6976,-0.7077,-0.7484,-0.8001,-0.8197,-0.8728,-0.9317,-0.9425,-0.9756,-0.9972,-0.9486,-0.9774,-1.0156,-0.9779,-1.0159,-1.0533,-1.0037,-1.0104,-1.0042,-0.916,-0.8882,-0.8808,-0.8682,-0.8428,-0.8079,-0.7612,-0.6971,-0.6327,-0.5788,-0.5343,-0.4985,-0.482,-0.475,-0.4631,-0.443,-0.4109,-0.3713,-0.3235,-0.2674,-0.1994,-0.119,0.0286,0.1724,0.3038,0.5241,0.7611,1.0182,1.0965,1.1515,1.1868,0.6725,0.4448,0.4813,0.3728,0.3053,-1.4505,-1.4464,-1.4183,-1.4506,-1.3849,-1.2949,-1.2185,-1.1372,-1.069,-1.0364,-1.0887,0.0,0.0,0.0,0.0,0.0,0.0,0.0,-0.9504,-1.024,-1.0579,0.0,-1.0593,0.0,-1.0176,-1.0951,-1.1489,0.0,-1.0987,-1.0497,-1.0042,-1.0012,-0.9817,-0.9366,-0.9617,-0.9761,-0.9799,-1.0106,-0.9987,-0.9441,-0.9441,-0.9168,-0.8645,-0.8326,-0.8359,-0.8623,0.0,-0.8254,-0.892,-0.8745,-0.8794,-0.9004,-0.9004,-0.8685,-0.8238,-0.7838,-0.7416,-0.6962,-0.683,-0.7056,-0.7552,-0.8251,-0.8835,-0.9327,-0.9778,-0.9979,-1.0027,-0.9847,-0.9914,-1.0084,-1.0123,-1.0369,-1.0565,-1.027,-1.0268,-1.0152,-0.9417,-0.9136,-0.9004,-0.9004,-0.8493,-0.7941,-0.7527,-0.6928,-0.63,-0.5695,-0.5424,-0.5143,-0.4781,-0.4608,-0.443,-0.415,-0.399,-0.3629,-0.2987,-0.2475,-0.1827,-0.0953,0.0856,0.2377,0.3455,0.5952,0.8331,1.0543,1.1655,1.267,1.3619,0.9649,0.7467,0.7007,0.5969,0.4878,-1.478,-1.4571,-1.4149,-1.4105,-1.2936,-1.1848,-1.1956,-1.0678,-0.9748,-1.0557,0.0,-1.1225,-1.1318,-1.0784,-1.0488,-1.0994,0.0,-0.8648,-1.0073,-0.9846,-0.9882,-1.0821,-1.1351,-1.1647,-1.1676,-1.2169,-1.25,-1.25,-1.2054,-1.165,-1.1334,-1.13,-1.1149,-1.0834,-1.133,-1.1349,-1.0813,-1.0806,-1.0602,-1.0125,-1.006,-1.0007,-0.9927,-0.923,-0.9103,-0.9389,0.0,0.0,-0.9092,-0.9092,-0.9121,-0.9175,-0.9175,-0.9136,-0.8979,-0.8025,-0.7523,-0.7251,-0.6782,-0.682,-0.73,-0.8357,-0.8767,-0.9061,-0.993,-0.9685,-0.9229,-0.9909,-0.9572,-0.9229,-1.0425,-1.0545,-1.0453,-1.0812,-1.0683,-1.0329,-0.9822,-0.9429,-0.9175,-0.9175,-0.8512,-0.7785,-0.7332,-0.6926,-0.6364,-0.5418,-0.5592,-0.5597,-0.4879,-0.451,-0.4197,-0.3886,-0.3826,-0.35,-0.2719,-0.2313,-0.1771,-0.0981,0.1302,0.3023,0.3937,0.6515,0.8741,1.0411,1.1898,1.2774,1.3087,1.2751,1.1008,0.7976,0.7892,0.6937,-1.5658,-1.5172,-1.4193,-1.322,-1.2136,-1.1141,-1.0466,-0.9889,0.0,0.0,-1.0854,-1.1373,-1.1924,-1.1478,-1.0885,-1.0434,0.0,0.0,0.0,0.0,-1.0453,0.0,0.0,0.0,0.0,0.0,0.0,0.0,0.0,-1.2171,-1.1867,-1.1869,-1.1738,-1.1437,-1.1538,-1.1538,-1.1437,-1.1437,-1.1393,-1.1299,-1.087,-1.049,-1.0224,-0.9696,-0.933,-0.9087,-0.8959,0.0,-0.9485,-0.9485,-0.9736,-1.0059,-1.0059,-0.9844,-0.9377,-0.8447,-0.8255,-0.8319,-0.7047,-0.7114,-0.7791,-0.797,-0.866,-0.9428,-0.9579,-0.9578,-0.9541,-0.9682,-0.9275,-0.8977,-0.9636,-1.0012,-1.0256,-1.0404,-1.0664,-1.0754,-1.0281,-1.0112,-1.0059,-1.0059,-0.9634,-0.9006,-0.8154,-0.7774,-0.7128,-0.5794,-0.5532,-0.5314,-0.4848,-0.4545,-0.4175,-0.3638,-0.348,-0.3149,-0.2498,-0.1932,-0.1475,-0.1094,0.1909,0.385,0.4292,0.7097,0.9607,1.1741,1.2115,1.2873,1.405,1.3029,1.1461,0.9441,0.9634,0.8285,-1.5359,-1.4914,-1.3823,-1.2394,-1.1269,-1.0379,-0.9863,0.0,0.0,0.0,-1.1065,-1.1399,-1.19,0.0,0.0,0.0,0.0,0.0,0.0,0.0,0.0,0.0,0.0,0.0,0.0,0.0,0.0,0.0,0.0,-1.2657,-1.2225,-1.2193,-1.2278,-1.2435,-1.2441,-1.2303,-1.2015,-1.2015,-1.1734,-1.118,-1.0915,-1.0596,-1.0188,-0.9781,-0.9623,-0.9602,-0.9397,0.0,-0.9971,-0.9971,-1.0093,-1.0283,-1.0283,-0.9998,-0.9463,-0.8725,-0.8283,-0.7948,-0.7117,-0.6973,-0.7235,-0.7394,-0.7979,-0.8756,-0.9319,-0.9543,-0.962,-0.989,-0.9582,-0.9271,-0.9815,-0.9911,-0.9933,-1.0239,-1.0467,-1.0572,-1.0361,-1.0283,-1.0283,-1.0283,-0.9927,-0.9295,-0.8354,-0.7908,-0.7304,-0.612,-0.5731,-0.5474,-0.5291,-0.469,-0.4113,-0.3663,-0.3365,-0.3028,-0.2588,-0.1936,-0.1236,-0.0484,0.2283,0.4256,0.5053,0.7945,1.034,1.2068,1.2613,1.3358,1.435,1.3455,1.2045,1.0154,1.0179,0.8858,-1.4701,-1.4406,-1.3478,-1.1676,-1.0546,-0.9786,-0.9546,-0.9041,0.0,0.0,-1.1166,-1.1303,-1.163,0.0,0.0,0.0,0.0,0.0,0.0,0.0,0.0,0.0,0.0,0.0,0.0,0.0,0.0,0.0,0.0,0.0,-1.278,-1.2662,-1.2855,-1.3396,-1.3408,-1.3144,-1.2592,-1.2487,-1.1985,-1.1152,-1.1062,-1.0759,-1.0265,-1.0008,-0.999,-1.02,-0.997,0.0,0.0,-1.042,-1.042,-1.041,-1.0317,-0.9961,-0.9439,-0.8878,-0.8246,-0.7607,-0.7141,-0.6956,-0.6881,-0.6989,-0.7405,-0.8077,-0.9039,-0.9341,-0.9488,-1.0133,-0.9773,-0.9331,-0.9977,-0.9721,-0.9478,-1.0162,-1.0283,-1.0283,-1.0283,-1.0283,-1.0312,-1.0395,-1.0068,-0.9455,-0.8579,-0.8222,-0.7633,-0.647,-0.6175,-0.6023,-0.5721,-0.4924,-0.4227,-0.3802,-0.3331,-0.2909,-0.2547,-0.192,-0.1022,0.0215,0.2551,0.4475,0.5759,0.8574,1.0761,1.2204,1.2913,1.3749,1.4701,1.3952,1.2783,1.1233,1.0921,0.9709,-1.3934,-1.3993,-1.3382,-1.128,-1.0185,-0.9543,-0.9233,0.0,0.0,-1.0199,-1.0726,-1.1024,-1.131,-1.1298,0.0,0.0,0.0,0.0,0.0,0.0,0.0,0.0,0.0,0.0,0.0,0.0,0.0,0.0,0.0,0.0,-1.3898,-1.3478,-1.3465,-1.4009,-1.4016,-1.3745,-1.3129,-1.2689,-1.2442,-1.233,-1.1855,-1.1374,-1.0898,-1.082,-1.0582,-1.0321,-1.0625,0.0,0.0,-1.085,-1.085,-1.0811,-1.043,-0.9961,-0.9439,-0.8878,-0.8655,-0.8423,-0.7384,-0.7342,-0.7705,-0.7185,-0.7405,-0.7998,-0.8598,-0.8798,-0.9047,-1.0012,-0.9256,-0.8374,-0.9305,-0.9159,-0.9039,-1.004,-1.0283,-1.0283,-1.0283,-1.0283,-1.0395,-1.0776,-1.0513,-1.0018,-0.9304,-0.9325,-0.8783,-0.6856,-0.7041,-0.7005,-0.5848,-0.529,-0.475,-0.405,-0.3346,-0.2637,-0.1946,-0.1541,-0.0792,0.0491,0.2677,0.4618,0.6173,0.8506,1.0662,1.2606,1.2611,1.3615,1.5673,1.4524,1.3867,1.3659,1.2896,1.1673,-1.228,-1.2478,-1.2034,-1.0005,-0.9482,-0.9213,-0.8246,0.0,-0.875,-0.983,-1.034,-1.0678,-1.1001,-1.1071,-1.1017,0.0,0.0,0.0,0.0,0.0,0.0,0.0,0.0,0.0,0.0,0.0,0.0,0.0,0.0,0.0,-1.3513,-1.3288,-1.3208,-1.344,-1.3188,-1.2974,-1.2738,-1.2288,-1.2073,-1.202,-1.1781,-1.1562,-1.1377,-1.1348,-1.1248,-1.1101,-1.1268,0.0,0.0,-1.1299,-1.1299,-1.1284,-1.0681,-1.0038,-0.9286,-0.8705,-0.8108,-0.7603,-0.7147,-0.715,-0.7318,-0.7063,-0.715,-0.7447,-0.8028,-0.846,-0.8885,-0.963,-0.9361,-0.9085,-0.9797,-0.9839,-0.976,-1.0201,-1.0283,-1.0201,-0.9883,-1.0275,-1.0627,-1.0451,-1.0563,-1.046,-0.9902,-0.9645,-0.9157,-0.8015,-0.764,-0.7226,-0.657,-0.5822,-0.5044,-0.4203,-0.3325,-0.2549,-0.1977,-0.1324,-0.0501,0.0528,0.2684,0.4615,0.6227,0.9045,1.1232,1.2677,1.3563,1.454,1.5612,1.4401,1.3528,1.2951,1.1866,1.0334,-1.0623,-1.09,-1.0666,-0.8912,-0.8751,-0.8727,0.0,0.0,-0.8479,-0.9333,-0.9817,-1.0204,-1.0525,-1.0678,-1.0787,0.0,0.0,0.0,0.0,0.0,0.0,0.0,0.0,0.0,0.0,0.0,0.0,0.0,0.0,0.0,0.0,-1.2733,-1.2861,-1.3048,-1.2762,-1.2491,-1.2245,-1.1931,-1.174,-1.1682,-1.1794,-1.1772,-1.1606,-1.1507,-1.1404,-1.1295,0.0,0.0,0.0,-1.1422,-1.1466,-1.1412,-1.0835,-1.0131,-0.9308,-0.8559,-0.7816,-0.7141,-0.7051,-0.6979,-0.6979,-0.6979,-0.7108,-0.736,-0.7787,-0.8156,-0.8598,-0.9319,-0.9518,-0.9602,-0.9961,-1.004,-1.0151,-1.0395,-1.0345,-1.0134,-0.9885,-1.034,-1.0743,-1.0472,-1.0695,-1.0777,-1.0389,-0.9853,-0.9279,-0.8561,-0.7935,-0.7381,-0.694,-0.6266,-0.549,-0.4683,-0.3699,-0.2812,-0.2131,-0.132,-0.0467,0.0528,0.2684,0.4559,0.6063,0.9198,1.1546,1.2875,1.4296,1.5368,1.6054,1.4727,1.3723,1.3046,1.13,0.9343,-0.9184,-0.9522,-0.9604,-0.8239,-0.8069,-0.8045,0.0,0.0,-0.7845,-0.8628,-0.9122,-0.949,-0.9766,-1.0146,-1.0508,-1.0849,0.0,0.0,0.0,0.0,0.0,0.0,0.0,0.0,0.0,0.0,0.0,0.0,0.0,0.0,0.0,-1.1978,-1.2492,-1.32,-1.3172,-1.2754,-1.1833,-1.176,-1.1711,-1.1687,-1.2058,-1.1987,-1.1577,-1.1334,-1.0974,0.0,0.0,0.0,0.0,-1.0945,-1.1181,-1.1141,-1.0759,-1.0243,-0.96,-0.8646,-0.7955,-0.7463,-0.7124,-0.6979,-0.6979,-0.6979,-0.7405,-0.7874,-0.7916,-0.7916,-0.8115,-0.9199,-0.9518,-0.9518,-0.9523,-0.9523,-0.9738,-1.0678,-1.0391,-1.0031,-1.0472,-1.0602,-1.0718,-1.11,-1.1038,-1.0878,-1.0809,-1.0081,-0.9119,-0.8077,-0.7912,-0.7584,-0.6703,-0.6587,-0.6314,-0.5574,-0.4585,-0.3485,-0.2288,-0.1657,-0.0765,0.0528,0.2684,0.445,0.565,0.8787,1.1414,1.3351,1.4524,1.5855,1.7373,1.578,1.4944,1.4817,1.2089,0.9428,-0.778,-0.813,-0.8338,-0.7485,-0.7541,-0.7679,-0.7261,0.0,-0.8157,-0.8417,-0.8739,-0.9002,-0.9087,-0.9227,-0.9334,-0.9439,-0.9274,0.0,0.0,0.0,0.0,0.0,0.0,0.0,0.0,0.0,0.0,0.0,0.0,0.0,0.0,-1.2436,-1.2607,-1.2507,-1.2269,-1.2078,-1.2075,-1.1473,-1.1459,-1.2034,-1.214,-1.231,-1.2466,-1.1879,0.0,0.0,0.0,0.0,0.0,-1.1336,-1.1629,-1.1567,-1.0961,-1.0519,-1.0019,-0.858,-0.7786,-0.7466,-0.7124,-0.7154,-0.7412,-0.7892,-0.8109,-0.8246,-0.8707,-0.8911,-0.9159,-0.9843,-1.0044,-1.0044,-1.0044,-1.025,-1.0534,-1.0833,-1.0615,-1.0326,-1.0032,-1.0538,-1.0949,-1.069,-1.1279,-1.1761,-1.176,-1.131,-1.0709,-1.004,-0.9626,-0.9103,-0.835,-0.8106,-0.7564,-0.6333,-0.6018,-0.5094,-0.3124,-0.1781,-0.0861,-0.0445,0.1447,0.2815,0.3483,0.7173,1.0114,1.2061,1.4565,1.6362,1.74,1.6296,1.4485,1.2025,0.938,0.7521,0.0,-0.6888,-0.7031,-0.656,-0.6863,0.0,0.0,0.0,-0.8062,-0.8062,-0.8365,-0.8601,-0.8601,-0.8712,-0.8789,-0.8789,-0.8679,0.0,0.0,0.0,0.0,0.0,0.0,0.0,0.0,0.0,0.0,0.0,0.0,0.0,0.0,-1.249,-1.2436,-1.1992,-1.1748,-1.1738,-1.1973,-1.1431,-1.1514,-1.2185,-1.2397,-1.2622,-1.2876,-1.2143,0.0,0.0,0.0,0.0,0.0,-1.1312,-1.1512,-1.1015,-1.0864,-1.0531,-1.0008,-0.8581,-0.7976,-0.7812,-0.7468,-0.7485,-0.7776,-0.8446,-0.8935,-0.9374,-0.9983,-0.9865,-0.959,-1.0106,-1.0353,-1.0522,-1.0522,-1.0835,-1.1196,-1.1367,-1.1111,-1.0683,-1.021,-1.0802,-1.1257,-1.0679,-1.1449,-1.2185,-1.2185,-1.1721,-1.1142,-1.0675,-1.0144,-0.9578,-0.8954,-0.8774,-0.8335,-0.7422,-0.7074,-0.6348,-0.5097,-0.3028,-0.1809,-0.1788,0.0298,0.1581,0.1648,0.5286,0.873,1.1696,1.3471,1.5461,1.77,1.5846,1.3233,0.9959,0.7883,0.6517,0.0,-0.585,-0.5811,-0.5609,-0.6184,-0.6725,-0.6538,0.0,0.0,-0.7695,-0.7947,-0.8195,-0.8257,-0.8489,-0.8701,-0.8706,-0.8499,0.0,0.0,0.0,0.0,0.0,0.0,0.0,0.0,0.0,0.0,0.0,0.0,0.0,0.0,-1.2229,-1.207,-1.1665,-1.1621,-1.1577,-1.1558,-1.1577,-1.1782,-1.2088,-1.2541,-1.2779,-1.2779,-1.2016,0.0,0.0,0.0,0.0,0.0,-1.099,-1.099,-0.9913,-1.0564,-1.0415,-0.9673,-0.8724,-0.8424,-0.833,-0.8033,-0.7898,-0.8055,-0.8782,-0.9877,-1.0973,-1.147,-1.0728,-0.9721,-1.0085,-1.0573,-1.0957,-1.0957,-1.1279,-1.1758,-1.2129,-1.1682,-1.115,-1.0939,-1.1345,-1.158,-1.1011,-1.164,-1.2229,-1.2229,-1.1516,-1.0783,-1.0337,-0.9821,-0.9325,-0.8926,-0.8818,-0.8797,-0.876,-0.7788,-0.7276,-0.771,-0.5026,-0.3361,-0.3445,-0.0844,0.0495,0.0076,0.318,0.7147,1.1976,1.1923,1.3942,1.8185,1.4687,1.1572,0.8814,0.7538,0.6325,-0.5281,0.0,-0.5693,-0.6082,-0.6336,-0.6661,0.0,0.0,0.0,0.0,0.0,0.0,0.0,-0.7661,-0.7613,-0.7908,-0.8179,0.0,0.0,0.0,0.0,0.0,0.0,0.0,0.0,0.0,0.0,0.0,0.0,0.0,0.0,-1.2729,-1.2529,-1.2085,-1.1738,-1.1482,-1.1287,-1.1492,-1.136,-1.082,-1.1436,-1.1771,-1.1723,-1.1046,0.0,0.0,0.0,0.0,-1.0395,-1.1054,-1.1008,-1.0564,-1.0767,-1.0415,-0.9673,-0.8724,-0.8424,-0.833,-0.8033,-0.808,-0.8461,-0.9547,-1.0779,-1.1883,-1.2025,-1.1601,-1.1146,-1.1205,-1.1363,-1.1449,-1.1449,-1.1738,-1.21,-1.2161,-1.1682,-1.1293,-1.1532,-1.1434,-1.141,-1.1558,-1.222,-1.2729,-1.2729,-1.2541,-1.2229,-1.1796,-1.1352,-1.0899,-1.0436,-1.0111,-0.976,-0.9359,-0.8703,-0.7998,-0.7235,-0.489,-0.3841,-0.47,-0.331,-0.2124,-0.1366,0.0658,0.4573,1.0634,1.4999,1.7508,1.8194,1.4689,1.213,1.0419,0.8067,0.6532,-0.5108,-0.5108,-0.5248,-0.5721,-0.5897,-0.6095,-0.6724,0.0,0.0,0.0,0.0,0.0,0.0,0.0,0.0,0.0,-0.8096,0.0,0.0,0.0,0.0,0.0,0.0,0.0,0.0,0.0,0.0,0.0,0.0,0.0,0.0,-1.2564,-1.2124,-1.1571,-1.1043,-1.0934,-1.1383,-1.1073,-1.08,-1.0597,-1.0967,-1.1109,-1.1118,-1.1165,-1.1212,0.0,0.0,0.0,-1.0623,-1.1588,-1.1496,-1.0813,-1.1166,-1.0868,-1.0195,-0.967,-0.9505,-0.9479,-0.9297,-0.9452,-0.9837,-1.0666,-1.1495,-1.2307,-1.2769,-1.2787,-1.2509,-1.2009,-1.187,-1.195,-1.2197,-1.2407,-1.2523,-1.2619,-1.2141,-1.164,-1.1551,-1.159,-1.17,-1.1787,-1.2398,-1.2973,-1.3291,-1.306,-1.2821,-1.2634,-1.2009,-1.1444,-1.0962,-1.0542,-1.0205,-0.9878,-0.9159,-0.8545,-0.8191,-0.6274,-0.5264,-0.5641,-0.5017,-0.4367,-0.3805,-0.1874,0.2682,1.0141,1.6025,1.5958,0.9848,1.0392,0.9935,0.8602,0.7486,0.6613,-0.5088,-0.4954,-0.4881,-0.5152,-0.5315,-0.5486,-0.5861,0.0,0.0,0.0,0.0,0.0,0.0,0.0,0.0,0.0,0.0,0.0,0.0,0.0,0.0,0.0,0.0,0.0,0.0,0.0,0.0,0.0,0.0,0.0,0.0,-1.1943,-1.1272,-1.0588,-0.9977,-1.0126,-1.1142,-1.0456,-1.0231,-1.0521,-1.0654,-1.0698,-1.0711,-1.1531,-1.1486,0.0,0.0,0.0,-1.0513,-1.2077,-1.1951,-1.0939,-1.1539,-1.1412,-1.0813,-1.0813,-1.0813,-1.0813,-1.0813,-1.1011,-1.1329,-1.1706,-1.2008,-1.2481,-1.3523,-1.3821,-1.3648,-1.2827,-1.25,-1.2541,-1.297,-1.304,-1.3037,-1.297,-1.2655,-1.2166,-1.1481,-1.1868,-1.2236,-1.2001,-1.2545,-1.3195,-1.3732,-1.3286,-1.2979,-1.3198,-1.2306,-1.1469,-1.106,-1.0586,-1.0283,-1.0283,-0.9399,-0.8999,-0.9478,-0.8191,-0.7123,-0.652,-0.6417,-0.6246,-0.5941,-0.2907,0.2385,1.0153,1.5139,1.1836,-0.0,0.4514,0.607,0.4942,0.6355,0.665,-0.503,-0.519,-0.5297,-0.5356,-0.5375,-0.5515,-0.5961,0.0,0.0,0.0,0.0,0.0,0.0,0.0,0.0,0.0,0.0,0.0,0.0,0.0,0.0,0.0,0.0,0.0,0.0,0.0,0.0,0.0,0.0,0.0,0.0,-1.0662,-1.0267,-0.9576,-0.942,-0.9274,-0.9133,-0.98,-0.9833,-0.9377,-0.9933,-1.0193,-1.0193,-1.0346,-1.0793,0.0,0.0,-1.1286,-1.143,-1.1684,-1.1544,-1.1164,-1.1639,-1.1412,-1.0813,-1.0813,-1.0813,-1.0813,-1.0813,-1.1178,-1.1733,-1.1792,-1.2248,-1.2928,-1.3621,-1.3821,-1.3852,-1.4201,-1.3954,-1.3444,-1.3052,-1.3278,-1.3434,-1.2546,-1.265,-1.2771,-1.2166,-1.2513,-1.2909,-1.2773,-1.3228,-1.3684,-1.3768,-1.3286,-1.3084,-1.3585,-1.2503,-1.1577,-1.1513,-1.0807,-1.0283,-1.0283,-0.976,-0.9399,-0.9478,-0.9266,-0.8703,-0.7701,-0.7993,-0.7325,-0.5326,0.1313,0.6619,1.0231,1.1181,0.7792,-0.0,0.0798,0.1103,0.0968,0.511,0.695,-0.471,-0.4947,-0.5172,-0.4879,-0.5101,-0.5448,-0.5585,0.0,0.0,0.0,0.0,0.0,0.0,0.0,0.0,0.0,0.0,0.0,0.0,0.0,0.0,0.0,0.0,0.0,0.0,0.0,0.0,0.0,0.0,0.0,0.0,0.0,-0.9524,-0.931,-0.8952,-0.8745,-0.8683,-0.9411,-0.9334,-0.8469,-0.8756,-0.9044,-0.9379,-0.9877,-1.0382,-1.094,0.0,-1.1465,-1.1265,-1.2023,-1.2056,-1.1776,-1.2238,-1.2201,-1.1945,-1.1945,-1.1945,-1.1945,-1.1945,-1.1951,-1.2048,-1.2322,-1.2676,-1.3186,-1.4027,-1.4503,-1.4818,-1.5096,-1.4503,-1.3915,-1.4283,-1.3863,-1.3349,-1.3244,-1.2757,-1.2311,-1.2211,-1.2507,-1.2884,-1.3329,-1.3873,-1.4376,-1.4727,-1.4009,-1.36,-1.4195,-1.2768,-1.1606,-1.1606,-1.0851,-1.0283,-1.0283,-0.9558,-0.9199,-0.9478,-0.9239,-0.9119,-0.9199,-0.8852,-0.8246,-0.7281,-0.2509,0.3335,1.0167,1.0298,0.6904,-0.0,-0.0,-0.0,0.0044,0.2193,0.3552,-0.4571,-0.4858,-0.5134,-0.4532,-0.4835,-0.5246,-0.5215,0.0,0.0,0.0,0.0,0.0,0.0,0.0,0.0,0.0,0.0,0.0,0.0,0.0,0.0,0.0,0.0,0.0,0.0,0.0,0.0,0.0,0.0,0.0,0.0,0.0,-0.9015,-0.9135,-0.8665,-0.8461,-0.8551,-0.9036,-0.8958,-0.8275,-0.8398,-0.8679,-0.9088,-0.9826,-1.0214,-1.0337,-1.1343,-1.1387,-1.085,-1.1958,-1.228,-1.2114,-1.2559,-1.2793,-1.2881,-1.2881,-1.2881,-1.2881,-1.2881,-1.2661,-1.2436,-1.2773,-1.3049,-1.3416,-1.4129,-1.4834,-1.5385,-1.5298,-1.4642,-1.4228,-1.5151,-1.4323,-1.3283,-1.3662,-1.2851,-1.2042,-1.2102,-1.2498,-1.3027,-1.3526,-1.4345,-1.5011,-1.532,-1.4503,-1.4003,-1.4612,-1.2947,-1.1606,-1.1606,-1.0851,-1.0283,-1.0283,-0.9562,-0.9239,-0.9637,-0.9395,-0.964,-1.0567,-0.9718,-0.9273,-0.9413,-0.685,-0.2067,0.51,0.858,0.6904,-0.0,-0.0,-0.0,-0.0,-0.0,-0.0134,-0.4908,-0.5384,-0.5571,-0.4845,-0.4752,0.0,-0.5136,-0.5918,0.0,-0.6829,0.0,0.0,0.0,0.0,0.0,0.0,0.0,0.0,0.0,0.0,0.0,0.0,0.0,0.0,0.0,0.0,0.0,0.0,0.0,0.0,0.0,0.0,0.0,-0.877,-0.8716,-0.8463,-0.8061,-0.851,-0.8963,-0.9399,-0.9883,-1.0162,-1.0205,-1.023,-1.0273,-1.0327,-1.0381,-1.0386,-1.0361,-1.085,-1.1274,-1.1699,-1.2104,-1.2524,-1.2881,-1.2881,-1.2881,-1.2881,-1.2881,-1.2861,-1.2842,-1.2871,-1.3314,-1.3694,-1.3334,-1.3965,-1.4755,-1.4314,-1.4458,-1.4754,-1.4767,-1.4289,-1.3635,-1.2808,-1.2851,-1.2822,-1.1931,-1.2933,-1.3817,-1.3173,-1.4412,-1.5365,-1.4835,-1.4236,-1.4003,-1.4612,-1.2947,-1.1606,-1.1606,-1.0851,-1.0283,-1.0283,-1.0239,-1.0201,-1.0239,-1.0535,-1.0994,-1.154,-1.1015,-1.0578,-1.0394,-0.7822,-0.7451,-0.9701,0.3461,0.6909,-0.0,-0.0,-0.0,-0.0,-0.0,-0.2289,-0.4631,-0.5191,-0.5629,-0.4946,-0.5324,0.0,0.0,-0.6378,-0.6958,-0.7063,0.0,0.0,0.0,0.0,0.0,0.0,0.0,0.0,0.0,0.0,0.0,0.0,0.0,0.0,0.0,0.0,0.0,0.0,0.0,0.0,0.0,0.0,0.0,-0.8763,-0.8533,-0.831,-0.8127,-0.8635,-0.8821,-0.8716,-0.9089,-0.9308,-0.9384,-0.9683,-1.0,-1.0298,-1.0557,-1.0669,-1.0728,-1.1436,-1.1826,-1.2021,-1.2466,-1.2734,-1.2847,-1.2578,-1.2476,-1.2476,-1.2476,-1.2476,-1.252,-1.2793,-1.3329,-1.3789,-1.361,-1.4122,-1.4747,-1.454,-1.4135,-1.4044,-1.5078,-1.4902,-1.4281,-1.366,-1.3148,-1.2698,-1.2116,-1.2586,-1.3179,-1.3452,-1.4336,-1.5101,-1.5231,-1.4457,-1.3907,-1.4261,-1.2769,-1.1503,-1.1186,-1.0645,-1.0283,-1.0283,-1.0577,-1.049,-0.9839,-1.0518,-1.1171,-1.167,-1.086,-1.1119,-1.2847,-1.2354,-1.0631,-0.7623,-0.694,-0.444,-0.0,-0.0,-0.0,-0.009,-0.3013,-0.4513,-0.4631,-0.517,-0.5667,-0.5128,0.0,0.0,-0.6869,-0.7416,-0.7956,-0.8042,0.0,0.0,0.0,0.0,0.0,0.0,0.0,0.0,0.0,0.0,0.0,0.0,0.0,0.0,0.0,0.0,0.0,0.0,0.0,0.0,0.0,0.0,0.0,0.0,-0.8587,-0.8381,-0.8257,-0.8766,-0.8661,-0.804,-0.867,-0.8991,-0.9078,-0.9397,-0.9795,-1.0303,-1.0586,-1.0708,-1.0767,-1.1509,-1.1932,-1.2214,-1.2559,-1.2759,-1.2827,-1.2388,-1.2273,-1.2436,-1.2436,-1.2344,-1.2229,-1.2578,-1.2978,-1.3317,-1.2984,-1.3527,-1.4176,-1.3682,-1.3378,-1.3504,-1.4856,-1.4628,-1.4016,-1.384,-1.3154,-1.2487,-1.2285,-1.2482,-1.2841,-1.3432,-1.4179,-1.4835,-1.5231,-1.433,-1.3726,-1.4239,-1.2748,-1.1537,-1.1352,-1.0859,-1.043,-1.0293,-1.0853,-1.083,-0.9848,-1.0905,-1.1719,-1.1867,-1.1526,-1.2246,-1.4299,-1.5304,-1.3407,-0.8302,-1.0422,-0.8444,-0.2085,-0.2883,-0.2915,-0.229,-0.4759,-0.542,-0.503,-0.5449,-0.5737,0.0,0.0,0.0,-0.8372,-0.918,-0.9787,-1.0067,0.0,0.0,0.0,0.0,0.0,0.0,0.0,0.0,0.0,0.0,0.0,0.0,0.0,0.0,0.0,0.0,0.0,0.0,0.0,0.0,0.0,0.0,0.0,0.0,-0.8994,-0.8794,-0.8411,-0.8784,-0.8569,-0.7715,-0.898,-0.9583,-0.9588,-0.9597,-0.9873,-1.0283,-1.0283,-1.0283,-1.0322,-1.0742,-1.1431,-1.2175,-1.2175,-1.2485,-1.2817,-1.2378,-1.249,-1.2861,-1.2861,-1.2578,-1.2171,-1.2175,-1.2312,-1.2267,-1.1248,-1.198,-1.289,-1.1435,-1.2072,-1.3331,-1.3926,-1.3235,-1.253,-1.3072,-1.2815,-1.2394,-1.2341,-1.2712,-1.3076,-1.3002,-1.3916,-1.4703,-1.4703,-1.3795,-1.3459,-1.4523,-1.2942,-1.176,-1.2208,-1.1451,-1.0742,-1.0332,-1.1134,-1.134,-1.0405,-1.1965,-1.2791,-1.2329,-1.3303,-1.4065,-1.4385,-1.5887,-1.5987,-1.4455,-0.5031,-0.2246,-0.6491,-0.9018,-0.9132,-0.6982,-0.4619,-0.4795,-0.5069,-0.5449,0.0,0.0,0.0,0.0,0.0,-0.9285,0.0,0.0,0.0,0.0,0.0,0.0,0.0,0.0,0.0,0.0,0.0,0.0,0.0,0.0,0.0,0.0,0.0,0.0,0.0,0.0,0.0,0.0,0.0,0.0,0.0,0.0,-0.8267,-0.8016,-0.7925,-0.8012,-0.7948,-0.7705,-0.8423,-0.8901,-0.9209,-0.9814,-1.0161,-1.0283,-1.0283,-1.0449,-1.0757,-1.1191,-1.1519,-1.1763,-1.1763,-1.1881,-1.1944,-1.146,-1.1382,-1.1494,-1.1494,-1.1411,-1.1353,-1.166,-1.1841,-1.1832,-1.1487,-1.1736,-1.2044,-1.1571,-1.1515,-1.1765,-1.2298,-1.2197,-1.2284,-1.3524,-1.3693,-1.3323,-1.2432,-1.2342,-1.2701,-1.3413,-1.3507,-1.3836,-1.5096,-1.403,-1.3145,-1.3714,-1.2529,-1.1428,-1.097,-1.0661,-1.0532,-1.0703,-1.1673,-1.2031,-1.1288,-1.2404,-1.277,-1.1858,-1.2866,-1.4096,-1.5476,-1.6776,-1.4876,-0.933,-1.0421,-0.7256,0.0435,-0.433,-0.757,-0.9261,-0.7553,-0.761,-0.5108,-0.5571,0.0,0.0,0.0,0.0,0.0,0.0,0.0,0.0,0.0,0.0,0.0,0.0,0.0,0.0,0.0,0.0,0.0,0.0,0.0,0.0,0.0,0.0,0.0,0.0,0.0,0.0,0.0,0.0,0.0,0.0,0.0,0.0,-0.7836,-0.77,-0.77,-0.77,-0.77,-0.7705,-0.8335,-0.876,-0.9028,-0.9712,-1.0117,-1.0283,-1.0283,-1.0522,-1.0928,-1.1196,-1.1449,-1.1587,-1.1367,-1.1449,-1.1547,-1.1069,-1.102,-1.1172,-1.1172,-1.106,-1.0952,-1.1216,-1.1229,-1.1096,-1.1096,-1.1229,-1.1333,-1.115,-1.103,-1.1081,-1.1598,-1.1776,-1.2058,-1.3126,-1.355,-1.3445,-1.2631,-1.249,-1.2743,-1.3627,-1.3182,-1.3118,-1.4719,-1.3377,-1.2323,-1.2964,-1.2399,-1.1554,-1.0655,-1.0875,-1.105,-1.0898,-1.2031,-1.2462,-1.1683,-1.2729,-1.3151,-1.2543,-1.3529,-1.492,-1.6722,-1.7764,-1.5809,-1.0475,-1.4334,-1.1887,-0.2789,-0.6012,-0.8513,-1.0247,-0.9154,-0.9064,-0.5108,0.0,0.0,0.0,0.0,0.0,0.0,0.0,0.0,0.0,0.0,0.0,0.0,0.0,0.0,0.0,0.0,0.0,0.0,0.0,0.0,0.0,0.0,0.0,0.0,0.0,0.0,0.0,0.0,0.0,0.0,0.0,0.0,-0.7603,-0.7632,-0.7637,-0.7637,-0.7671,-0.77,0.0,-0.856,-0.8965,-0.9023,-0.9442,-0.9907,-1.0283,-1.0283,-1.0498,-1.0854,-1.0854,-1.1084,-1.1444,-1.1006,-1.1094,-1.1439,-1.1001,-1.1103,-1.1489,-1.1489,-1.1182,-1.0854,-1.0854,-1.0596,-1.0278,-1.0239,-1.0512,-1.0776,-1.0346,-1.0517,-1.0977,-1.157,-1.1709,-1.1815,-1.2193,-1.2621,-1.2915,-1.2815,-1.2759,-1.2936,-1.3559,-1.2827,-1.2559,-1.387,-1.2368,-1.1334,-1.2278,-1.2331,-1.1927,-1.104,-1.1735,-1.1999,-1.1185,-1.2361,-1.279,-1.1876,-1.3068,-1.3928,-1.3974,-1.4851,-1.6187,-1.7935,-1.8772,-1.8078,-1.5643,-1.688,-1.578,-1.2232,-1.1745,-1.1132,-1.0422,-0.9874,-0.9664,0.0,-0.5513,0.0,0.0,0.0,0.0,0.0,0.0,0.0,0.0,0.0,0.0,0.0,0.0,0.0,0.0,0.0,0.0,0.0,0.0,0.0,0.0,0.0,0.0,0.0,0.0,0.0,0.0,0.0,0.0,0.0,0.0,0.0,-0.6764,-0.7063,-0.7246,-0.7246,-0.7534,-0.77,0.0,-0.8262,-0.8687,-0.9028,-0.9795,-1.019,-1.0283,-1.0283,-1.0332,-1.042,-1.042,-1.0474,-1.0592,-1.0454,-1.0474,-1.0587,-1.0454,-1.0478,-1.0596,-1.0596,-1.0493,-1.042,-1.042,-1.0356,-1.0201,-0.9799,-1.0023,-1.0317,-0.9823,-1.0028,-1.0533,-1.0978,-1.1123,-1.1352,-1.2029,-1.2415,-1.2451,-1.197,-1.1886,-1.2059,-1.2649,-1.2189,-1.2249,-1.3825,-1.2938,-1.199,-1.19,-1.1894,-1.1649,-1.1,-1.1824,-1.2493,-1.2619,-1.3363,-1.3734,-1.3366,-1.403,-1.4482,-1.4429,-1.5477,-1.6675,-1.7949,-1.9361,-1.8901,-1.6344,-1.7851,-1.6602,-1.2429,-1.2747,-1.2617,-1.2079,-1.1046,-1.1191,0.0,0.0,0.0,0.0,0.0,0.0,0.0,0.0,0.0,0.0,0.0,0.0,0.0,0.0,0.0,0.0,0.0,0.0,0.0,0.0,0.0,0.0,0.0,0.0,0.0,0.0,0.0,0.0,0.0,0.0,0.0,-0.6605,-0.6484,-0.6484,-0.6695,-0.6811,-0.6811,-0.7008,-0.7225,-0.7412,-0.788,-0.8431,-0.9033,-0.9893,-1.0283,-1.0283,-1.0283,-1.0283,-1.0283,-1.0283,-1.0283,-1.0283,-1.0283,-1.0283,-1.0283,-1.0283,-1.0283,-1.0312,-1.0513,-1.0586,-1.0586,-1.0586,-1.0586,-1.0462,-0.9741,-0.9878,-1.0205,-0.9637,-0.9883,-1.0332,-1.0552,-1.0636,-1.0787,-1.1175,-1.1724,-1.2069,-1.192,-1.1758,-1.177,-1.2356,-1.1847,-1.1736,-1.3145,-1.2872,-1.219,-1.1488,-1.2227,-1.2415,-1.1109,-1.2235,-1.3109,-1.3157,-1.3905,-1.4457,-1.4579,-1.4681,-1.5145,-1.6162,-1.5961,-1.6723,-1.8738,-2.0235,-1.9714,-1.6943,-1.8282,-1.7338,-1.3997,-1.3763,-1.3815,-1.3988,-1.2424,-1.2026,0.0,0.0,0.0,0.0,0.0,0.0,0.0,0.0,0.0,0.0,0.0,0.0,0.0,0.0,0.0,0.0,0.0,0.0,0.0,0.0,0.0,0.0,0.0,0.0,0.0,0.0,0.0,0.0,0.0,0.0,-0.6393,-0.6336,-0.6305,-0.6305,-0.6366,-0.6393,-0.6393,-0.6457,-0.6695,-0.7098,-0.7652,-0.8257,-0.8926,-0.9707,-1.0103,-1.0171,-1.0171,-1.0215,-1.0283,-1.0283,-1.0283,-1.0283,-1.0283,-1.0283,-1.0288,-1.0244,-1.0264,-1.0352,-1.0722,-1.084,-1.0811,-1.0889,-1.0859,-1.0611,-0.9778,-0.993,-1.0293,-0.966,-0.993,-1.0391,-1.0391,-1.0337,-1.0356,-1.0508,-1.1009,-1.1527,-1.1822,-1.1602,-1.1504,-1.2001,-1.1532,-1.1352,-1.2302,-1.2612,-1.2373,-1.1314,-1.2907,-1.3547,-1.1529,-1.2791,-1.3755,-1.3471,-1.4138,-1.4767,-1.5149,-1.4892,-1.549,-1.7316,-1.6196,-1.6679,-1.9317,-2.1001,-2.0607,-1.789,-1.8841,-1.8203,-1.5868,-1.4751,-1.4644,-1.5413,-1.346,-1.2489,0.0,0.0,0.0,0.0,0.0,0.0,0.0,0.0,0.0,0.0,0.0,0.0,0.0,0.0,0.0,0.0,0.0,0.0,0.0,0.0,0.0,0.0,0.0,0.0,0.0,0.0,0.0,0.0,0.0,0.0,-0.5975,-0.5644,-0.5463,-0.5463,-0.5793,-0.5975,-0.5975,-0.6336,-0.6708,-0.7125,-0.7916,-0.8376,-0.8481,-0.8955,-0.9375,-0.9685,-0.9685,-0.9932,-1.0283,-1.0283,-1.0283,-1.0283,-1.0283,-1.0283,-1.0283,-1.0022,-1.0098,-1.0317,-1.0542,-1.0517,-1.0425,-1.0791,-1.0664,-1.0273,-0.9695,-1.0127,-1.0625,-0.9733,-1.0136,-1.0825,-1.0825,-1.0557,-1.0508,-1.1253,-1.0946,-1.0513,-1.0557,-1.0493,-1.0494,-1.0567,-1.116,-1.1721,-1.1875,-1.2643,-1.2872,-1.1847,-1.3505,-1.4249,-1.2535,-1.3351,-1.4188,-1.4479,-1.43,-1.4155,-1.4054,-1.4416,-1.4795,-1.5053,-1.5752,-1.6803,-1.8166,-2.1028,-2.1747,-2.0022,-2.0526,-1.9546,-1.697,-1.5444,-1.4773,-1.4856,-1.357,-1.2875,-0.4587,0.0,0.0,0.0,0.0,0.0,0.0,0.0,0.0,0.0,0.0,0.0,0.0,0.0,0.0,0.0,0.0,0.0,0.0,0.0,0.0,0.0,0.0,0.0,0.0,0.0,0.0,0.0,0.0,-0.5554,-0.5554,-0.54,-0.5312,-0.5312,-0.546,-0.5554,-0.5554,-0.5734,-0.6129,-0.6777,-0.7652,-0.8055,-0.8027,-0.8457,-0.8887,-0.9262,-0.9495,-0.9699,-0.9937,-1.0181,-1.0283,-1.0283,-1.0283,-1.0123,-0.9862,-1.008,-0.9993,-0.9928,-1.0554,-1.0693,-1.0664,-1.0845,-1.0781,-1.0554,-1.0013,-1.0188,-1.0535,-1.0275,-1.0408,-1.0615,-1.0845,-1.0596,-1.0415,-1.0793,-1.0596,-1.0283,-1.0283,-1.0283,-1.0283,-1.0283,-1.1105,-1.1811,-1.1811,-1.3136,-1.3751,-1.2405,-1.3789,-1.4387,-1.2703,-1.3461,-1.4261,-1.4743,-1.4583,-1.4642,-1.5217,-1.428,-1.4196,-1.5477,-1.5678,-1.6437,-1.7956,-2.102,-2.2379,-2.1702,-2.1302,-2.0401,-1.8913,-1.6451,-1.5563,-1.6052,-1.401,-1.2721,0.0,0.0,0.0,0.0,0.0,0.0,0.0,0.0,0.0,0.0,0.0,0.0,0.0,0.0,0.0,0.0,0.0,0.0,0.0,0.0,0.0,0.0,0.0,0.0,0.0,0.0,0.0,0.0,0.0,-0.5312,-0.5312,-0.5312,-0.5312,-0.5312,-0.5312,-0.5312,-0.5312,-0.5404,-0.5797,-0.6518,-0.7249,-0.7661,-0.771,-0.8066,-0.8384,-0.8701,-0.9131,-0.9461,-0.9777,-1.0029,-1.0181,-1.0283,-1.0283,-1.004,-0.9744,-1.0198,-1.0101,-0.9808,-1.0667,-1.089,-1.0767,-1.0874,-1.0753,-1.0498,-1.0247,-1.0263,-1.0464,-1.076,-1.0713,-1.0654,-1.0859,-1.0596,-1.0283,-1.0283,-1.0283,-1.0283,-1.0283,-1.0283,-1.0283,-1.0283,-1.0992,-1.1621,-1.1774,-1.3214,-1.3861,-1.2531,-1.3709,-1.4202,-1.2701,-1.3432,-1.4249,-1.4581,-1.4592,-1.4823,-1.5452,-1.3986,-1.3731,-1.5357,-1.5236,-1.5868,-1.7518,-2.0353,-2.2127,-2.2694,-2.1784,-2.1039,-2.0492,-1.7593,-1.6236,-1.6278,-1.413,-1.2439,0.0,0.0,0.0,0.0,0.0,0.0,0.0,0.0,0.0,0.0,0.0,0.0,0.0,0.0,0.0,0.0,0.0,0.0,0.0,0.0,0.0,0.0,0.0,0.0,0.0,0.0,0.0,0.0,0.0,-0.5312,-0.5312,-0.5312,-0.5312,-0.5312,-0.5312,-0.5312,-0.5312,-0.5672,-0.6095,-0.6518,-0.6927,-0.7333,-0.77,-0.772,-0.7744,-0.7793,-0.8252,-0.9165,-1.022,-0.9829,-0.9907,-1.0283,-1.0283,-1.0283,-1.0297,-1.0494,-1.0466,-1.0335,-1.0962,-1.0797,-1.0381,-1.0781,-1.0307,-0.9669,-1.0151,-1.0529,-1.0788,-1.0873,-1.1211,-1.1444,-1.1011,-1.0596,-1.0283,-1.0283,-1.0283,-1.0283,-1.0283,-1.0283,-1.0283,-1.0283,-1.0687,-1.1201,-1.1695,-1.2313,-1.2521,-1.1932,-1.3153,-1.3749,-1.2625,-1.3442,-1.4056,-1.3879,-1.4038,-1.386,-1.3165,-1.3505,-1.3547,-1.3104,-1.4073,-1.5168,-1.6332,-1.8496,-2.0628,-2.2667,-2.2147,-2.1597,-2.1035,-1.8854,-1.6576,-1.4226,-1.3437,-1.2102,0.0,0.0,0.0,0.0,0.0,0.0,0.0,0.0,0.0,0.0,0.0,0.0,0.0,0.0,0.0,0.0,0.0,0.0,0.0,0.0,0.0,0.0,0.0,0.0,0.0,0.0,0.0,0.0,0.0,0.0,-0.5312,-0.5312,-0.5312,-0.5312,-0.5312,-0.5312,-0.5312,-0.5432,-0.5703,-0.6125,-0.6514,-0.694,-0.731,-0.7569,-0.7851,-0.8135,-0.8013,-0.8379,-0.9121,-0.9437,-0.969,-0.9893,-1.0176,-1.0083,-0.9832,-1.0252,-1.0136,-0.986,-1.0427,-1.0498,-1.0303,-1.0459,-1.004,-0.9648,-1.0435,-1.0332,-1.0146,-1.1084,-1.0826,-1.0261,-1.0368,-1.0102,-0.9878,-1.0201,-1.0283,-1.0283,-1.0283,-1.0283,-1.0283,-1.0283,-1.0687,-1.1051,-1.1239,-1.1729,-1.2101,-1.2179,-1.2144,-1.2292,-1.2755,-1.2965,-1.3266,-1.3805,-1.3906,-1.3636,-1.289,-1.2253,-1.1963,-1.2183,-1.2872,-1.418,-1.6198,-1.8347,-2.022,-2.1723,-2.2818,-2.2633,-2.1105,-1.8956,-1.6736,-1.448,-1.3527,-1.2429,0.0,0.0,0.0,0.0,0.0,0.0,0.0,0.0,0.0,0.0,0.0,0.0,0.0,0.0,0.0,0.0,0.0,0.0,0.0,0.0,0.0,0.0,0.0,0.0,0.0,0.0,0.0,0.0,0.0,0.0,-0.5312,-0.5312,-0.5312,-0.5312,-0.5312,-0.5312,-0.5312,-0.5312,-0.5495,-0.5917,-0.6183,-0.6575,-0.7114,-0.7373,-0.7752,-0.8145,-0.7822,-0.8057,-0.8633,-0.9194,-0.9471,-0.9636,-1.0112,-1.0079,-0.9813,-1.0316,-1.0203,-0.9823,-1.0321,-1.04,-1.0278,-1.0083,-0.9681,-0.9368,-1.0202,-0.998,-0.9657,-1.0785,-1.0419,-0.9731,-0.982,-0.969,-0.9602,-0.9961,-1.004,-1.004,-1.004,-1.0162,-1.0283,-1.0283,-1.0418,-1.0557,-1.0695,-1.0896,-1.1163,-1.1605,-1.1416,-1.1475,-1.2088,-1.2643,-1.2864,-1.2528,-1.3066,-1.3014,-1.1849,-1.1195,-1.1065,-1.1765,-1.2111,-1.332,-1.5639,-1.7469,-1.9111,-2.0585,-2.2655,-2.2932,-2.1373,-2.0128,-1.7835,-1.4625,-1.3793,-1.2769,0.0,0.0,0.0,0.0,0.0,0.0,0.0,0.0,0.0,0.0,0.0,0.0,0.0,0.0,0.0,0.0,0.0,0.0,0.0,0.0,0.0,0.0,0.0,0.0,0.0,0.0,0.0,0.0,0.0,-0.5312,-0.5312,-0.5312,-0.5312,-0.5312,-0.5312,-0.5312,-0.5312,-0.5312,-0.5491,-0.5886,-0.5882,-0.6305,-0.7054,-0.7084,-0.731,-0.7671,-0.7681,-0.8177,-0.8931,-0.8994,-0.9243,-0.9622,-1.0107,-1.0283,-1.0332,-1.0737,-1.063,-1.0337,-1.0752,-1.058,-1.0205,-0.9637,-0.9119,-0.8756,-0.9319,-0.9371,-0.9359,-0.9911,-1.0042,-0.9911,-0.9406,-0.9351,-0.9439,-0.9478,-0.9478,-0.9478,-0.9478,-0.9883,-1.0244,-1.0278,-0.9839,-0.9628,-1.0065,-0.9776,-0.9637,-1.0099,-1.1019,-1.1387,-1.0677,-1.2435,-1.2716,-0.9988,-1.1495,-1.1854,-0.9877,-1.0379,-1.1061,-1.1765,-1.1805,-1.2691,-1.4569,-1.5732,-1.7338,-1.9464,-2.1613,-2.2422,-2.1863,-2.2387,-1.9886,-1.4597,-1.4258,-1.3092,-0.3436,0.0,0.0,0.0,0.0,0.0,-0.4665,-0.5032,0.0,0.0,0.0,0.0,0.0,0.0,0.0,0.0,0.0,0.0,0.0,0.0,0.0,0.0,0.0,0.0,0.0,0.0,0.0,0.0,-0.5312,-0.5312,-0.5312,-0.5312,-0.5312,-0.5312,-0.5312,-0.5312,-0.5312,-0.5312,-0.534,-0.5463,-0.5765,-0.6006,-0.6244,-0.6544,-0.673,-0.6872,-0.7484,-0.7539,-0.7275,-0.8503,-0.9072,-0.9253,-0.999,-1.0283,-1.0293,-1.041,-1.0386,-1.0259,-0.997,-0.9813,-0.9637,-0.9079,-0.8557,-0.8238,-0.8756,-0.8627,-0.8417,-0.8947,-0.8824,-0.8458,-0.8333,-0.8308,-0.8439,-0.8841,-0.8918,-0.8918,-0.8918,-0.9039,-0.9239,-0.9642,-0.9602,-0.9434,-0.9142,-0.8994,-0.9137,-0.974,-0.9813,-1.0044,-1.0647,-1.0567,-1.0233,-0.9741,-0.9756,-0.9804,-0.9728,-0.9893,-1.0515,-1.1711,-1.2609,-1.3914,-1.577,-1.6929,-1.8194,-1.9607,-2.1659,-2.2083,-2.0818,-2.1292,-1.9956,-1.6925,-1.4853,-1.335,0.0,0.0,0.0,0.0,0.0,0.0,-0.4878,-0.5174,-0.533,0.0,0.0,0.0,0.0,0.0,0.0,0.0,0.0,0.0,0.0,0.0,0.0,0.0,0.0,0.0,0.0,0.0,0.0,-0.5312,-0.5312,-0.5312,-0.5312,-0.5312,-0.5312,-0.5312,-0.5312,-0.5312,-0.5312,-0.5312,-0.5312,-0.5312,-0.5554,-0.5734,-0.5917,-0.6156,-0.6336,-0.6526,-0.7036,-0.7034,-0.6752,-0.793,-0.8549,-0.8841,-0.9909,-1.0283,-1.0283,-1.0283,-1.0162,-0.9922,-0.9602,-0.9359,-0.9079,-0.8557,-0.8156,-0.7957,-0.8275,-0.816,-0.7957,-0.8275,-0.7946,-0.7576,-0.7829,-0.7916,-0.7995,-0.8275,-0.8357,-0.8357,-0.8357,-0.8357,-0.8521,-0.9079,-0.8999,-0.8716,-0.8439,-0.8357,-0.8544,-0.9039,-0.925,-0.9533,-1.0059,-1.017,-0.978,-0.8534,-0.9364,-0.9665,-0.8902,-0.9636,-1.0624,-1.1711,-1.2919,-1.4218,-1.5558,-1.714,-1.8328,-1.8969,-2.1417,-2.2346,-2.165,-2.1733,-2.0062,-1.6791,-1.5698,-1.4638,0.0,0.0,0.0,0.0,0.0,0.0,-0.5451,-0.5461,-0.5394,0.0,0.0,0.0,0.0,0.0,0.0,0.0,0.0,0.0,0.0,0.0,0.0,0.0,0.0,0.0,0.0,-0.531,-0.5312,-0.5312,-0.5312,-0.5312,-0.5312,-0.5312,-0.5312,-0.5312,-0.5312,-0.5312,-0.5312,-0.5312,-0.5312,-0.5312,-0.5312,-0.5495,-0.5824,-0.5824,-0.6037,-0.6366,-0.6468,-0.6601,-0.6821,-0.7412,-0.7945,-0.8477,-0.9654,-1.0123,-1.0123,-1.0123,-0.9839,-0.9399,-0.9359,-0.8999,-0.8517,-0.7991,-0.7787,-0.7787,-0.7787,-0.7787,-0.7787,-0.7787,-0.7363,-0.7066,-0.7663,-0.7787,-0.7787,-0.7787,-0.7787,-0.7787,-0.7787,-0.7787,-0.7949,-0.8431,-0.8193,-0.7874,-0.7829,-0.7862,-0.7996,-0.8231,-0.9038,-0.9518,-0.9199,-1.0516,-1.0261,-0.7165,-0.9589,-1.0503,-0.8171,-0.9695,-1.1111,-1.1868,-1.3072,-1.4063,-1.4744,-1.6916,-1.8145,-1.8229,-2.1223,-2.2928,-2.3228,-2.275,-2.0186,-1.5792,-1.676,-1.646,0.0,0.0,0.0,0.0,0.0,0.0,-0.3945,-0.4703,-0.5254,0.0,0.0,0.0,0.0,0.0,0.0,0.0,0.0,0.0,0.0,0.0,0.0,0.0,0.0,0.0,0.0,-0.5161,-0.5312,-0.5312,-0.5312,-0.5312,-0.5312,-0.5312,-0.5312,-0.5312,-0.5312,-0.5312,-0.5312,-0.5312,-0.5312,-0.5312,-0.5312,-0.534,-0.5432,-0.5432,-0.5463,-0.5568,-0.6224,-0.6275,-0.6054,-0.7496,-0.8065,-0.8144,-0.8784,-0.8999,-0.8999,-0.8999,-0.8958,-0.8797,-0.8357,-0.816,-0.7953,-0.736,-0.7192,-0.7192,-0.7192,-0.7192,-0.7192,-0.7192,-0.6771,-0.6477,-0.7021,-0.7192,-0.7192,-0.7192,-0.7192,-0.7192,-0.7192,-0.7192,-0.7192,-0.7311,-0.7655,-0.7746,-0.7276,-0.7738,-0.8158,-0.8025,-0.8746,-0.921,-0.8937,-0.9138,-0.9037,-0.8367,-0.8902,-0.9552,-1.0121,-1.0541,-1.1332,-1.2613,-1.3788,-1.4856,-1.5899,-1.7589,-1.8914,-1.9838,-2.2099,-2.2911,-2.2188,-2.166,-2.0414,-1.8485,-1.7548,-1.7357,0.0,0.0,0.0,-0.2894,0.0,0.0,0.0,-0.4894,-0.5348,0.0,0.0,0.0,0.0,0.0,0.0,0.0,0.0,0.0,0.0,0.0,0.0,0.0,0.0,0.0,0.0,-0.502,-0.5217,-0.507,-0.5194,-0.5214,-0.5067,-0.52,-0.5312,-0.5312,-0.5312,-0.5312,-0.5312,-0.5312,-0.5312,-0.5312,-0.5312,-0.5312,-0.5312,-0.5312,-0.5312,-0.5319,-0.5712,-0.5834,-0.5783,-0.6771,-0.7254,-0.7392,-0.8331,-0.872,-0.872,-0.872,-0.8517,-0.8279,-0.7995,-0.7704,-0.7405,-0.7108,-0.6979,-0.6979,-0.6979,-0.6813,-0.6556,-0.6249,-0.617,-0.6267,-0.652,-0.6813,-0.6979,-0.6979,-0.6979,-0.6979,-0.6979,-0.6979,-0.6979,-0.6979,-0.7234,-0.7412,-0.7261,-0.7632,-0.7889,-0.7882,-0.829,-0.8542,-0.8602,-0.9291,-0.9459,-0.8783,-0.9948,-1.0806,-1.0789,-1.1427,-1.2173,-1.2876,-1.395,-1.5091,-1.6247,-1.7772,-1.9478,-2.1362,-2.2224,-2.2904,-2.3388,-2.2122,-2.0906,-1.9798,-1.9523,-1.9231,0.0,0.0,0.0,0.0,0.0,-0.3473,0.0,0.0,0.0,0.0,0.0,0.0,0.0,0.0,0.0,0.0,0.0,0.0,0.0,0.0,0.0,0.0,0.0,0.0,0.0,-0.4917,-0.5094,-0.4824,-0.5007,-0.503,-0.4817,-0.5067,-0.522,-0.5312,-0.5312,-0.5312,-0.5312,-0.5312,-0.5312,-0.5312,-0.5312,-0.5312,-0.5312,-0.5312,-0.5312,-0.5312,-0.5312,-0.5444,-0.5735,-0.6072,-0.6364,-0.6735,-0.7928,-0.8386,-0.8386,-0.8386,-0.8107,-0.7746,-0.7746,-0.7405,-0.6979,-0.6979,-0.694,-0.681,-0.6722,-0.6298,-0.5784,-0.5394,-0.5567,-0.5873,-0.6007,-0.6431,-0.6855,-0.6855,-0.694,-0.6979,-0.6979,-0.6979,-0.6979,-0.6979,-0.7071,-0.7164,-0.7348,-0.7473,-0.7552,-0.7802,-0.7939,-0.8103,-0.8343,-0.9558,-0.9978,-0.8835,-1.0994,-1.2016,-1.0898,-1.207,-1.2881,-1.2881,-1.3779,-1.4885,-1.6247,-1.8082,-2.0063,-2.2166,-2.2152,-2.2957,-2.4607,-2.3178,-2.2033,-2.1184,-2.1546,-2.1128,0.0,0.0,0.0,0.0,-0.3473,0.0,0.0,0.0,0.0,0.0,0.0,0.0,0.0,0.0,0.0,0.0,0.0,0.0,0.0,0.0,0.0,0.0,0.0,0.0,0.0,0.0,-0.4844,-0.4811,-0.4629,-0.4599,-0.4797,-0.4841,-0.5007,-0.5306,-0.5312,-0.5312,-0.5312,-0.5312,-0.5312,-0.5312,-0.5312,-0.5312,-0.5312,-0.5312,-0.5312,-0.5312,-0.5312,-0.5444,-0.5735,-0.6072,-0.6364,-0.6656,-0.7031,-0.7185,-0.7185,-0.7185,-0.7147,-0.7108,-0.7108,-0.7063,-0.6979,-0.6979,-0.6686,-0.6179,-0.5653,-0.5084,-0.4694,-0.5173,-0.4954,-0.4737,-0.5262,-0.5827,-0.631,-0.631,-0.6644,-0.6979,-0.6979,-0.6979,-0.6979,-0.6979,-0.7238,-0.7345,-0.7111,-0.7291,-0.7523,-0.7557,-0.7976,-0.8337,-0.837,-0.8735,-0.8888,-0.8731,-1.0093,-1.0948,-1.0789,-1.207,-1.2881,-1.2881,-1.3012,-1.4043,-1.6204,-1.914,-2.0863,-2.1147,-2.2352,-2.3158,-2.3575,-2.4243,-2.45,-2.4332,-2.2553,-2.2043,0.0,0.0,0.0,0.0,0.0,0.0,-0.4427,0.0,-0.4966,0.0,0.0,0.0,0.0,0.0,0.0,0.0,0.0,0.0,0.0,0.0,0.0,0.0,0.0,0.0,0.0,0.0,0.0,0.0,0.0,-0.4406,-0.4389,-0.4655,-0.4943,-0.5302,-0.5312,-0.5312,-0.5312,-0.5312,-0.5312,-0.5312,-0.5312,-0.5312,-0.5312,-0.5312,-0.5312,-0.5312,-0.5312,-0.5347,-0.5498,-0.6001,-0.6266,-0.6421,-0.684,-0.6979,-0.6979,-0.6644,-0.6517,-0.6474,-0.6121,-0.6255,-0.6517,-0.6517,-0.6127,-0.5567,-0.4957,-0.4609,-0.4391,-0.4312,-0.4353,-0.4476,-0.4694,-0.5219,-0.5787,-0.6136,-0.6352,-0.6601,-0.694,-0.6979,-0.6979,-0.6979,-0.7121,-0.7171,-0.7044,-0.7271,-0.751,-0.751,-0.7731,-0.776,-0.7526,-0.8067,-0.8387,-0.8069,-0.972,-1.0789,-1.0789,-1.207,-1.2881,-1.2881,-1.413,-1.5516,-1.697,-1.9587,-2.1229,-2.1751,-2.2413,-2.3089,-2.3755,-2.4253,-2.4796,-2.533,-2.3761,-2.3056,-0.3774,0.0,0.0,0.0,0.0,0.0,0.0,0.0,0.0,0.0,0.0,0.0,0.0,0.0,0.0,0.0,0.0,0.0,0.0,0.0,0.0,0.0,0.0,0.0,0.0,0.0,0.0,0.0,0.0,0.0,-0.4118,-0.4519,-0.4947,-0.5302,-0.5312,-0.5312,-0.5312,-0.5312,-0.5312,-0.5312,-0.5312,-0.5312,-0.5312,-0.5312,-0.5312,-0.5312,-0.5312,-0.5327,-0.5441,-0.5984,-0.624,-0.6326,-0.6663,-0.6768,-0.6729,-0.6352,-0.6093,-0.5876,-0.5437,-0.5569,-0.5919,-0.5744,-0.5394,-0.4957,-0.4351,-0.4176,-0.4092,-0.3709,-0.3878,-0.4176,-0.4176,-0.4611,-0.5216,-0.583,-0.6093,-0.6349,-0.6894,-0.6894,-0.6768,-0.6768,-0.6768,-0.6768,-0.6768,-0.7115,-0.7345,-0.7345,-0.7485,-0.7429,-0.6853,-0.7406,-0.7626,-0.706,-0.8622,-0.9804,-1.0167,-1.1535,-1.2501,-1.2881,-1.5025,-1.6612,-1.7365,-1.9718,-2.1354,-2.2106,-2.248,-2.3108,-2.4002,-2.4263,-2.4845,-2.5674,-2.4534,-2.3815,0.0,0.0,0.0,-0.4685,0.0,0.0,0.0,0.0,-0.5154,0.0,0.0,0.0,0.0,0.0,0.0,0.0,0.0,0.0,0.0,0.0,0.0,0.0,0.0,0.0,0.0,0.0,0.0,0.0,0.0,0.0,-0.4112,-0.4486,-0.488,-0.5302,-0.5312,-0.5312,-0.5312,-0.5312,-0.5312,-0.5312,-0.5312,-0.5312,-0.5312,-0.5312,-0.5312,-0.5312,-0.5312,-0.5438,-0.5725,-0.6068,-0.6361,-0.6564,-0.6327,-0.6224,-0.6224,-0.6224,-0.583,-0.5348,-0.5305,-0.5305,-0.5216,-0.465,-0.4432,-0.4347,-0.3796,-0.3624,-0.3624,-0.3624,-0.3624,-0.3624,-0.3624,-0.4007,-0.4563,-0.5176,-0.5784,-0.6349,-0.6894,-0.6601,-0.6224,-0.6224,-0.6224,-0.6224,-0.6224,-0.665,-0.7037,-0.7037,-0.7493,-0.7621,-0.6879,-0.6713,-0.6357,-0.5647,-0.6276,-0.727,-0.8667,-1.0062,-1.1427,-1.2822,-1.5025,-1.6478,-1.6896,-1.9544,-2.1189,-2.1612,-2.2569,-2.3382,-2.4002,-2.4591,-2.5157,-2.5674,-2.4534,-2.4159,0.0,0.0,-0.4973,-0.51,0.0,0.0,0.0,0.0,0.0,0.0,0.0,0.0,0.0,0.0,0.0,0.0,0.0,0.0,0.0,0.0,0.0,0.0,0.0,0.0,0.0,0.0,0.0,0.0,0.0,0.0,0.0,-0.3214,-0.4155,-0.4674,-0.4794,-0.4988,-0.5312,-0.5312,-0.5312,-0.5312,-0.5312,-0.5312,-0.5312,-0.5312,-0.5312,-0.5287,-0.5109,-0.5098,-0.5166,-0.5136,-0.5177,-0.5275,-0.5403,-0.5212,-0.4905,-0.4995,-0.4867,-0.4694,-0.4694,-0.4484,-0.4186,-0.4349,-0.4178,-0.3836,-0.3667,-0.358,-0.358,-0.358,-0.358,-0.358,-0.358,-0.3753,-0.4096,-0.5089,-0.5437,-0.5867,-0.6807,-0.6562,-0.6181,-0.6181,-0.5873,-0.5741,-0.6139,-0.6002,-0.6121,-0.6891,-0.6957,-0.6699,-0.6186,-0.5817,-0.5411,-0.4884,-0.5905,-0.7164,-0.8563,-1.0856,-1.2393,-1.2876,-1.5025,-1.6619,-1.7333,-1.9718,-2.1323,-2.204,-2.315,-2.3805,-2.4002,-2.4956,-2.5517,-2.5683,-2.4943,-2.4658,-0.505,-0.5137,0.0,-0.5411,-0.5434,0.0,-0.5434,0.0,0.0,0.0,0.0,0.0,0.0,0.0,0.0,0.0,0.0,0.0,0.0,0.0,0.0,0.0,0.0,0.0,0.0,0.0,0.0,0.0,-0.3276,0.0,0.0,0.0,-0.3733,-0.423,-0.448,-0.473,-0.5052,-0.5052,-0.5151,-0.5312,-0.5119,-0.5151,-0.5312,-0.5312,-0.5217,-0.503,-0.4868,-0.4802,-0.479,-0.4649,-0.4688,-0.4848,-0.4863,-0.4631,-0.4276,-0.4347,-0.4262,-0.4136,-0.4136,-0.3878,-0.3667,-0.4008,-0.3878,-0.358,-0.358,-0.358,-0.358,-0.358,-0.358,-0.358,-0.358,-0.358,-0.384,-0.4742,-0.5,-0.5257,-0.6204,-0.5953,-0.5567,-0.5567,-0.526,-0.5087,-0.548,-0.5435,-0.5607,-0.6556,-0.6384,-0.5991,-0.5552,-0.5307,-0.4977,-0.4555,-0.532,-0.6638,-0.8563,-1.0806,-1.2388,-1.2876,-1.5025,-1.6688,-1.7563,-1.9787,-2.1424,-2.2274,-2.3409,-2.395,-2.3855,-2.5067,-2.563,-2.5546,-2.5245,-2.5139]},{"header":{"parameterUnit":"m.s-1","parameterCategory":1,"la1":30.6,"la2":29.2853,"lo1":-89.7004,"lo2":-87.6739,"dy":0.0162,"dx":0.0183,"nx":112,"ny":82,"refTime":"2024-02-01T06:00:00:Z","depth":0,"parameterNumber":3,"parameterNumberName":"V-component_of_WINDS"},"data":[0.0,0.0,0.0,0.0,0.0,0.0,0.0,0.0,0.0,0.0,0.0,0.0,0.0,0.0,0.0,0.0,0.0,0.0,0.0,0.0,0.0,0.0,0.0,0.0,0.0,0.0,0.0,0.0,0.0,0.0,0.0,0.0,0.0,0.0,0.0,0.0,0.0,0.0,0.0,0.0,0.0,0.0,0.0,0.0,0.0,0.0,0.0,0.0,0.0,0.0,0.0,0.0,0.0,0.0,0.0,0.0,0.0,0.0,0.0,0.0,0.0,0.0,0.0,0.0,0.0,0.0,0.0,0.0,0.0,0.0,0.0,0.0,0.0,0.0,0.0,0.0,0.0,0.0,0.0,0.0,0.0,0.0,0.0,0.0,0.0,0.0,0.0,0.0,0.0,0.0,0.0,-0.3992,-0.2181,0.0092,0.3053,0.3295,0.3723,0.4721,0.0,0.0,0.0,0.0,0.0,0.0,0.0,0.0,0.0,0.0,0.0,0.0,0.0,0.0,0.0,0.0,0.0,0.0,0.0,0.0,0.0,0.0,0.0,0.0,0.0,0.0,0.0,0.0,0.0,0.0,0.0,0.0,0.0,0.0,0.0,0.0,0.0,0.0,0.0,0.0,0.0,0.0,0.0,0.0,0.0,0.0,0.0,0.0,0.0,0.0,0.0,0.0,0.0,0.0,0.0,0.0,0.0,0.0,0.0,0.0,0.0,0.0,0.0,0.0,0.0,0.0,0.0,0.0,0.0,0.0,0.0,0.0,0.0,0.0,0.0,0.0,0.0,0.0,0.0,0.0,0.0,0.0,0.0,0.0,0.0,0.0,0.0,0.0,0.0,0.0,0.0,0.0,0.0,0.0,0.0,0.0,0.0,0.0,0.0,0.0,0.0,0.0,0.0,0.0,-0.3772,-0.0981,-0.0392,0.0018,0.0547,0.2256,0.3701,0.4651,0.0,0.0,0.0,0.0,0.0,0.0,0.0,0.0,0.0,0.0,0.0,0.0,0.0,0.0,0.0,0.0,0.0,0.0,0.0,0.0,0.0,0.0,0.0,0.0,0.0,0.0,0.0,0.0,0.0,0.0,0.0,0.0,0.0,0.0,0.0,0.0,0.0,0.0,0.0,0.0,0.0,0.0,0.0,0.0,0.0,0.0,0.0,0.0,0.0,0.0,0.0,0.0,0.0,0.0,0.0,0.0,0.0,0.0,0.0,0.0,0.0,0.0,0.0,0.0,0.0,0.0,0.0,0.0,0.0,0.0,0.0,0.0,0.0,0.0,0.0,0.0,0.0,0.0,0.0,0.0,0.0,0.0,0.0,0.0,0.0,0.0,0.0,0.0,0.0,0.0,0.0,0.0,0.0,0.0,0.0,0.0,0.0,0.0,0.0,0.0,0.0,0.0,0.0,-0.3678,-0.1531,-0.0144,0.0,0.0,0.0,0.0932,0.2487,0.477,0.7766,0.0,0.0,0.0,0.0,0.0,0.0,0.0,0.0,0.0,0.0,0.0,0.0,0.0,0.0,0.0,0.0,0.0,0.0,0.0,0.0,0.0,0.0,0.0,0.0,0.0,0.0,0.0,0.0,0.0,0.0,0.0,0.0,0.0,0.0,0.0,0.0,0.0,0.0,0.0,0.0,0.0,0.0,0.0,0.0,0.0,0.0,0.0,0.0,0.0,0.0,0.0,0.0,0.0,0.0,0.0,0.0,0.0,0.0,0.0,0.0,0.0,0.0,0.0,0.0,0.0,0.0,0.0,0.0,0.0,0.0,0.0,0.0,0.0,0.0,0.0,0.0,0.0,0.0,0.0,0.0,0.0,0.0,0.0,0.0,0.0,0.0,0.0,0.0,0.0,0.0,0.0,0.0,0.0,0.0,0.0,0.0,0.0,0.0,0.0,0.0,0.0,0.0,-0.2021,0.0,0.0,0.0,0.0,0.0,0.0,0.144,0.4815,0.7835,0.0,0.0,0.0,0.0,0.0,0.0,0.0,0.0,0.0,0.0,0.0,0.0,0.0,0.0,0.0,0.0,0.0,0.0,0.0,0.0,0.0,0.0,0.0,0.0,0.0,0.0,0.0,0.0,0.0,0.0,0.0,0.0,0.0,0.0,0.0,0.0,0.0,0.0,0.0,0.0,0.0,0.0,0.0,0.0,0.0,0.0,0.0,0.0,0.0,0.0,0.0,0.0,0.0,0.0,0.0,0.0,0.0,0.0,0.0,0.0,0.0,0.0,0.0,0.0,0.0,0.0,0.0,0.0,0.0,0.0,0.0,0.0,0.0,0.0,0.0,0.0,0.0,0.0,0.0,0.0,0.0,0.0,0.0,0.0,0.0,0.0,0.0,0.0,0.0,0.0,0.0,0.0,0.0,0.0,0.0,0.0,0.0,0.0,0.0,0.0,0.0,0.0,-0.2485,0.0,0.0,0.0,0.0,0.0,0.0,0.1378,0.4623,0.7766,0.0,0.0,0.0,0.0,0.0,0.0,0.0,0.0,0.0,0.0,0.0,0.0,0.0,0.0,0.0,0.0,0.0,0.0,0.0,0.0,0.0,0.0,0.0,0.0,0.0,0.0,0.0,0.0,0.0,0.0,0.0,0.0,0.0,0.0,0.0,0.0,0.0,0.0,0.0,0.0,0.0,0.0,0.0,0.0,0.0,0.0,0.0,0.0,0.0,0.0,0.0,0.0,0.0,0.0,0.0,0.0,0.0,0.0,0.0,0.0,0.0,0.0,0.0,0.0,0.0,0.0,0.0,0.0,0.0,0.0,0.0,0.0,0.0,0.0,0.0,0.0,0.0,0.0,0.0,0.0,0.0,0.0,0.0,0.0,0.0,0.0,0.0,0.0,0.0,0.0,0.0,0.0,0.0,0.0,0.0,0.0,0.0,0.0,0.0,0.0,0.0,0.0,-0.3323,-0.1527,0.0,0.0,0.0,0.0,0.0,0.1372,0.4601,0.0,0.0,0.0,0.0,0.0,0.0,0.0,0.0,0.0,0.0,0.0,0.0,0.0,0.0,0.0,0.0,0.0,0.0,0.0,0.0,0.0,0.0,0.0,0.0,0.0,0.0,0.0,0.0,0.0,0.0,0.0,0.0,0.0,0.0,0.0,0.0,0.0,0.0,0.0,0.0,0.0,0.0,0.0,0.0,0.0,0.0,0.0,0.0,0.0,0.0,0.0,0.0,0.0,0.0,0.0,0.0,0.0,0.0,0.0,0.0,0.0,0.0,0.0,0.0,0.0,0.0,0.0,0.0,0.0,0.0,0.0,0.0,0.0,0.0,0.0,0.0,0.0,0.0,0.0,0.0,0.0,0.0,0.0,0.0,0.0,0.0,0.0,0.0,0.0,0.0,0.0,0.0,0.0,0.0,0.0,0.0,0.0,0.0,0.0,0.0,0.0,0.0,-0.4528,-0.3106,-0.1672,0.0,0.0,0.0,0.0,0.0,0.1342,0.45,0.0,0.0,0.0,0.0,0.0,0.0,0.0,0.0,0.0,0.0,0.0,0.0,0.0,0.0,0.0,0.0,0.0,0.0,0.0,0.0,0.0,0.0,0.0,0.0,0.0,0.0,0.0,0.0,0.0,0.0,0.0,0.0,0.0,0.0,0.0,0.0,0.0,0.0,0.0,0.0,0.0,0.0,0.0,0.0,0.0,0.0,0.0,0.0,0.0,0.0,0.0,0.0,0.0,0.0,0.0,0.0,0.0,0.0,0.0,0.0,0.0,0.0,0.0,0.0,0.0,0.0,0.0,0.0,0.0,0.0,0.0,0.0,0.0,0.0,0.0,0.0,0.0,0.0,0.0,0.0,0.0,0.0,0.0,0.0,0.0,0.0,0.0,0.0,0.0,0.0,0.0,0.0,0.0,0.0,0.0,0.0,0.0,0.0,0.0,0.0,0.0,0.0,-0.4178,-0.1614,0.0,0.0,0.0,0.0,0.0,0.0,0.1286,0.0,0.0,0.0,0.0,0.0,0.0,0.0,0.0,0.0,0.0,0.0,0.0,0.0,0.0,0.0,0.0,0.0,0.0,0.0,0.0,0.0,0.0,0.0,0.0,0.0,0.0,0.0,0.0,0.0,0.0,0.0,0.0,0.0,0.0,0.0,0.0,0.0,0.0,0.0,0.0,0.0,0.0,0.0,0.0,0.0,0.0,0.0,0.0,0.0,0.0,0.0,0.0,0.0,0.0,0.0,0.0,0.0,0.0,0.0,0.0,0.0,0.0,0.0,0.0,0.0,0.0,0.0,0.0,0.0,0.0,0.0,0.0,0.0,0.0,0.0,0.0,0.0,0.0,0.0,0.0,0.0,0.0,0.0,0.0,0.0,0.0,0.0,0.0,0.0,0.0,0.0,0.0,0.0,0.0,0.0,0.0,0.0,0.0,0.0,0.0,0.0,0.0,0.0,-0.3803,-0.1439,0.0,0.0,0.0,0.0,0.0,0.0,0.1286,0.4313,0.0,0.0,0.0,0.0,0.0,0.0,0.0,0.0,0.0,0.0,0.0,0.0,0.0,0.0,0.0,0.0,0.0,0.0,0.0,0.0,0.0,0.0,0.0,0.0,0.0,0.0,0.0,0.0,0.0,0.0,0.0,0.0,0.0,0.0,0.0,0.0,0.0,0.0,0.0,0.0,0.0,0.0,0.0,0.0,0.0,0.0,0.0,0.0,0.0,0.0,0.0,0.0,0.0,0.0,0.0,0.0,0.0,0.0,0.0,0.0,0.0,0.0,0.0,0.0,0.0,0.0,0.0,0.0,0.0,0.0,0.0,0.0,0.0,0.0,0.0,0.0,0.0,0.0,0.0,0.0,0.0,0.0,0.0,0.0,0.0,0.0,0.0,0.0,0.0,0.0,0.0,0.0,0.0,0.0,0.0,0.0,0.0,0.0,0.0,0.0,0.0,0.0,-0.3678,-0.1369,0.0,0.0,0.0,0.0,0.0,0.0,0.0778,0.2588,0.0,0.0,0.0,0.0,0.0,0.0,0.0,0.0,0.0,0.0,0.0,0.0,0.0,0.0,0.0,0.0,0.0,0.0,0.0,0.0,0.0,0.0,0.0,0.0,0.0,0.0,0.0,0.0,0.0,0.0,0.0,0.0,0.0,0.0,0.0,0.0,0.0,0.0,0.0,0.0,0.0,0.0,0.0,0.0,0.0,0.0,0.0,0.0,0.0,0.0,0.0,0.0,0.0,0.0,0.0,0.0,0.0,0.0,0.0,0.0,0.0,0.0,0.0,0.0,0.0,0.0,0.0,0.0,0.0,0.0,0.0,0.0,0.0,0.0,0.0,0.0,0.0,0.0,0.0,0.0,0.0,0.0,0.0,0.0,0.0,0.0,0.0,0.0,0.0,0.0,0.0,0.0,0.0,0.0,0.0,0.0,0.0,0.0,0.0,0.0,0.0,0.0,-0.3824,-0.1415,0.0,0.0,0.0,0.0,0.0,0.0,0.0,0.0,0.0,0.0,0.0,0.0,0.0,0.0,0.0,0.0,0.0,0.0,0.0,0.0,0.0,0.0,0.0,0.0,0.0,0.0,0.0,0.0,0.0,0.0,0.0,0.0,0.0,0.0,0.0,0.0,0.0,0.0,0.0,0.0,0.0,0.0,0.0,0.0,0.0,0.0,0.0,0.0,0.0,0.0,0.0,0.0,0.0,0.0,0.0,0.0,0.0,0.0,0.0,0.0,0.0,0.0,0.0,0.0,0.0,0.0,0.0,0.0,1.0131,0.0,0.0,0.0,0.0,0.0,0.0,0.0,0.0,0.0,0.0,0.0,0.0,0.0,0.0,0.0,0.0,0.0,0.0,0.0,0.0,0.0,0.0,0.0,0.0,0.0,0.0,0.0,0.0,0.0,0.0,0.0,0.0,0.0,0.0,0.0,0.0,0.0,0.0,0.0,0.0,0.0,-0.448,-0.1762,0.0,0.0,0.0,0.0,0.0,0.0,0.0,0.0,0.1126,0.0,0.0,0.0,0.0,0.0,0.0,0.0,0.0,0.0,0.0,0.0,0.0,0.0,0.0,0.0,0.0,0.0,0.0,0.0,0.0,0.0,0.0,0.0,0.0,0.0,0.0,0.0,0.0,0.0,0.0,0.0,0.0,0.0,0.0,0.0,0.0,0.0,0.0,0.0,0.0,0.0,0.0,0.0,0.0,0.0,0.0,0.0,0.0,0.0,0.0,0.0,0.0,0.0,0.0,0.0,0.0,0.0,0.0,0.0,0.0,1.0117,0.0,0.0,0.0,0.0,0.0,0.0,0.0,0.0,0.0,0.0,0.0,0.0,0.0,0.0,0.0,0.0,0.0,0.0,0.0,0.0,0.0,0.0,0.0,0.0,0.0,0.0,0.0,0.0,0.0,0.0,0.0,0.0,0.0,0.0,0.0,0.0,0.0,0.0,0.0,0.0,-0.4156,-0.1631,0.0,0.0,0.0,0.0,0.0,0.0,0.0,0.0,0.0,0.0,0.0,0.0,0.0,0.0,0.0,0.0,0.0,0.0,0.0,0.0,0.0,0.0,0.0,0.0,0.0,0.0,0.0,0.0,0.0,0.0,0.0,0.0,0.0,0.0,0.0,0.0,0.0,0.0,0.0,0.0,0.0,0.0,0.0,0.0,0.0,0.0,0.0,0.0,0.0,0.0,0.0,0.0,0.0,0.0,0.0,0.0,0.0,0.0,0.0,0.0,0.0,0.0,0.8095,0.7827,0.7303,0.7325,0.77,0.8387,0.9219,0.9699,0.9921,0.0,0.0,0.0,0.0,0.0,0.0,0.0,0.0,0.0,0.0,0.0,0.0,0.0,0.0,0.0,0.0,0.0,0.0,0.0,0.0,0.0,0.0,0.0,0.0,0.0,0.9085,0.9047,0.0,0.0,0.0,0.0,0.0,0.0,0.0,0.0,0.0,0.0,0.0,0.0,-0.411,-0.1605,0.0,0.0,0.0,0.0,0.0,0.0,0.0,0.0,0.0,0.0,0.0,0.0,0.0,0.0,0.0,0.0,0.0,0.0,0.0,0.0,0.0,0.0,0.0,0.0,0.0,0.0,0.0,0.0,0.0,0.0,0.0,0.0,0.0,0.0,0.0,0.0,0.0,0.0,0.0,0.0,0.0,0.0,1.0302,1.2724,0.0,0.0,0.0,0.0,0.0,0.0,0.0,0.0,0.0,0.0,0.0,0.0,0.0,0.8162,0.8431,0.7678,0.7263,0.7172,0.7294,0.7329,0.7301,0.7425,0.7562,0.7728,0.7858,0.0,0.8801,0.9791,0.0,0.0,0.0,0.0,0.0,0.0,0.0,0.0,0.0,0.0,0.0,0.0,0.0,0.0,0.0,0.0,0.0,0.0,0.0,0.0,0.0,0.0,0.9465,0.9057,0.9013,0.8914,0.0,0.7658,0.7042,0.6691,0.5631,0.0,0.0,0.0,0.0,0.0,0.0,0.0,-0.6198,-0.2554,0.0,0.0,0.0,0.0,0.0,0.0,0.0,0.0,0.0,0.0,0.0,0.0667,0.0,0.0,0.0,0.0,0.0,0.0,0.0,0.0,0.0,0.0,0.0,0.0,0.0,0.0,0.0,0.0,0.0,0.0,0.0,0.0,0.0,0.0,0.0,0.0,0.0,0.0,0.0,0.0,0.0,1.0771,1.0496,1.1338,1.1042,1.077,0.0,0.0,0.0,0.0,0.0,0.0,0.0,0.0,0.0,0.8068,0.7619,0.7488,0.768,0.7303,0.6925,0.6551,0.6614,0.6419,0.6003,0.6024,0.6078,0.6192,0.7096,0.7663,0.8017,0.9046,0.9473,0.9518,0.0,0.0,0.0,0.0,1.0203,1.0201,1.0205,1.0199,0.0,0.0,0.0,0.0,0.0,0.0,0.0,0.0,0.0,0.0,0.0,0.0,0.0,0.9373,0.9248,0.909,0.8798,0.8367,0.7874,0.0,0.6373,0.5462,0.4817,0.0,0.0,0.0,0.0,0.0,-0.6287,-0.2736,0.0,0.0,0.0,0.0,0.0,0.0,0.0,0.0,0.0,0.0,0.0,0.0,0.0916,0.0,0.0,0.0,0.0,0.0,0.0,0.0,0.0,0.0,0.0,0.0,0.0,0.0,0.0,0.0,0.0,0.0,0.0,0.0,0.0,0.0,0.0,0.0,0.0,0.0,0.0,0.0,0.0,1.0791,1.1298,1.041,1.0241,1.0204,0.0,0.0,0.0,0.0,0.0,0.0,0.8902,0.8743,0.8333,0.7588,0.7352,0.722,0.7203,0.6981,0.6523,0.5845,0.5844,0.5631,0.5227,0.5181,0.5289,0.5575,0.6817,0.738,0.7493,0.8415,0.8964,0.9267,0.9921,1.0205,1.0244,1.0193,1.0172,1.018,1.0192,1.0197,1.0204,1.0195,0.0,1.1284,1.1511,0.0,0.0,0.0,0.0,0.9979,0.9977,0.9861,0.9744,0.9688,0.9566,0.9395,0.9197,0.8977,0.8608,0.0,0.7075,0.6491,0.6413,0.0,0.0,0.0,0.0,-0.0681,-0.4428,-0.2035,0.0,0.0,0.0,0.0,0.0,0.0,0.0,0.0,0.0,0.0,0.0,0.0,0.0,0.0,0.0,0.0,0.0,0.0,0.0,0.0,0.0,0.0,0.0,0.0,0.0,0.0,0.0,0.0,0.0,0.0,0.0,0.0,0.0,0.0,0.0,0.0,0.0,0.0,0.0,0.0,0.0,0.0,0.0,1.043,1.0241,0.0,0.0,0.0,0.0,1.0199,1.0022,0.9805,0.9567,0.9307,0.9141,0.9092,0.829,0.764,0.7205,0.6378,0.56,0.4872,0.4869,0.5214,0.5855,0.585,0.6233,0.6914,0.7122,0.7213,0.7288,0.816,0.9122,1.0043,1.0089,1.0112,1.0107,1.0107,1.0107,1.0107,1.0183,1.0199,1.0205,1.0202,1.0229,1.0421,1.125,1.0923,0.0,0.0,1.0187,1.0176,1.0175,1.0181,1.0125,0.9934,0.9879,0.9817,0.9612,0.9362,0.9009,0.0,0.7961,0.7533,0.7279,0.0,0.6835,0.6047,0.3953,0.1788,-0.0091,-0.0138,0.0,0.0,0.0,0.0,0.0,0.0,0.0,0.0,0.0,0.0,0.0,0.0,0.0,0.0,0.5201,0.0,0.0,0.0,0.0,0.0,0.0,0.0,0.0,0.0,0.0,0.0,0.0,0.0,0.0,0.0,0.0,0.0,0.0,0.0,0.0,0.0,0.0,0.0,0.0,0.0,0.0,0.0,0.0,1.0219,1.0146,0.0,1.0074,1.005,1.003,1.0012,0.9779,0.9312,0.855,0.8377,0.7981,0.7291,0.7095,0.69,0.6689,0.6507,0.6214,0.5834,0.5914,0.605,0.6223,0.6177,0.6319,0.6647,0.7166,0.7467,0.7652,0.8531,0.9015,0.9259,0.9819,1.0036,1.0033,0.9987,1.0003,1.0033,1.0006,1.0035,1.0069,1.0067,1.0066,1.0144,1.0493,1.0378,1.0144,1.0141,1.0139,1.0144,1.0137,1.0143,1.013,1.0095,1.0091,1.0034,0.9779,0.9653,0.9491,0.9172,0.8483,0.8038,0.8285,0.8163,0.8043,0.8056,0.5642,0.2898,0.0326,0.0,0.0,0.0,0.0,0.0,0.0,0.0,0.0,0.0,0.0,0.0,0.0,0.0,0.0,0.0,0.3509,0.4576,0.0,0.0,0.0,0.0,0.0,0.0,0.0,0.0,0.0,0.0,0.0,0.0,0.0,0.0,0.0,0.0,0.0,0.0,0.0,0.0,0.0,0.0,0.0,0.0,0.0,0.0,1.0387,0.9983,0.9934,0.9915,0.9873,0.9822,0.9775,0.9699,0.9468,0.8961,0.8118,0.796,0.7544,0.6768,0.6875,0.6786,0.6469,0.6687,0.6607,0.6235,0.6386,0.6553,0.6702,0.666,0.6796,0.71,0.7641,0.7947,0.8119,0.8796,0.8963,0.887,0.9557,0.9832,0.9833,0.9833,0.9857,0.9896,0.9901,0.9904,0.9896,0.9896,0.9896,0.9906,0.9951,0.9999,1.0024,1.0029,1.0025,1.003,1.003,1.0018,1.0016,1.0047,1.003,0.995,0.9774,0.9736,0.9695,0.9561,0.9019,0.8682,0.9035,0.8992,0.9002,0.9294,0.758,0.4736,0.0537,0.0,0.0,0.0,0.0,0.0,0.0,0.2139,0.248,0.0146,0.0,0.0802,0.2593,0.2668,0.2668,0.2668,0.319,0.345,0.3439,0.0,0.0,0.0,0.0,0.0,0.0,0.0,0.0,0.0,0.0,0.0,0.0,0.0,0.0,0.0,0.0,0.0,0.0,0.0,0.0,0.0,0.0,0.0,1.113,1.1149,1.0735,0.9699,0.9565,0.9563,0.9568,0.9554,0.9473,0.9281,0.9073,0.8789,0.8391,0.8177,0.7984,0.7773,0.778,0.7411,0.6645,0.6893,0.6671,0.5962,0.6164,0.6631,0.7307,0.7319,0.7704,0.8395,0.8526,0.8583,0.8619,0.8881,0.8988,0.903,0.9364,0.9493,0.9509,0.9641,0.9687,0.9701,0.9832,0.9797,0.9687,0.9687,0.9687,0.9694,0.9694,0.9781,0.9881,0.9881,0.9882,0.9882,0.9882,0.9834,0.9782,0.9787,0.9688,0.9595,0.9595,0.9594,0.96,0.96,0.9548,0.95,0.9506,0.9607,0.9717,0.9775,0.9747,0.0,0.0975,0.0064,0.0073,0.0285,0.0303,0.022,0.0018,0.6133,0.7217,0.0732,0.0117,0.2301,0.7442,0.7809,0.7899,0.7899,0.4359,0.3366,0.5108,0.0,0.0,0.0,0.0,0.0,0.0,0.0,0.0,0.0,0.0,0.0,0.0,0.0,0.0,0.0,0.0,0.0,0.0,0.0,0.0,0.0,0.0,1.064,1.0693,1.0066,0.942,0.8929,0.875,0.8702,0.8792,0.8625,0.8491,0.8429,0.8201,0.7952,0.769,0.7526,0.7354,0.716,0.7296,0.7349,0.733,0.7493,0.7426,0.7139,0.7439,0.7564,0.7522,0.7662,0.7837,0.804,0.8171,0.8316,0.8468,0.8688,0.8841,0.8953,0.9249,0.935,0.9359,0.9403,0.9411,0.942,0.9446,0.9437,0.9411,0.9411,0.9411,0.942,0.9468,0.9508,0.954,0.954,0.9536,0.954,0.954,0.9524,0.952,0.9574,0.9557,0.9527,0.9527,0.9527,0.9532,0.9532,0.9591,0.9629,0.9579,0.9604,0.96,0.9524,0.9822,0.0,0.405,0.1445,0.1809,0.653,0.7035,0.5125,0.0404,0.1738,0.416,0.7275,0.2773,0.0652,0.2113,0.5861,0.7899,0.7899,0.3169,0.2165,0.0,0.0,0.0,0.0,0.0,0.0,0.0,0.0,0.0,0.0,0.0,0.0,0.0,0.0,0.0,0.0,0.0,0.0,0.0,0.0,0.0,0.0,0.9496,0.9529,0.9355,0.9121,0.8867,0.8628,0.83,0.8121,0.8205,0.8062,0.7934,0.7853,0.7627,0.7399,0.7192,0.7043,0.6898,0.6774,0.6881,0.7022,0.7187,0.7425,0.7509,0.7432,0.7832,0.7905,0.7724,0.7848,0.7899,0.0,0.7983,0.8072,0.8197,0.8379,0.8542,0.0,0.0,0.0,0.0,0.0,0.9256,0.9294,0.9294,0.9265,0.9217,0.9217,0.9217,0.9218,0.9268,0.9314,0.9359,0.9359,0.9359,0.9359,0.9359,0.9314,0.926,0.9215,0.9187,0.9159,0.9159,0.9187,0.9233,0.9314,0.0,0.0,0.9484,0.9567,0.9609,0.9532,0.9693,0.8636,0.5342,0.2045,0.1451,0.5235,0.8073,0.8165,0.4381,0.1561,0.0,0.0,0.0,0.3018,0.0117,0.2953,0.0,0.0,0.0,0.3194,0.2967,0.0,0.0,0.0,0.3044,0.2426,0.0,0.0,0.0,0.0,0.0,0.0,0.0,0.0,0.0,0.0,0.0,0.0,0.0,0.0,0.0,0.0,0.8352,0.8168,0.7793,0.8415,0.8812,0.8535,0.8119,0.7842,0.7798,0.7776,0.7657,0.7411,0.7234,0.7064,0.6868,0.0,0.0,0.0,0.0,0.6616,0.6672,0.7025,0.7218,0.7256,0.7695,0.7885,0.787,0.7885,0.7899,0.7899,0.792,0.792,0.7927,0.8098,0.8285,0.8488,0.8789,0.8891,0.8913,0.9035,0.9158,0.9256,0.9256,0.0,0.0,0.918,0.9206,0.9206,0.9206,0.9289,0.9361,0.9282,0.9256,0.9256,0.9256,0.9158,0.9015,0.8843,0.8749,0.8705,0.8721,0.8773,0.8863,0.9047,0.9188,0.9275,0.9275,0.9486,0.9652,0.9636,0.9415,0.8355,0.5847,0.2591,0.0643,0.1003,0.0,0.0,0.9175,0.4197,0.3396,0.8799,0.9141,0.6387,0.0254,0.0,0.2211,0.6917,0.7007,0.4699,0.0005,0.1553,0.2305,0.2296,0.1815,0.1595,0.0,0.0,0.0,0.0,0.0,0.0,0.0,0.0,0.0,0.0,0.0,0.0,0.0,0.0,0.0,0.8073,0.8556,0.8684,0.8039,0.8576,0.879,0.8038,0.8108,0.8103,0.7831,0.7609,0.7286,0.6816,0.6734,0.6706,0.6661,0.6616,0.0,0.6599,0.6599,0.6761,0.7082,0.7155,0.731,0.7522,0.0,0.0,0.7665,0.7819,0.7899,0.7914,0.8009,0.8063,0.809,0.8442,0.8668,0.8812,0.8869,0.8891,0.8902,0.8925,0.8957,0.8971,0.8971,0.8968,0.9038,0.9627,0.9822,0.9822,0.9822,0.9846,0.0,0.915,0.8971,0.8971,0.8971,0.8877,0.8794,0.886,0.8786,0.8732,0.8832,0.8869,0.8894,0.8936,0.9045,0.9138,0.9138,0.9267,0.9341,0.923,0.9081,0.8781,0.8236,0.5512,0.4603,0.7142,0.8603,0.8389,0.5959,0.702,0.6153,0.2243,0.1992,0.1396,0.0059,0.0,0.048,0.1506,0.1529,0.1027,0.0,0.0337,0.0503,0.0501,0.0397,0.0349,0.0,0.0,0.0,0.0,0.0,0.0,0.0,0.0,0.0,0.0,0.0,0.7741,0.0,0.0,0.7614,0.7984,0.8219,0.8258,0.8032,0.8546,0.8747,0.8209,0.7974,0.7779,0.7611,0.7231,0.6893,0.6618,0.6599,0.6599,0.6599,0.6599,0.6599,0.6599,0.6599,0.6706,0.6891,0.7006,0.716,0.7401,0.7635,0.7753,0.7753,0.7856,0.7899,0.7899,0.7969,0.803,0.8137,0.8534,0.8744,0.8806,0.8877,0.8891,0.8891,0.8891,0.8891,0.8951,0.932,0.9447,0.9574,1.0309,1.0555,1.0487,1.0111,1.0254,1.0318,0.9213,0.9171,0.9362,0.8993,0.8855,0.8806,0.8806,0.8744,0.8717,0.8783,0.8806,0.8829,0.8889,0.8957,0.9024,0.9087,0.9158,0.9178,0.9107,0.9045,0.8979,0.8902,0.7613,0.7302,0.8886,0.9085,0.7282,0.2782,0.39,0.3462,0.0202,0.0,0.0,0.0,0.0,0.0,0.0,0.0,0.0,0.0,0.0,0.0,0.0,0.0,0.0,0.0,0.0,0.0,0.0,0.0,0.0,0.0,0.0,0.8696,0.8421,0.7985,0.7797,0.8173,0.7738,0.749,0.7939,0.791,0.785,0.7923,0.8401,0.8652,0.8442,0.7946,0.7544,0.7418,0.7,0.6712,0.6605,0.6599,0.6599,0.6599,0.6599,0.6599,0.6599,0.6599,0.6644,0.6717,0.6878,0.7087,0.7334,0.7553,0.7739,0.7899,0.7899,0.7899,0.7899,0.7935,0.8017,0.8185,0.8546,0.8717,0.8773,0.9015,0.9111,0.9111,0.9111,0.9018,0.9027,0.9912,1.0119,1.0144,1.1037,1.1324,1.1223,1.0639,1.0868,1.1045,0.9704,0.9751,1.0081,0.9484,0.93,0.9273,0.9193,0.9044,0.8953,0.9122,0.8944,0.8821,0.9063,0.8979,0.8902,0.9035,0.9047,0.9068,0.9138,0.9117,0.9066,0.8957,0.8913,0.8891,0.8891,0.8891,0.6478,0.0509,0.0606,0.0712,0.0038,0.0,0.0,0.0,0.0,0.0,0.0,0.0,0.0,0.0,0.0,0.0,0.0,0.0,0.0,1.0416,1.0191,0.0,0.9718,0.9472,0.9223,0.0,0.0,0.9728,0.9696,0.9136,0.8667,0.8723,0.8429,0.8063,0.7802,0.8256,0.8436,0.7814,0.8191,0.8409,0.8083,0.8242,0.8123,0.7474,0.7344,0.7106,0.6637,0.6599,0.6599,0.6599,0.6599,0.6599,0.6599,0.6599,0.6778,0.713,0.7155,0.7394,0.7812,0.7848,0.7885,0.7899,0.7899,0.7899,0.7914,0.8023,0.8192,0.8387,0.8612,0.8771,0.8945,0.9612,0.9874,0.9874,0.9874,0.9464,0.9095,1.0487,1.0555,1.0237,1.1696,1.217,1.2153,1.2069,1.2102,1.1975,1.1096,1.091,1.0961,1.0876,1.077,1.07,1.0818,1.0236,0.9894,1.0661,0.9806,0.9072,0.9747,0.9246,0.8768,0.8891,0.888,0.893,0.9237,0.9178,0.9097,0.9076,0.8979,0.8891,0.8891,0.8891,0.6478,0.0509,0.2779,0.3231,0.0192,0.0,0.0,0.0,0.0,0.0,0.0,0.0,0.0,0.0,0.0,0.0,0.0,0.0,0.0,0.9744,0.9705,0.0,0.0,0.9684,1.0031,1.0031,0.9968,0.9764,0.9357,0.8773,0.8377,0.8525,0.8241,0.7979,0.0,0.8142,0.8045,0.7705,0.7771,0.776,0.7502,0.7521,0.7536,0.7404,0.7112,0.6849,0.6618,0.6599,0.6599,0.6599,0.6599,0.6599,0.6599,0.6599,0.674,0.7022,0.7022,0.7268,0.7724,0.7724,0.779,0.7899,0.7899,0.7941,0.8023,0.82,0.8387,0.8612,0.9213,0.9488,0.9616,1.0352,1.0639,1.0639,1.0639,1.0445,1.0348,1.1417,1.1603,1.1519,1.2584,1.2832,1.2657,1.2377,1.239,1.2271,1.1213,1.1119,1.1221,1.0797,1.0653,1.0661,1.0867,1.0291,0.9952,1.0885,0.9941,0.9247,1.0411,0.9643,0.8975,0.9452,0.9159,0.8932,0.9149,0.9207,0.9188,0.9107,0.9055,0.8981,0.8902,0.8891,0.7953,0.5609,0.5222,0.5328,0.5845,0.4044,0.2969,0.2969,0.1055,0.0,0.0,0.0,0.0,0.0,0.0,0.0,0.0,0.0,0.0,0.9523,0.9598,0.0,0.9403,1.0018,1.0737,1.0922,1.0652,1.0266,0.9868,0.9061,0.8481,0.854,0.8014,0.7685,0.8114,0.789,0.7678,0.7707,0.7589,0.7367,0.7073,0.6914,0.6908,0.7156,0.6831,0.6599,0.6599,0.6599,0.6599,0.6599,0.6599,0.6599,0.6599,0.6644,0.6784,0.6986,0.7058,0.7298,0.7679,0.7679,0.7753,0.7899,0.7899,0.8054,0.8334,0.8586,0.8901,0.926,0.9999,1.0296,1.0386,1.1138,1.1426,1.146,1.1654,1.146,1.124,1.2246,1.2466,1.2415,1.3168,1.3269,1.3047,1.2705,1.2714,1.2632,1.1753,1.1719,1.1797,1.1258,1.1062,1.107,1.1254,1.0702,1.0398,1.1404,1.0474,0.9824,1.1166,1.0359,0.9638,1.0203,0.9655,0.9205,0.9386,0.9309,0.9207,0.9117,0.9097,0.9045,0.8913,0.8968,0.9076,0.9255,0.7486,0.7438,0.9936,0.7842,0.6455,0.6349,0.3875,0.1717,0.0034,-0.0598,-0.0612,0.0,0.0,0.0,0.0,0.0,0.0,0.9887,0.9887,0.9899,0.988,1.0301,1.0844,1.1431,1.1544,1.1688,1.2196,1.0826,0.9429,0.9045,0.7961,0.7222,0.7582,0.7619,0.7702,0.7962,0.7829,0.7485,0.6968,0.6729,0.6607,0.0,0.6611,0.6599,0.6599,0.6599,0.6599,0.6599,0.6599,0.6599,0.6599,0.6791,0.698,0.7187,0.7454,0.7679,0.7885,0.7885,0.7899,0.7899,0.7899,0.8259,0.8899,0.9291,0.9843,1.0479,1.0895,1.1062,1.1147,1.195,1.2263,1.2348,1.3074,1.2389,1.1316,1.2846,1.2905,1.2415,1.3168,1.3396,1.3379,1.3371,1.3362,1.3371,1.3329,1.3141,1.2954,1.2929,1.2732,1.2546,1.2546,1.1981,1.1713,1.2729,1.1786,1.1042,1.2065,1.1485,1.0891,1.1034,1.0358,0.986,1.0122,0.9563,0.9107,0.9107,0.9097,0.9045,0.8913,0.9138,0.9265,0.9213,0.9419,0.9717,1.0077,1.007,0.9873,0.9479,0.9049,0.6037,0.0118,-0.2105,-0.2145,0.0,0.0,0.0,0.0,0.0,0.0,0.9848,1.0163,1.0539,1.0929,1.1437,1.1864,1.2084,1.1851,1.1365,1.0575,0.9705,0.8828,0.8074,0.7581,0.7326,0.7452,0.768,0.7656,0.708,0.7721,0.778,0.6578,0.6852,0.0,0.0,0.0,0.0,0.6599,0.6599,0.6661,0.6791,0.6807,0.6861,0.6999,0.7057,0.7416,0.805,0.8192,0.8596,0.9216,0.8769,0.8342,0.7899,0.7899,0.8311,0.9057,0.9359,0.9966,1.0757,1.1575,1.1899,1.1967,1.272,1.3087,1.3174,1.3344,1.313,1.2813,1.3251,1.3244,1.3074,1.332,1.3165,1.2908,1.3077,1.3064,1.2945,1.2677,1.2735,1.2768,1.2319,1.2141,1.2154,1.2514,1.2034,1.1813,1.3015,1.207,1.1397,1.277,1.1954,1.1216,1.1806,1.1205,1.0531,1.0131,0.9514,0.9097,0.9097,0.9024,0.8946,0.8902,0.9066,0.9218,0.9323,0.9554,0.9815,1.0086,1.0162,1.0084,0.9812,0.9867,0.8686,0.6087,-0.2037,-0.6418,-0.6826,-0.4511,-0.2217,0.0,0.0,0.0,1.0091,1.0575,1.1167,1.1738,1.2153,1.241,1.241,1.1669,1.0722,0.9786,0.8879,0.8087,0.7473,0.715,0.7125,0.7601,0.7689,0.7617,0.7457,0.8019,0.8065,0.7076,0.7396,0.7588,0.0,0.0,0.0,0.6906,0.7087,0.7299,0.753,0.7548,0.7659,0.7916,0.7984,0.8284,0.8852,0.8991,0.9348,0.989,0.9466,0.9031,0.8619,0.8682,0.9142,0.987,1.0245,1.0845,1.1646,1.2379,1.2686,1.2737,1.3218,1.3454,1.3517,1.3494,1.3533,1.3586,1.3446,1.3574,1.3785,1.3785,1.3557,1.3361,1.38,1.35,1.2997,1.2903,1.2874,1.2785,1.2392,1.2303,1.2458,1.3065,1.2629,1.2393,1.3439,1.2665,1.2102,1.3193,1.26,1.2099,1.2677,1.2128,1.1257,1.0262,0.9721,0.9323,0.9058,0.8992,0.8979,0.8979,0.9138,0.9304,0.9461,0.9661,0.9863,1.0086,1.0144,1.0166,1.019,1.017,1.0022,0.975,0.1104,-0.6261,-1.2114,-0.8577,-0.576,-0.3662,-0.302,-0.2717,1.0625,1.1211,1.1781,1.2284,1.241,1.2411,1.2303,1.1048,0.9887,0.983,0.8501,0.7331,0.0,0.0,0.6677,0.7939,0.7584,0.7595,0.8828,0.8644,0.8368,0.0,0.0,0.0,0.0,0.0,0.0,0.7621,0.0,0.8429,0.8697,0.8718,0.8873,0.9229,0.9427,0.9543,0.9572,0.9858,0.998,0.9942,0.9942,0.9945,0.9926,1.0114,1.0576,1.1249,1.1768,1.2406,1.3081,1.3345,1.3481,1.3515,1.3515,1.3489,1.3481,1.3608,1.3669,1.3662,1.3521,1.3939,1.4513,1.4573,1.4563,1.468,1.5364,1.4621,1.3598,1.3971,1.3631,1.3152,1.3208,1.3234,1.3442,1.4163,1.3813,1.3447,1.4058,1.3636,1.3211,1.3455,1.3481,1.3505,1.3631,1.3019,1.2033,1.0639,1.0196,0.9759,0.9004,0.9024,0.9107,0.9107,0.9349,0.9532,0.9599,0.9787,0.9975,1.0156,1.0158,1.0332,1.0746,1.0276,1.0276,1.0867,0.6549,-0.2023,-1.4864,-1.1756,-1.03,-1.0385,-0.8612,-0.7863,1.1713,1.2307,1.2584,1.243,1.2634,1.2429,1.09,1.0213,0.9673,0.8876,0.8234,0.7818,0.0,0.0,0.0,0.7406,0.7749,0.0,0.7857,0.8778,0.0,0.867,0.0,0.9186,0.8988,0.9788,0.0,0.0,0.8983,0.8499,0.8968,0.9008,0.9225,0.9703,0.9765,1.0017,1.0458,1.1024,1.1064,1.0566,1.0566,1.0402,1.0131,1.0183,1.067,1.1518,1.1844,1.2679,1.3834,1.4118,1.4538,1.5037,1.5037,1.4783,1.4451,1.4477,1.4581,1.4709,1.4671,1.4688,1.4813,1.5417,1.5348,1.5056,1.523,1.524,1.4995,1.4063,1.4422,1.4847,1.3837,1.3791,1.417,1.481,1.4634,1.4475,1.5095,1.5078,1.4952,1.5037,1.4597,1.4279,1.4467,1.3392,1.2417,1.2203,1.1138,1.0053,0.9161,0.9076,0.9138,0.9237,0.9394,0.9548,0.9668,0.9808,1.0257,1.1089,1.0914,1.1038,1.1641,1.1434,1.1074,1.0544,0.5647,-0.0427,-0.767,-1.1589,-1.3011,-1.2064,-1.0904,-1.1395,1.2172,1.2685,1.294,1.2666,1.2524,1.2075,1.078,0.9886,0.9211,0.8735,0.843,0.0,0.0,0.0,0.0,0.0,0.0,0.0,0.8298,0.8941,0.9442,0.0,1.023,0.0,1.0401,1.1241,1.1794,0.0,1.061,1.0049,1.049,1.0505,1.0714,1.1161,1.1461,1.1633,1.1678,1.2044,1.1902,1.1251,1.1251,1.1122,1.0917,1.115,1.1719,1.2547,0.0,1.3736,1.4772,1.4921,1.5232,1.5595,1.5595,1.5429,1.5173,1.5384,1.5289,1.5189,1.6091,1.6036,1.5657,1.6281,1.6272,1.6074,1.6273,1.6047,1.5589,1.5019,1.5266,1.5528,1.4798,1.4878,1.5301,1.5967,1.5735,1.5484,1.5987,1.5824,1.5595,1.5595,1.5088,1.4701,1.4852,1.3896,1.3062,1.2943,1.2112,1.1221,1.0431,0.966,0.9237,0.9376,0.9456,0.958,0.9768,1.0212,1.0774,1.1464,1.1521,1.1814,1.2459,1.2004,1.1679,1.1506,0.6628,0.2035,-0.2218,-0.9197,-1.2489,-1.226,-1.2104,-1.2876,1.2512,1.2948,1.3136,1.2925,1.233,1.1643,1.1149,0.9784,0.8701,0.9097,0.0,0.8536,0.8607,0.8163,0.7939,0.8322,0.0,0.7452,0.923,0.9101,0.9377,1.0916,1.1601,1.2008,1.2143,1.2712,1.3058,1.3058,1.2592,1.233,1.2423,1.2441,1.2602,1.2912,1.3503,1.3525,1.2943,1.2936,1.2635,1.2067,1.2096,1.2139,1.2205,1.2704,1.3307,1.3986,0.0,0.0,1.5747,1.5747,1.5798,1.5891,1.5891,1.5824,1.579,1.6273,1.5952,1.5551,1.7439,1.7539,1.6888,1.723,1.73,1.7313,1.7731,1.686,1.5826,1.625,1.6089,1.5826,1.5901,1.6161,1.6568,1.7219,1.685,1.645,1.6758,1.6331,1.5891,1.5891,1.5435,1.5115,1.5286,1.4603,1.3884,1.3494,1.3094,1.2645,1.2153,1.0562,0.9537,0.9679,0.9713,0.9815,1.0059,1.088,1.1505,1.1805,1.2137,1.2591,1.3185,1.2319,1.2142,1.2856,0.7875,0.3844,0.0858,-0.6357,-1.0446,-1.1605,-1.2387,-1.2979,1.3914,1.4272,1.4008,1.2991,1.2458,1.1843,1.0512,0.9384,0.0,0.0,0.8987,0.8648,0.9149,0.8768,0.824,0.7898,0.0,0.0,0.0,0.0,1.0094,0.0,0.0,0.0,0.0,0.0,0.0,0.0,0.0,1.394,1.3179,1.3124,1.3268,1.363,1.375,1.375,1.363,1.363,1.3578,1.3466,1.3727,1.3983,1.4203,1.458,1.4932,1.5275,1.5362,0.0,1.6512,1.6512,1.6864,1.7422,1.7422,1.705,1.6574,1.7034,1.702,1.6869,1.7775,1.8294,1.8579,1.8662,1.8363,1.8014,1.8111,1.7368,1.6525,1.6602,1.6732,1.6794,1.6606,1.6997,1.7499,1.7662,1.7402,1.7209,1.7541,1.7515,1.7422,1.7422,1.6855,1.6501,1.6906,1.5678,1.4777,1.5192,1.3953,1.2988,1.3054,1.1539,1.0531,1.0718,1.0791,1.0892,1.1039,1.1865,1.2698,1.352,1.3163,1.321,1.3822,1.2937,1.252,1.2646,0.5746,0.0844,-0.1912,-0.7111,-1.0095,-1.0957,-1.128,-1.234,1.4013,1.4528,1.444,1.2834,1.2244,1.1732,1.0485,0.0,0.0,0.0,0.9747,0.9523,0.9636,0.0,0.0,0.0,0.0,0.0,0.0,0.0,0.0,0.0,0.0,0.0,0.0,0.0,0.0,0.0,0.0,1.4952,1.4126,1.4089,1.4313,1.482,1.4827,1.4663,1.4318,1.4318,1.4234,1.4055,1.4225,1.4451,1.4754,1.5062,1.5475,1.598,1.6113,0.0,1.727,1.727,1.7481,1.7811,1.7811,1.7671,1.752,1.7888,1.7763,1.7541,1.8419,1.8651,1.8604,1.9013,1.8913,1.8566,1.829,1.7854,1.7445,1.7305,1.7466,1.7622,1.7348,1.7607,1.7919,1.7825,1.7681,1.7595,1.7766,1.7811,1.7811,1.7811,1.7194,1.6855,1.7319,1.6395,1.5752,1.626,1.5227,1.4447,1.4536,1.3154,1.2031,1.1706,1.1734,1.1815,1.192,1.2764,1.3449,1.3868,1.3826,1.3812,1.3884,1.3158,1.2712,1.2606,0.5451,-0.0554,-0.5258,-0.7808,-0.9581,-1.0653,-1.0964,-1.2081,1.389,1.4596,1.4644,1.2798,1.2079,1.1611,1.0695,0.9954,0.0,0.0,1.055,1.0403,1.0065,0.0,0.0,0.0,0.0,0.0,0.0,0.0,0.0,0.0,0.0,0.0,0.0,0.0,0.0,0.0,0.0,0.0,1.5231,1.5292,1.5525,1.5964,1.5979,1.5665,1.5007,1.5081,1.4999,1.4732,1.5018,1.5224,1.5363,1.5786,1.6223,1.6645,1.701,0.0,0.0,1.8048,1.8048,1.8031,1.787,1.7971,1.8229,1.8508,1.8306,1.8031,1.8974,1.8855,1.8404,1.9072,1.9166,1.8914,1.843,1.8136,1.7938,1.7818,1.7907,1.802,1.7906,1.8091,1.8208,1.7869,1.7811,1.7811,1.7811,1.7811,1.7862,1.8006,1.7439,1.7146,1.7785,1.7046,1.6558,1.7077,1.6406,1.5795,1.572,1.4716,1.3719,1.2939,1.2766,1.2728,1.2806,1.3665,1.4172,1.408,1.4286,1.4194,1.3734,1.3016,1.2163,1.1183,0.5054,-0.1384,-0.7982,-0.8425,-0.9287,-1.0521,-1.1065,-1.2205,1.4429,1.5006,1.4732,1.3149,1.241,1.1837,1.0954,0.0,0.0,1.0985,1.101,1.0739,1.0409,1.0307,0.0,0.0,0.0,0.0,0.0,0.0,0.0,0.0,0.0,0.0,0.0,0.0,0.0,0.0,0.0,0.0,1.6563,1.6869,1.6928,1.6622,1.6629,1.6308,1.5716,1.6024,1.6142,1.6142,1.7412,1.7683,1.7107,1.8096,1.8236,1.7698,1.8403,0.0,0.0,1.8792,1.8792,1.8724,1.8065,1.7971,1.8229,1.8508,1.856,1.8591,1.9111,1.9127,1.8952,1.9218,1.9166,1.8958,1.8651,1.7939,1.7287,1.7696,1.7685,1.7656,1.8067,1.8371,1.843,1.7927,1.7811,1.7811,1.7811,1.7811,1.8006,1.8665,1.8208,1.8073,1.9289,1.7913,1.6962,1.786,1.6998,1.6111,1.5746,1.5695,1.5418,1.4727,1.4071,1.3724,1.3848,1.4665,1.5116,1.4992,1.462,1.4107,1.3467,1.2319,1.0074,0.6598,0.294,-0.2187,-0.8867,-0.8988,-0.953,-1.0529,-1.1612,-1.2907,1.2997,1.3798,1.3904,1.2191,1.1974,1.1899,1.0844,0.0,1.0758,1.1408,1.1334,1.1057,1.0763,1.0691,1.0593,0.0,0.0,0.0,0.0,0.0,0.0,0.0,0.0,0.0,0.0,0.0,0.0,0.0,0.0,0.0,1.8014,1.8205,1.8263,1.8081,1.766,1.7296,1.7058,1.6759,1.6926,1.7571,1.8141,1.8593,1.8935,1.9361,1.9385,1.9132,1.9419,0.0,0.0,1.957,1.957,1.9545,1.9469,1.9282,1.9146,1.9438,1.9336,1.9057,1.9243,1.9252,1.9189,1.9274,1.9252,1.915,1.8913,1.8456,1.8016,1.8017,1.7983,1.7927,1.795,1.8027,1.807,1.7847,1.7811,1.7847,1.8014,1.8254,1.8593,1.905,1.8765,1.8677,1.933,1.8429,1.778,1.8324,1.7677,1.692,1.6262,1.6441,1.6369,1.5687,1.4997,1.4643,1.4771,1.5137,1.5295,1.5108,1.4659,1.4098,1.3431,1.2003,1.0292,0.8272,0.1725,-0.4066,-0.9014,-0.9805,-1.0665,-1.161,-1.2836,-1.4159,1.1644,1.2483,1.2824,1.1204,1.1404,1.1741,0.0,0.0,1.1511,1.1892,1.1751,1.1483,1.1189,1.1057,1.0977,0.0,0.0,0.0,0.0,0.0,0.0,0.0,0.0,0.0,0.0,0.0,0.0,0.0,0.0,0.0,0.0,1.9514,1.943,1.8985,1.8483,1.8006,1.757,1.736,1.7654,1.8425,1.8966,1.9495,2.0002,2.0339,2.0364,2.0168,0.0,0.0,0.0,2.05,2.0475,2.0483,2.0485,2.032,2.0076,2.0163,1.997,1.962,1.9372,1.9305,1.9305,1.9305,1.9268,1.9173,1.9035,1.8869,1.8651,1.829,1.8187,1.8154,1.7971,1.7927,1.7943,1.8096,1.8192,1.8377,1.8789,1.9144,1.948,1.9904,1.9395,1.9047,1.9539,1.8827,1.831,1.8678,1.8359,1.7819,1.7071,1.7215,1.7151,1.6466,1.6024,1.5747,1.5656,1.5481,1.5286,1.5108,1.4659,1.4136,1.3538,1.2206,1.0957,0.9835,0.2811,-0.3796,-0.9838,-1.0749,-1.172,-1.2709,-1.4334,-1.5782,1.0753,1.1298,1.1548,1.0404,1.0806,1.1331,0.0,0.0,1.2022,1.2496,1.2384,1.2092,1.1743,1.1468,1.1219,1.0944,0.0,0.0,0.0,0.0,0.0,0.0,0.0,0.0,0.0,0.0,0.0,0.0,0.0,0.0,0.0,2.0746,2.0486,1.894,1.89,1.8215,1.6821,1.7852,1.8383,1.8434,2.0268,2.0763,2.0052,2.1093,2.1194,0.0,0.0,0.0,0.0,2.1714,2.1593,2.1515,2.0778,2.0657,2.0823,2.037,2.0325,2.0365,1.9574,1.9305,1.9305,1.9305,1.9166,1.901,1.8993,1.8993,1.8887,1.8351,1.8187,1.8187,1.8196,1.8196,1.8314,1.8778,1.9138,1.9582,2.0333,2.0475,2.07,2.1437,2.012,1.9226,2.0222,1.916,1.8391,1.8914,1.8984,1.877,1.8168,1.8096,1.7831,1.7154,1.7263,1.713,1.6542,1.5763,1.5235,1.5108,1.4659,1.4222,1.3811,1.3027,1.1717,0.9834,0.6773,-0.0381,-1.1773,-1.1837,-1.2484,-1.3636,-1.597,-1.7826,0.9608,1.0129,1.0625,1.0591,1.1181,1.1769,1.1734,0.0,1.2681,1.2838,1.2657,1.2447,1.2337,1.2245,1.2164,1.2082,1.2197,0.0,0.0,0.0,0.0,0.0,0.0,0.0,0.0,0.0,0.0,0.0,0.0,0.0,0.0,2.1541,2.1509,2.0511,1.9924,1.9709,1.9802,1.9094,1.9261,2.0328,2.0922,2.1321,2.1591,2.2108,0.0,0.0,0.0,0.0,0.0,2.249,2.234,2.2339,2.2349,2.2053,2.1609,2.1369,2.0964,2.0374,1.9574,1.9656,2.0092,1.9909,1.9821,1.9786,1.9556,1.9001,1.8371,1.8035,1.7936,1.7936,1.7936,1.8302,1.8714,1.8858,1.955,2.0265,2.0684,2.1022,2.1372,2.1797,2.1101,2.0577,2.0892,2.0092,1.932,1.8983,1.9098,1.8768,1.7505,1.7995,1.8261,1.7762,1.7727,1.7618,1.7278,1.6594,1.6423,1.6977,1.6136,1.5766,1.6042,1.4625,1.3422,1.2545,0.7381,0.0428,-0.8253,-1.0837,-1.3449,-1.603,-1.7642,-1.8732,0.0,0.9141,0.9545,0.9911,1.0773,0.0,0.0,0.0,1.3156,1.3156,1.2942,1.2751,1.2751,1.2676,1.261,1.261,1.2687,0.0,0.0,0.0,0.0,0.0,0.0,0.0,0.0,0.0,0.0,0.0,0.0,0.0,0.0,2.1634,2.1541,2.0771,2.0246,2.023,2.0737,1.9798,1.9942,2.1212,2.1473,2.1862,2.2302,2.2599,0.0,0.0,0.0,0.0,0.0,2.2939,2.2839,2.3093,2.3165,2.2975,2.2611,2.2355,2.1914,2.1319,2.0519,2.0565,2.0937,2.0644,2.0426,2.0218,1.9913,1.9052,1.8227,1.8326,1.83,1.8225,1.8225,1.8767,1.9392,1.9688,2.0358,2.108,2.1649,2.1905,2.2092,2.2388,2.1762,2.1212,2.1212,2.0611,1.9895,1.916,1.9281,1.9002,1.7764,1.819,1.8502,1.8256,1.831,1.8306,1.8074,1.7395,1.721,1.7752,1.7068,1.6801,1.7118,1.6149,1.5122,1.4126,0.621,-0.0743,-0.6618,-1.1199,-1.4892,-1.7692,-1.8572,-1.9197,0.0,0.8433,0.8495,0.8805,0.9897,1.0974,1.1211,0.0,0.0,1.3396,1.3226,1.3051,1.3023,1.2826,1.266,1.2668,1.2901,0.0,0.0,0.0,0.0,0.0,0.0,0.0,0.0,0.0,0.0,0.0,0.0,0.0,0.0,2.1288,2.0906,2.0103,2.0027,2.0052,2.012,2.0052,2.0407,2.1257,2.1942,2.2245,2.2245,2.26,0.0,0.0,0.0,0.0,0.0,2.3041,2.3041,2.364,2.3314,2.3392,2.3645,2.3178,2.2988,2.2887,2.207,2.1849,2.1833,2.1466,2.0942,2.0422,2.017,1.9254,1.8478,1.9169,1.9172,1.8978,1.8978,1.9536,2.0263,2.1008,2.1404,2.1884,2.2935,2.2879,2.2728,2.3085,2.2125,2.1288,2.1288,2.0883,2.028,1.9544,1.959,1.9442,1.8713,1.8591,1.8547,1.8575,1.8919,1.908,1.8845,1.8124,1.7701,1.7725,1.7568,1.7464,1.7422,1.7586,1.6837,1.5056,0.3195,-0.4429,-0.744,-1.2994,-1.6682,-1.8582,-1.8894,-1.9323,0.8789,0.0,0.8936,1.0222,1.0809,1.1365,0.0,0.0,0.0,0.0,0.0,0.0,0.0,1.3337,1.332,1.3226,1.3747,0.0,0.0,0.0,0.0,0.0,0.0,0.0,0.0,0.0,0.0,0.0,0.0,0.0,0.0,2.2048,2.1701,2.0932,2.0331,2.0399,2.1229,2.0416,2.0601,2.182,2.1736,2.1679,2.1704,2.2035,0.0,0.0,0.0,0.0,2.3347,2.2293,2.2446,2.3314,2.3221,2.3392,2.3645,2.3178,2.2988,2.2887,2.207,2.2198,2.263,2.2088,2.1502,2.1002,2.0933,2.0297,1.9601,1.9804,1.9781,1.9731,1.9731,2.0331,2.0957,2.117,2.1404,2.181,2.2632,2.232,2.2036,2.2684,2.239,2.2048,2.2048,2.1942,2.1614,2.0849,2.027,1.9662,1.8924,1.8334,1.807,1.827,1.8559,1.8842,1.9095,1.8738,1.8671,1.9028,1.8535,1.8639,1.9532,1.8836,1.8687,1.9184,-0.4054,-1.5903,-1.5402,-1.6824,-1.7732,-1.8229,-1.912,-1.9666,0.8891,0.8891,0.9182,1.0428,1.1033,1.1646,1.2849,0.0,0.0,0.0,0.0,0.0,0.0,0.0,0.0,0.0,1.4022,0.0,0.0,0.0,0.0,0.0,0.0,0.0,0.0,0.0,0.0,0.0,0.0,0.0,0.0,2.2434,2.1986,2.0875,2.0551,2.0565,2.0856,2.0079,2.0205,2.1255,2.1066,2.1003,2.102,2.1448,2.1654,0.0,0.0,0.0,2.2652,2.2141,2.2442,2.3189,2.3021,2.3174,2.3446,2.3202,2.3091,2.3027,2.2585,2.2404,2.2355,2.2362,2.1848,2.1209,2.1357,2.1072,2.0715,2.0592,2.056,2.0491,2.0299,2.0958,2.1581,2.1002,2.1136,2.155,2.2072,2.1798,2.1661,2.2522,2.2482,2.2245,2.2011,2.2172,2.1984,2.1027,2.0388,1.9723,1.8987,1.8259,1.7856,1.8005,1.8371,1.8643,1.8726,1.8888,1.9143,1.9513,1.9058,1.9107,1.9804,1.9461,1.67,1.1263,-0.9772,-2.0062,-1.8918,-1.8368,-1.8297,-1.8659,-1.9376,-1.9763,0.8902,0.9078,0.9426,1.0111,1.0837,1.1632,1.2568,0.0,0.0,0.0,0.0,0.0,0.0,0.0,0.0,0.0,0.0,0.0,0.0,0.0,0.0,0.0,0.0,0.0,0.0,0.0,0.0,0.0,0.0,0.0,0.0,2.2462,2.1887,2.0339,2.0569,2.042,1.9794,1.9459,1.9655,2.0319,2.0249,2.0226,2.0252,2.0696,2.0721,0.0,0.0,0.0,2.1796,2.19,2.2358,2.2935,2.277,2.2889,2.3189,2.3189,2.3189,2.3189,2.3189,2.2575,2.1879,2.2487,2.2116,2.1402,2.1536,2.159,2.1526,2.1242,2.1221,2.1185,2.0857,2.149,2.1913,2.0857,2.0855,2.1178,2.148,2.1302,2.1408,2.2453,2.24,2.2069,2.1658,2.2003,2.1925,2.0817,2.0279,1.9765,1.9156,1.8335,1.7811,1.7811,1.8249,1.845,1.8208,1.8726,1.9179,1.9485,1.9179,1.9082,1.9281,1.9748,1.37,0.0266,-1.3572,-2.0399,-2.0,-1.8982,-1.8821,-1.946,-1.9704,-1.9874,0.8936,0.9461,1.0068,1.0181,1.0325,1.0824,1.2358,0.0,0.0,0.0,0.0,0.0,0.0,0.0,0.0,0.0,0.0,0.0,0.0,0.0,0.0,0.0,0.0,0.0,0.0,0.0,0.0,0.0,0.0,0.0,0.0,2.2104,2.1405,1.9852,1.9862,1.9553,1.883,1.913,1.9508,1.9882,1.9599,1.9476,1.9476,1.9561,1.9776,0.0,0.0,1.9746,2.0305,2.034,2.0934,2.191,2.2478,2.2889,2.3189,2.3189,2.3189,2.3189,2.3189,2.2917,2.2539,2.2652,2.2441,2.2057,2.1693,2.159,2.1535,2.1154,2.1283,2.162,2.1938,2.1882,2.1603,2.1194,2.0847,2.0739,2.1178,2.0929,2.0963,2.2124,2.2015,2.1688,2.1612,2.2003,2.2101,2.1531,2.0605,1.9951,1.9841,1.8625,1.7811,1.7811,1.807,1.8249,1.8208,1.8284,1.8559,1.906,1.8716,1.8715,1.9207,2.0035,1.4035,0.0268,-1.3564,-2.0566,-2.0488,-2.0307,-2.0194,-2.0152,-2.0304,-2.0329,0.9097,0.9304,0.9526,0.968,1.0344,1.1294,1.2618,0.0,0.0,0.0,0.0,0.0,0.0,0.0,0.0,0.0,0.0,0.0,0.0,0.0,0.0,0.0,0.0,0.0,0.0,0.0,0.0,0.0,0.0,0.0,0.0,0.0,2.1019,1.9741,1.9874,1.9528,1.8622,1.8671,1.8927,1.9362,1.9212,1.9067,1.8915,1.9178,1.9121,1.8853,0.0,1.9858,1.9511,2.0719,2.1308,2.1464,2.2191,2.2589,2.2704,2.2704,2.2704,2.2704,2.2704,2.2358,2.1961,2.2345,2.1955,2.1309,2.1293,2.1102,2.087,2.0682,2.1102,2.1529,2.1275,2.1144,2.0953,2.0591,1.9929,1.9702,2.0938,2.0511,2.0322,2.1645,2.1568,2.1213,2.0935,2.1469,2.1764,2.1346,2.0533,2.0002,2.0002,1.8701,1.7811,1.7811,1.8166,1.8351,1.8208,1.833,1.8391,1.8351,1.8455,1.8414,1.825,1.7043,1.0908,-0.0756,-1.1437,-1.8103,-2.0596,-2.0596,-2.0498,-2.0303,-2.0439,-2.0406,0.9168,0.9185,0.9168,0.9241,1.0309,1.1646,1.2828,0.0,0.0,0.0,0.0,0.0,0.0,0.0,0.0,0.0,0.0,0.0,0.0,0.0,0.0,0.0,0.0,0.0,0.0,0.0,0.0,0.0,0.0,0.0,0.0,0.0,2.0487,1.9478,1.9692,1.9344,1.8339,1.8323,1.8469,1.8807,1.8752,1.8613,1.8428,1.8776,1.8523,1.7904,1.9646,1.9722,1.8792,2.0712,2.127,2.0982,2.1752,2.2158,2.231,2.231,2.231,2.231,2.231,2.193,2.1541,2.2124,2.161,2.0759,2.0849,2.0511,2.0051,1.9847,2.0432,2.0994,2.0569,2.0455,2.0356,1.9879,1.9143,1.8902,2.0242,2.0,1.987,2.1129,2.1068,2.0756,2.0516,2.1102,2.146,2.1063,2.0421,2.0002,2.0002,1.8701,1.7811,1.7811,1.8175,1.833,1.8125,1.8438,1.8322,1.7587,1.7992,1.7908,1.7158,1.3739,0.7646,-0.1343,-0.9529,-1.5878,-2.0322,-2.0508,-2.0518,-2.0371,-2.0478,-2.0419,0.8992,0.942,0.9796,0.9258,0.9851,0.0,1.2713,1.4112,0.0,1.6187,0.0,0.0,0.0,0.0,0.0,0.0,0.0,0.0,0.0,0.0,0.0,0.0,0.0,0.0,0.0,0.0,0.0,0.0,0.0,0.0,0.0,0.0,0.0,1.87,1.8693,1.8358,1.7586,1.825,1.8478,1.8249,1.8014,1.7869,1.7856,1.7898,1.7884,1.7797,1.798,1.7989,1.7946,1.8792,1.9528,2.0162,2.0966,2.1693,2.231,2.231,2.231,2.231,2.231,2.2276,2.2243,2.2293,2.194,2.1393,2.073,2.0037,1.9316,1.8571,1.8928,1.9757,2.0703,2.0502,1.9933,1.9535,1.9143,1.8832,1.8637,1.9264,2.001,2.0578,2.0487,2.0483,2.0894,2.1306,2.146,2.1063,2.0421,2.0002,2.0002,1.8701,1.7811,1.7811,1.7825,1.7847,1.7825,1.8432,1.8208,1.687,1.7043,1.6928,1.6316,1.1651,0.6007,-0.0551,-0.9257,-1.561,-1.9492,-2.0244,-2.0586,-2.0576,-2.0586,-2.0488,0.9138,0.9561,0.9999,0.9974,1.0855,0.0,0.0,1.3996,1.518,1.5498,0.0,0.0,0.0,0.0,0.0,0.0,0.0,0.0,0.0,0.0,0.0,0.0,0.0,0.0,0.0,0.0,0.0,0.0,0.0,0.0,0.0,0.0,0.0,1.7673,1.7209,1.6851,1.6571,1.6676,1.6766,1.6832,1.7837,1.7977,1.7374,1.7834,1.7949,1.7836,1.8285,1.8479,1.8581,1.9807,2.0483,2.0822,2.1591,2.2057,2.2251,2.1786,2.1608,2.1608,2.1608,2.1608,2.1684,2.2158,2.1966,2.1541,2.1261,2.0357,1.9481,1.983,1.9545,1.9153,1.9474,1.9597,1.9657,1.9691,1.8952,1.8562,1.9869,1.9852,1.9911,2.1014,2.0956,2.069,2.0583,2.1134,2.1313,2.0462,2.0141,1.9824,1.9376,1.8437,1.7811,1.7811,1.7604,1.7633,1.8027,1.7946,1.7535,1.6744,1.7809,1.7453,1.5175,1.1075,0.6388,0.1122,-0.7281,-1.441,-2.0146,-2.0449,-2.0596,-2.0595,-2.0463,-2.0355,0.9138,0.9572,1.0067,1.0341,0.0,0.0,1.3554,1.4875,1.6046,1.6308,0.0,0.0,0.0,0.0,0.0,0.0,0.0,0.0,0.0,0.0,0.0,0.0,0.0,0.0,0.0,0.0,0.0,0.0,0.0,0.0,0.0,0.0,0.0,0.0,1.615,1.5762,1.5529,1.5573,1.5465,1.5202,1.7108,1.7646,1.6984,1.7489,1.7761,1.7845,1.8335,1.8547,1.8648,1.9934,2.0772,2.1263,2.1752,2.2099,2.2217,2.1456,2.1364,2.1541,2.1541,2.138,2.1288,2.1786,2.1493,2.0904,2.0779,2.0054,1.9334,1.9723,1.9375,1.8845,1.8593,1.8723,1.9028,1.9493,1.8698,1.834,2.0246,2.0171,2.006,2.1085,2.1121,2.0894,2.0583,2.0948,2.1035,2.0335,2.0108,1.9782,1.9177,1.8527,1.8065,1.7828,1.7711,1.7759,1.8044,1.8239,1.796,1.7107,1.8535,1.7902,1.4551,1.0866,0.6395,0.1056,-0.6449,-1.3448,-1.9842,-2.0196,-2.0418,-2.0497,-2.0209,-2.0052,0.8936,0.9438,1.0039,0.0,0.0,0.0,1.5501,1.6996,1.831,1.9134,0.0,0.0,0.0,0.0,0.0,0.0,0.0,0.0,0.0,0.0,0.0,0.0,0.0,0.0,0.0,0.0,0.0,0.0,0.0,0.0,0.0,0.0,0.0,0.0,1.5578,1.5232,1.4494,1.5215,1.4842,1.343,1.5632,1.6682,1.669,1.6707,1.7101,1.7811,1.7811,1.7811,1.7879,1.8606,1.9798,2.1195,2.1195,2.1625,2.22,2.1439,2.1634,2.2276,2.2276,2.1786,2.1187,2.1195,2.0389,1.9349,1.9,1.8895,1.8668,1.7609,1.8067,1.8776,1.8314,1.805,1.8062,1.8755,1.8387,1.8203,1.9279,2.005,2.0525,2.0606,2.0827,2.0999,2.0999,2.0744,2.0626,2.0934,2.0413,1.9866,1.9537,1.9152,1.8606,1.7896,1.8169,1.8236,1.7842,1.9526,1.9791,1.7939,1.8999,1.8084,1.4575,1.0868,0.57,-0.1169,-0.7219,-1.2902,-1.8203,-1.9339,-2.0039,-2.0277,-1.981,-1.9598,0.8913,0.9438,0.0,0.0,0.0,0.0,0.0,1.7371,0.0,0.0,0.0,0.0,0.0,0.0,0.0,0.0,0.0,0.0,0.0,0.0,0.0,0.0,0.0,0.0,0.0,0.0,0.0,0.0,0.0,0.0,0.0,0.0,0.0,0.0,1.4318,1.3955,1.3726,1.3947,1.3837,1.3413,1.4589,1.5418,1.595,1.6999,1.76,1.7811,1.7811,1.8099,1.8631,1.9384,1.9951,2.0374,2.0374,2.0475,2.0584,1.9849,1.9714,1.9908,1.9908,1.9765,1.9663,2.0196,2.0102,1.9789,1.9698,1.9151,1.8634,1.9068,1.8518,1.786,1.8232,1.7746,1.7543,1.9225,1.9465,1.9567,2.0488,2.0849,2.1033,2.1259,2.1615,2.1615,2.0682,2.1197,2.1242,1.9677,1.9761,1.9597,1.8439,1.819,1.8242,1.8538,1.8234,1.8351,1.926,1.9378,1.9385,1.9351,1.9074,1.7961,1.5817,1.1209,0.5636,-0.0816,-0.6543,-1.2319,-1.813,-1.8755,-1.9217,-1.9526,-1.9423,-1.9568,0.8891,0.965,0.0,0.0,0.0,0.0,0.0,0.0,0.0,0.0,0.0,0.0,0.0,0.0,0.0,0.0,0.0,0.0,0.0,0.0,0.0,0.0,0.0,0.0,0.0,0.0,0.0,0.0,0.0,0.0,0.0,0.0,0.0,0.0,1.3642,1.3405,1.3405,1.3405,1.3405,1.3413,1.4437,1.5172,1.5637,1.6821,1.7523,1.7811,1.7811,1.8225,1.8927,1.9392,1.9731,1.9968,1.9688,1.9731,1.99,1.9173,1.9088,1.935,1.935,1.9156,1.897,1.9426,1.9351,1.9123,1.9123,1.8875,1.8676,1.9024,1.8539,1.7995,1.8293,1.7876,1.7793,1.937,1.9624,1.9932,2.1336,2.1634,2.1633,2.1597,2.1723,2.1511,2.0352,2.0598,2.0508,1.922,1.9462,1.9421,1.8363,1.837,1.8573,1.8877,1.8886,1.9189,1.9934,1.9981,1.9964,1.988,1.9055,1.81,1.7016,1.1591,0.5676,-0.0526,-0.6195,-1.1991,-1.786,-1.8233,-1.8572,-1.8872,-1.8874,-1.9004,0.8891,0.0,0.0,0.0,0.0,0.0,0.0,0.0,0.0,0.0,0.0,0.0,0.0,0.0,0.0,0.0,0.0,0.0,0.0,0.0,0.0,0.0,0.0,0.0,0.0,0.0,0.0,0.0,0.0,0.0,0.0,0.0,0.0,1.3438,1.3421,1.343,1.343,1.3421,1.3405,0.0,1.4826,1.5528,1.5629,1.6436,1.716,1.7811,1.7811,1.8183,1.88,1.88,1.9198,1.9723,1.9063,1.9215,1.9714,1.9054,1.9232,1.9799,1.9799,1.9367,1.88,1.88,1.8352,1.7803,1.7825,1.8299,1.8665,1.8011,1.8308,1.8729,1.8426,1.8292,1.8456,1.9419,1.9342,1.9605,2.1647,2.2099,2.1961,2.149,2.1242,2.0799,1.9901,1.932,1.9051,1.9273,1.9355,1.9274,1.893,1.9243,1.939,1.9083,1.9878,2.037,2.0161,2.1014,2.1043,1.9864,1.9094,1.8458,1.8014,1.1901,0.57,-0.0205,-0.6102,-1.1837,-1.7388,-1.7744,-1.8078,-1.8328,-1.8186,-1.8176,0.0,0.9548,0.0,0.0,0.0,0.0,0.0,0.0,0.0,0.0,0.0,0.0,0.0,0.0,0.0,0.0,0.0,0.0,0.0,0.0,0.0,0.0,0.0,0.0,0.0,0.0,0.0,0.0,0.0,0.0,0.0,0.0,0.0,1.3792,1.3641,1.3556,1.3556,1.3454,1.3405,0.0,1.431,1.5045,1.5637,1.6965,1.765,1.7811,1.7811,1.7896,1.8048,1.8048,1.8141,1.8253,1.8107,1.8141,1.8245,1.8107,1.8149,1.8262,1.8262,1.8175,1.8048,1.8048,1.7938,1.7847,1.8048,1.8082,1.8051,1.8091,1.809,1.8152,1.8638,1.8152,1.8079,2.032,2.0063,1.9545,2.0321,2.0483,2.037,1.9951,2.0087,1.989,1.8769,1.9002,1.9189,1.868,1.858,1.8642,1.8863,1.92,1.961,2.0097,2.0093,2.0362,2.1184,2.1197,2.0974,2.0607,1.972,1.8848,1.8028,1.1348,0.5331,0.0321,-0.58,-1.1464,-1.6569,-1.7148,-1.7606,-1.7908,-1.7591,-1.8351,0.0,0.0,0.0,0.0,0.0,0.0,0.0,0.0,0.0,0.0,0.0,0.0,0.0,0.0,0.0,0.0,0.0,0.0,0.0,0.0,0.0,0.0,0.0,0.0,0.0,0.0,0.0,0.0,0.0,0.0,0.0,1.3847,1.3904,1.3904,1.3804,1.3736,1.3736,1.368,1.3589,1.351,1.429,1.4978,1.5646,1.7134,1.7811,1.7811,1.7811,1.7811,1.7811,1.7811,1.7811,1.7811,1.7811,1.7811,1.7811,1.7811,1.7811,1.7862,1.8208,1.8335,1.8335,1.8335,1.8335,1.8305,1.8224,1.8005,1.7856,1.8125,1.8014,1.7896,1.8276,1.7967,1.7865,1.9258,1.9227,1.922,2.0338,2.0263,1.9883,1.9489,1.9427,1.9151,1.8176,1.8383,1.8504,1.7946,1.8561,1.8847,1.8218,1.9485,2.0283,1.9784,2.0138,2.0551,2.0919,2.0967,2.0561,1.9519,1.9191,1.8491,1.7321,1.093,0.5053,0.0037,-0.5896,-1.1367,-1.6389,-1.7303,-1.7524,-1.7197,-1.7909,-1.8877,0.0,0.0,0.0,0.0,0.0,0.0,0.0,0.0,0.0,0.0,0.0,0.0,0.0,0.0,0.0,0.0,0.0,0.0,0.0,0.0,0.0,0.0,0.0,0.0,0.0,0.0,0.0,0.0,0.0,0.0,1.3946,1.3983,1.3997,1.3997,1.3969,1.3946,1.3946,1.3927,1.3804,1.3634,1.4391,1.4974,1.546,1.6813,1.7498,1.7616,1.7616,1.7693,1.7811,1.7811,1.7811,1.7811,1.7811,1.7811,1.7819,1.8014,1.7957,1.7929,1.8854,1.8966,1.8724,1.886,1.8809,1.8659,1.8293,1.81,1.8008,1.8168,1.81,1.7997,1.7997,1.7904,1.7848,1.8109,1.8233,1.8718,2.0271,2.0094,1.953,1.9205,1.8818,1.8344,1.7733,1.7682,1.7588,1.7257,1.8692,1.9257,1.7839,1.9791,2.0782,1.9418,2.0191,2.0703,2.0473,2.0782,2.0278,1.8569,1.8632,1.8122,1.6792,1.0816,0.5186,0.0156,-0.5941,-1.1319,-1.5868,-1.758,-1.7923,-1.7043,-1.8611,-1.9509,0.0,0.0,0.0,0.0,0.0,0.0,0.0,0.0,0.0,0.0,0.0,0.0,0.0,0.0,0.0,0.0,0.0,0.0,0.0,0.0,0.0,0.0,0.0,0.0,0.0,0.0,0.0,0.0,0.0,0.0,1.4162,1.4329,1.442,1.442,1.4248,1.4162,1.4162,1.3983,1.383,1.3686,1.4281,1.4582,1.469,1.5511,1.6238,1.686,1.686,1.7202,1.7811,1.7811,1.7811,1.7811,1.7811,1.7811,1.7901,1.8849,1.8598,1.8051,1.9723,1.927,1.8056,1.8691,1.8471,1.7974,1.8138,1.8459,1.8684,1.8306,1.8476,1.875,1.875,1.8285,1.8109,1.9393,1.877,1.7937,1.8194,1.8175,1.8084,1.803,1.7518,1.7054,1.6959,1.7164,1.7238,1.6919,1.8252,1.9256,1.9119,1.9701,2.0263,2.0679,2.0328,2.0405,2.1334,2.1173,2.0838,2.0435,1.9714,1.8826,1.7851,1.1596,0.6493,0.2858,-0.55,-1.0946,-1.3318,-1.7304,-1.9166,-1.9015,-1.9025,-2.0016,0.9149,0.0,0.0,0.0,0.0,0.0,0.0,0.0,0.0,0.0,0.0,0.0,0.0,0.0,0.0,0.0,0.0,0.0,0.0,0.0,0.0,0.0,0.0,0.0,0.0,0.0,0.0,0.0,0.0,1.4375,1.4375,1.4443,1.4497,1.4497,1.4411,1.4375,1.4375,1.4282,1.4096,1.3818,1.4391,1.4383,1.3904,1.4648,1.5392,1.6123,1.6529,1.6885,1.7211,1.7633,1.7811,1.7811,1.7811,1.7892,1.807,1.8374,1.831,1.819,1.9238,1.9094,1.8471,1.8784,1.8674,1.8466,1.8732,1.857,1.8432,1.9223,1.8873,1.8386,1.8784,1.8352,1.7949,1.8599,1.8262,1.7811,1.7811,1.7811,1.7811,1.7811,1.7264,1.6789,1.6789,1.7197,1.7288,1.6612,1.8051,1.8835,1.7809,1.8959,1.9719,1.9214,1.998,2.0528,2.0471,2.1171,2.1146,2.0079,1.9798,1.916,1.8034,1.1772,0.7597,0.6121,-0.4382,-1.0847,-1.2999,-1.7641,-1.9565,-1.8962,-1.9551,-2.0758,0.0,0.0,0.0,0.0,0.0,0.0,0.0,0.0,0.0,0.0,0.0,0.0,0.0,0.0,0.0,0.0,0.0,0.0,0.0,0.0,0.0,0.0,0.0,0.0,0.0,0.0,0.0,0.0,0.0,1.4497,1.4497,1.4497,1.4497,1.4497,1.4497,1.4497,1.4497,1.4453,1.4257,1.3899,1.4303,1.4109,1.3422,1.3971,1.4521,1.5071,1.5815,1.647,1.702,1.7371,1.7633,1.7811,1.7811,1.7927,1.8134,1.8398,1.8317,1.8254,1.9243,1.9151,1.8648,1.8834,1.8814,1.8745,1.8872,1.8707,1.8685,1.9716,1.9229,1.8454,1.8809,1.8352,1.7811,1.7811,1.7811,1.7811,1.7811,1.7811,1.7811,1.7811,1.7337,1.6909,1.6815,1.7298,1.7425,1.6554,1.7866,1.8509,1.7243,1.8487,1.9256,1.8747,1.9901,2.059,2.032,2.1332,2.145,2.0195,2.0128,1.9596,1.8379,1.278,0.9279,0.8316,-0.2098,-0.9093,-1.2313,-1.6842,-1.901,-1.8975,-1.9993,-2.1223,0.0,0.0,0.0,0.0,0.0,0.0,0.0,0.0,0.0,0.0,0.0,0.0,0.0,0.0,0.0,0.0,0.0,0.0,0.0,0.0,0.0,0.0,0.0,0.0,0.0,0.0,0.0,0.0,0.0,1.4497,1.4497,1.4497,1.4497,1.4497,1.4497,1.4497,1.4497,1.4307,1.4101,1.3899,1.3743,1.3576,1.3405,1.3439,1.3481,1.3566,1.4293,1.5795,1.7701,1.7024,1.716,1.7811,1.7811,1.7811,1.8017,1.9737,1.9276,1.8175,2.0616,1.9885,1.798,1.8674,1.8594,1.8185,1.7943,1.8996,2.0078,1.9217,1.9418,1.9723,1.9071,1.8352,1.7811,1.7811,1.7811,1.7811,1.7811,1.7811,1.7811,1.7811,1.7526,1.7167,1.6858,1.7343,1.7554,1.6883,1.7613,1.8496,1.9165,1.8672,1.9083,2.1168,2.0521,2.0548,2.2019,2.1823,2.1786,2.2135,2.1262,2.0313,1.9377,1.5589,1.185,0.8362,0.1986,-0.4149,-1.009,-1.3824,-1.709,-1.9853,-2.0301,-2.1068,0.0,0.0,0.0,0.0,0.0,0.0,0.0,0.0,0.0,0.0,0.0,0.0,0.0,0.0,0.0,0.0,0.0,0.0,0.0,0.0,0.0,0.0,0.0,0.0,0.0,0.0,0.0,0.0,0.0,0.0,1.4497,1.4497,1.4497,1.4497,1.4497,1.4497,1.4497,1.4432,1.4295,1.4087,1.389,1.3693,1.3533,1.3446,1.3667,1.409,1.3878,1.4513,1.5719,1.6428,1.6868,1.7134,1.7625,1.7914,1.8108,1.8591,1.8476,1.816,1.8907,1.8555,1.7845,1.8115,1.8206,1.824,1.8444,1.8736,1.9082,1.9491,1.9233,1.8898,1.9095,1.8606,1.8005,1.7847,1.7811,1.7811,1.7811,1.7811,1.7811,1.7811,1.7526,1.7264,1.7142,1.7637,1.7941,1.7556,1.8089,1.8659,1.909,1.9042,1.9393,2.0467,2.0811,2.1302,2.2102,2.245,2.2617,2.2555,2.1852,2.0826,1.9476,1.5809,1.2882,1.0949,0.5268,-0.1682,-0.9898,-1.3584,-1.718,-2.0583,-2.0535,-2.1206,0.0,0.0,0.0,0.0,0.0,0.0,0.0,0.0,0.0,0.0,0.0,0.0,0.0,0.0,0.0,0.0,0.0,0.0,0.0,0.0,0.0,0.0,0.0,0.0,0.0,0.0,0.0,0.0,0.0,0.0,1.4497,1.4497,1.4497,1.4497,1.4497,1.4497,1.4497,1.4497,1.4408,1.4197,1.4051,1.3862,1.3593,1.3509,1.3701,1.4107,1.3616,1.3954,1.4952,1.5925,1.6487,1.6775,1.7515,1.7905,1.8074,1.8141,1.8126,1.8091,1.815,1.8014,1.7803,1.7914,1.8112,1.8386,1.8596,1.8672,1.8852,1.9557,1.919,1.8693,1.9273,1.8813,1.8154,1.7971,1.7927,1.7927,1.7927,1.7869,1.7811,1.7811,1.7687,1.757,1.7452,1.7868,1.8128,1.7871,1.8269,1.8818,1.9439,1.9561,1.9999,2.1057,2.1531,2.1984,2.2522,2.2953,2.3069,2.2721,2.2305,2.1421,1.9928,1.7167,1.4797,1.2925,0.8022,0.1453,-0.6842,-1.168,-1.6414,-2.0887,-2.0839,-2.1357,0.0,0.0,0.0,0.0,0.0,0.0,0.0,0.0,0.0,0.0,0.0,0.0,0.0,0.0,0.0,0.0,0.0,0.0,0.0,0.0,0.0,0.0,0.0,0.0,0.0,0.0,0.0,0.0,0.0,1.4497,1.4497,1.4497,1.4497,1.4497,1.4497,1.4497,1.4497,1.4497,1.4399,1.421,1.4201,1.3997,1.3624,1.3608,1.3533,1.3421,1.3438,1.4235,1.5547,1.5578,1.601,1.6749,1.7507,1.7811,1.7896,1.8598,1.8411,1.7904,1.8623,1.8418,1.7856,1.8125,1.8391,1.8566,1.829,1.8898,1.9621,1.9347,1.9291,1.9347,1.9609,1.8962,1.8229,1.8208,1.8208,1.8208,1.8208,1.8014,1.7833,1.7803,1.8027,1.8107,1.779,1.8005,1.8125,1.7849,1.8158,1.8951,2.0402,2.0292,2.0955,2.3248,2.2683,2.2531,2.3412,2.3311,2.3061,2.2721,2.2678,2.2093,2.0807,1.9867,1.7643,1.3948,1.0193,0.5331,-0.0716,-0.7873,-1.4514,-2.056,-2.1139,-2.1469,1.1326,0.0,0.0,0.0,0.0,0.0,0.9459,0.9667,0.0,0.0,0.0,0.0,0.0,0.0,0.0,0.0,0.0,0.0,0.0,0.0,0.0,0.0,0.0,0.0,0.0,0.0,0.0,0.0,1.4497,1.4497,1.4497,1.4497,1.4497,1.4497,1.4497,1.4497,1.4497,1.4497,1.4476,1.442,1.427,1.4149,1.4024,1.3876,1.3798,1.3782,1.4225,1.4406,1.4432,1.5262,1.5714,1.6027,1.7304,1.7811,1.7828,1.8031,1.7989,1.7859,1.8267,1.8263,1.8125,1.841,1.8669,1.8834,1.8566,1.882,1.9129,1.8865,1.8923,1.911,1.9165,1.8995,1.8734,1.8536,1.8489,1.8489,1.8489,1.843,1.833,1.8133,1.8154,1.822,1.8336,1.8441,1.8838,1.9859,1.9682,2.0145,2.2198,2.203,2.2198,2.3373,2.341,2.3379,2.3485,2.3448,2.3207,2.2738,2.2061,2.1122,1.9825,1.8884,1.757,1.5807,1.0858,0.628,0.2142,-0.6206,-1.2531,-1.6925,-2.0073,-2.1678,0.0,0.0,0.0,0.0,0.0,0.0,1.0461,1.0493,1.0349,0.0,0.0,0.0,0.0,0.0,0.0,0.0,0.0,0.0,0.0,0.0,0.0,0.0,0.0,0.0,0.0,0.0,0.0,1.4497,1.4497,1.4497,1.4497,1.4497,1.4497,1.4497,1.4497,1.4497,1.4497,1.4497,1.4497,1.4497,1.4375,1.4282,1.4197,1.4074,1.3983,1.3917,1.4268,1.4421,1.448,1.548,1.5827,1.5867,1.7249,1.7811,1.7811,1.7811,1.7869,1.7992,1.8154,1.827,1.841,1.8669,1.8869,1.8975,1.8807,1.8878,1.8975,1.8807,1.8948,1.911,1.9018,1.8993,1.8949,1.8807,1.877,1.877,1.877,1.877,1.8697,1.841,1.845,1.8585,1.8734,1.877,1.919,2.0423,2.0414,2.0918,2.2727,2.2709,2.2901,2.3934,2.3622,2.3479,2.381,2.3554,2.3179,2.2738,2.1824,2.0883,2.0004,1.8705,1.7699,1.7155,1.1328,0.552,-0.0142,-0.7062,-1.3091,-1.8164,-2.0093,-2.1199,0.0,0.0,0.0,0.0,0.0,0.0,1.1961,1.1579,1.1059,0.0,0.0,0.0,0.0,0.0,0.0,0.0,0.0,0.0,0.0,0.0,0.0,0.0,0.0,0.0,0.0,1.3924,1.4497,1.4497,1.4497,1.4497,1.4497,1.4497,1.4497,1.4497,1.4497,1.4497,1.4497,1.4497,1.4497,1.4497,1.4497,1.4408,1.4236,1.4236,1.4136,1.3969,1.403,1.4485,1.5232,1.6079,1.6291,1.6197,1.7415,1.7892,1.7892,1.7892,1.8027,1.8249,1.827,1.845,1.8688,1.894,1.9035,1.9035,1.9035,1.9035,1.9035,1.9035,1.9182,1.9283,1.9086,1.9035,1.9035,1.9035,1.9035,1.9035,1.9035,1.9035,1.8957,1.8716,1.8843,1.901,1.9018,1.9099,1.9424,2.0246,2.0786,2.1503,2.2625,2.281,2.3321,2.4582,2.3584,2.3181,2.4071,2.3551,2.3036,2.2678,2.1756,2.1047,2.0671,1.887,1.7831,1.7758,1.1463,0.4043,-0.4462,-0.9019,-1.4599,-2.0956,-2.0241,-2.0146,0.0,0.0,0.0,0.0,0.0,0.0,1.1376,1.1939,1.223,0.0,0.0,0.0,0.0,0.0,0.0,0.0,0.0,0.0,0.0,0.0,0.0,0.0,0.0,0.0,0.0,1.399,1.4497,1.4497,1.4497,1.4497,1.4497,1.4497,1.4497,1.4497,1.4497,1.4497,1.4497,1.4497,1.4497,1.4497,1.4497,1.4476,1.4432,1.4432,1.442,1.4411,1.4842,1.5243,1.5668,1.6738,1.7197,1.7268,1.8109,1.845,1.845,1.845,1.8469,1.8547,1.877,1.8878,1.8966,1.9173,1.9236,1.9236,1.9236,1.9236,1.9236,1.9236,1.9389,1.9499,1.9289,1.9236,1.9236,1.9236,1.9236,1.9236,1.9236,1.9236,1.9236,1.9171,1.9067,1.9052,1.9205,1.9644,2.0318,2.1323,2.1923,2.2652,2.3745,2.3804,2.3853,2.4128,2.381,2.3494,2.3276,2.3131,2.2853,2.2407,2.1437,2.0542,1.9721,1.8135,1.6881,1.6065,1.0423,0.4505,-0.16,-0.7405,-1.1965,-1.5374,-1.7779,-1.8451,0.0,0.0,0.0,1.1608,0.0,0.0,0.0,1.3267,1.3753,0.0,0.0,0.0,0.0,0.0,0.0,0.0,0.0,0.0,0.0,0.0,0.0,0.0,0.0,0.0,0.0,1.3793,1.4334,1.393,1.427,1.4325,1.3921,1.4288,1.4497,1.4497,1.4497,1.4497,1.4497,1.4497,1.4497,1.4497,1.4497,1.4497,1.4497,1.4497,1.4497,1.4515,1.4784,1.5198,1.578,1.676,1.7406,1.7846,1.8386,1.8594,1.8594,1.8594,1.8688,1.8816,1.8949,1.9069,1.9166,1.9268,1.9305,1.9305,1.9305,1.9374,1.9452,1.9522,1.9568,1.9578,1.9485,1.9374,1.9305,1.9305,1.9305,1.9305,1.9305,1.9305,1.9305,1.9305,1.9221,1.931,1.9815,2.0146,2.0685,2.1657,2.2027,2.2547,2.3474,2.3587,2.371,2.3969,2.3435,2.3041,2.3006,2.2794,2.2538,2.2302,2.1379,2.0395,1.9448,1.7928,1.5843,1.3155,1.066,0.6676,0.1175,-0.3208,-0.813,-1.3417,-1.4512,-1.5573,0.0,0.0,0.0,0.0,0.0,1.3193,0.0,0.0,0.0,0.0,0.0,0.0,0.0,0.0,0.0,0.0,0.0,0.0,0.0,0.0,0.0,0.0,0.0,0.0,0.0,1.3508,1.3994,1.3344,1.3756,1.382,1.3326,1.3921,1.4343,1.4497,1.4497,1.4497,1.4497,1.4497,1.4497,1.4497,1.4497,1.4497,1.4497,1.4497,1.4497,1.4497,1.4497,1.4958,1.5756,1.6569,1.7367,1.8135,1.8564,1.8725,1.8725,1.8725,1.8869,1.9052,1.9052,1.9166,1.9305,1.9305,1.9329,1.9365,1.9385,1.9527,1.9685,1.9786,1.9738,1.9669,1.9649,1.9504,1.9359,1.9359,1.9329,1.9305,1.9305,1.9305,1.9305,1.9305,1.9427,1.9684,2.0189,2.0393,2.0748,2.1437,2.1813,2.2263,2.2923,2.3217,2.3507,2.3949,2.3049,2.26,2.2976,2.2582,2.231,2.231,2.1524,2.0582,1.9448,1.7615,1.4981,1.1477,1.1226,0.8755,0.4008,0.1265,-0.3885,-1.1205,-1.1336,-1.2695,0.0,0.0,0.0,0.0,1.2961,0.0,0.0,0.0,0.0,0.0,0.0,0.0,0.0,0.0,0.0,0.0,0.0,0.0,0.0,0.0,0.0,0.0,0.0,0.0,0.0,0.0,1.3399,1.3308,1.2719,1.2636,1.3271,1.339,1.3756,1.4478,1.4497,1.4497,1.4497,1.4497,1.4497,1.4497,1.4497,1.4497,1.4497,1.4497,1.4497,1.4497,1.4497,1.4958,1.5756,1.6569,1.7367,1.8164,1.8932,1.9218,1.9218,1.9218,1.9243,1.9268,1.9268,1.9274,1.9305,1.9305,1.9418,1.9596,1.9713,1.9837,1.9933,1.9824,1.987,1.9923,1.9811,1.9673,1.9564,1.9564,1.9433,1.9305,1.9305,1.9305,1.9305,1.9305,1.9886,2.0179,1.9537,2.0033,2.053,2.0622,2.1914,2.2905,2.2997,2.3518,2.393,2.3988,2.3352,2.2952,2.3006,2.2582,2.231,2.231,2.22,2.1318,1.9484,1.6565,1.4744,1.4264,1.1328,0.8832,0.6816,0.4057,0.0321,-0.4455,-0.9169,-1.1051,0.0,0.0,0.0,0.0,0.0,0.0,1.4148,0.0,1.4629,0.0,0.0,0.0,0.0,0.0,0.0,0.0,0.0,0.0,0.0,0.0,0.0,0.0,0.0,0.0,0.0,0.0,0.0,0.0,0.0,1.2104,1.2141,1.2876,1.3675,1.4469,1.4497,1.4497,1.4497,1.4497,1.4497,1.4497,1.4497,1.4497,1.4497,1.4497,1.4497,1.4497,1.4497,1.4692,1.5105,1.6376,1.7101,1.7523,1.8794,1.9305,1.9305,1.9433,1.9476,1.949,1.9563,1.9541,1.9476,1.9476,1.9581,1.9738,1.988,1.9963,2.0012,2.0069,2.005,1.9983,1.9933,1.9823,1.9695,1.9609,1.955,1.9447,1.9329,1.9305,1.9305,1.9305,1.9565,1.9702,1.9354,1.9978,2.0494,2.0494,2.1099,2.1763,2.233,2.2939,2.352,2.4116,2.3467,2.3006,2.3006,2.2582,2.231,2.231,2.1248,1.995,1.8438,1.6003,1.4387,1.3658,1.1359,0.9037,0.6756,0.4714,0.1952,-0.1438,-0.6256,-0.8908,1.1362,0.0,0.0,0.0,0.0,0.0,0.0,0.0,0.0,0.0,0.0,0.0,0.0,0.0,0.0,0.0,0.0,0.0,0.0,0.0,0.0,0.0,0.0,0.0,0.0,0.0,0.0,0.0,0.0,0.0,1.1315,1.2499,1.3591,1.4469,1.4497,1.4497,1.4497,1.4497,1.4497,1.4497,1.4497,1.4497,1.4497,1.4497,1.4497,1.4497,1.4497,1.4637,1.4949,1.6331,1.7027,1.7381,1.8816,1.938,1.9404,1.955,1.9623,1.9679,1.9774,1.9747,1.9666,1.9707,1.9786,1.988,2.0041,2.0078,2.0115,2.0259,2.0187,2.0078,2.0078,1.9973,1.9813,1.9682,1.9623,1.9541,1.9335,1.9335,1.938,1.938,1.938,1.938,1.938,1.9816,2.0179,2.0179,2.0565,2.1124,2.1902,2.2792,2.3644,2.442,2.3851,2.3379,2.3245,2.2761,2.2436,2.231,2.0492,1.8943,1.7903,1.5825,1.4201,1.3152,1.1269,0.9044,0.6375,0.4661,0.2502,-0.0112,-0.4381,-0.7111,0.0,0.0,0.0,1.3321,0.0,0.0,0.0,0.0,1.4554,0.0,0.0,0.0,0.0,0.0,0.0,0.0,0.0,0.0,0.0,0.0,0.0,0.0,0.0,0.0,0.0,0.0,0.0,0.0,0.0,0.0,1.1296,1.2324,1.3407,1.4469,1.4497,1.4497,1.4497,1.4497,1.4497,1.4497,1.4497,1.4497,1.4497,1.4497,1.4497,1.4497,1.4497,1.494,1.5729,1.656,1.7358,1.8157,1.9189,1.9592,1.9592,1.9592,1.9682,1.9788,1.98,1.98,1.9813,1.9944,1.9993,2.0022,2.0233,2.0294,2.0294,2.0294,2.0294,2.0294,2.0294,2.0142,1.9964,1.9834,1.9685,1.9541,1.9335,1.9447,1.9592,1.9592,1.9592,1.9592,1.9592,1.9451,1.9335,1.9335,2.0728,2.1823,2.1986,2.3605,2.4804,2.4955,2.4713,2.4348,2.3813,2.328,2.2794,2.2321,2.0492,1.9124,1.8519,1.6039,1.4427,1.3768,1.1068,0.8568,0.6375,0.4281,0.209,-0.0112,-0.4381,-0.6079,0.0,0.0,1.4141,1.4107,0.0,0.0,0.0,0.0,0.0,0.0,0.0,0.0,0.0,0.0,0.0,0.0,0.0,0.0,0.0,0.0,0.0,0.0,0.0,0.0,0.0,0.0,0.0,0.0,0.0,0.0,0.0,1.1117,1.3486,1.3769,1.4327,1.4591,1.4497,1.4497,1.4497,1.4497,1.4497,1.4497,1.4497,1.4497,1.4497,1.4527,1.5158,1.5574,1.59,1.6801,1.7339,1.7667,1.8535,1.8955,1.9137,1.9669,1.9892,1.9933,1.9933,2.0021,2.0126,2.0031,2.0088,2.0205,2.0277,2.0302,2.0302,2.0302,2.0302,2.0302,2.0302,2.0251,2.0134,1.9856,1.9774,1.965,1.9356,1.9471,1.9605,1.9605,1.9669,1.9698,1.9619,1.963,1.9563,1.9326,2.0348,2.1408,2.212,2.3329,2.4407,2.5125,2.4835,2.4379,2.3851,2.3018,2.2473,2.2302,2.0492,1.895,1.7948,1.5825,1.4247,1.3243,0.9412,0.7108,0.6375,0.2843,0.0724,-0.0056,-0.2952,-0.4182,1.3688,1.4114,0.0,1.4866,1.493,0.0,1.493,0.0,0.0,0.0,0.0,0.0,0.0,0.0,0.0,0.0,0.0,0.0,0.0,0.0,0.0,0.0,0.0,0.0,0.0,0.0,0.0,0.0,1.1058,0.0,0.0,0.0,1.4054,1.3943,1.4428,1.4666,1.4569,1.4569,1.4545,1.4497,1.4556,1.4545,1.4497,1.4497,1.4531,1.4607,1.5207,1.5831,1.6435,1.7053,1.765,1.8254,1.8805,1.9105,1.9288,1.9812,2.005,2.0106,2.0106,2.0187,2.0277,2.0152,2.0187,2.0302,2.0302,2.0302,2.0302,2.0302,2.0302,2.0302,2.0302,2.0302,2.0225,1.9942,1.9869,1.9792,1.9526,1.9625,1.9738,1.9738,1.9802,1.9847,1.9762,1.9764,1.9716,1.9452,2.0248,2.1242,2.2267,2.3219,2.4191,2.5187,2.5027,2.4558,2.3851,2.3041,2.2465,2.2302,2.0492,1.8863,1.764,1.5739,1.4113,1.2925,0.8636,0.6642,0.718,0.2635,0.0503,0.0725,-0.0661,-0.1538]}]]